GFSWCAN_850_spd_000.txt.gz
Wind_Speed
17 27 36 32 33 34 31 31 29 27 25 22 19 17 15 12 11 10 9 11 10 6 13 11 11 15 13 10 3 5 4 4 2 3 3 4 4 4 4 7 7 8 6 4 4 5 10 3 9 3 16 28 29 27
18 20 23 31 28 34 31 34 30 31 29 26 24 22 20 17 15 14 15 12 13 13 10 8 14 23 18 19 17 12 6 6 8 4 4 3 3 2 3 9 15 6 7 7 9 8 27 39 37 29 42 33 36 28
16 17 19 23 27 28 28 29 31 32 29 28 27 25 23 21 19 18 19 16 13 14 21 24 28 29 24 25 21 17 13 13 15 14 9 4 4 3 4 5 5 5 19 12 15 17 31 35 43 39 33 32 32 30
10 12 18 21 23 26 29 29 32 29 29 29 28 28 26 24 23 21 21 20 20 10 6 14 25 31 26 20 21 23 25 24 23 18 12 3 3 12 5 9 9 9 12 12 22 29 32 32 30 35 36 35 20 27
10 10 11 13 16 20 25 31 32 31 30 29 27 29 27 25 24 22 22 24 23 19 4 8 16 23 20 17 19 23 24 26 24 15 9 3 6 6 11 5 7 11 14 10 18 32 28 38 39 38 32 19 23 21
7 8 11 14 14 14 16 20 26 33 35 35 35 35 31 27 27 23 23 35 29 29 8 3 7 14 21 28 26 29 29 29 28 12 8 11 22 11 4 11 13 22 21 25 27 43 47 41 33 27 24 22 21 22
8 6 8 9 13 17 16 16 20 24 26 28 31 36 32 30 31 31 9 8 16 22 6 5 6 3 20 23 19 23 26 28 23 18 12 10 10 13 3 12 36 30 33 39 42 35 21 20 21 21 17 19 24 22
10 6 7 8 6 8 12 12 13 17 20 23 23 22 24 28 30 27 24 15 15 15 8 3 4 3 6 5 6 8 4 8 7 6 2 3 7 9 6 22 30 33 33 32 20 21 17 17 18 21 21 23 24 18
14 10 7 6 8 10 8 5 4 4 7 12 17 19 18 18 13 13 17 14 20 12 5 5 3 2 5 3 2 1 2 1 4 5 6 6 4 8 12 23 25 27 29 16 13 13 12 15 20 22 24 26 20 15
18 14 10 7 4 2 6 7 7 4 7 11 15 6 5 6 8 6 5 4 5 7 6 5 5 4 7 6 2 1 2 2 2 5 7 4 11 33 34 35 36 9 8 8 7 12 17 19 22 25 26 23 18 23
19 20 15 9 7 5 4 6 8 12 12 9 5 3 9 14 5 3 3 3 4 3 5 4 13 2 4 3 2 6 1 2 3 4 3 3 5 14 19 9 4 5 6 8 12 15 19 21 23 26 28 26 28 20
19 21 19 14 12 8 5 8 13 10 3 5 6 13 12 4 3 3 3 4 3 2 7 6 5 5 4 3 6 7 3 4 6 4 2 4 3 10 3 3 4 6 12 14 15 20 24 25 26 26 28 27 26 20
16 18 19 15 14 10 10 12 13 7 11 9 3 4 4 3 4 4 6 3 3 3 3 4 3 2 2 1 2 2 4 5 5 3 4 3 7 10 6 2 4 11 12 15 24 25 25 27 30 28 28 28 23 17
19 18 19 17 15 13 14 15 13 13 4 2 3 3 4 4 4 2 2 2 4 9 11 10 5 1 3 1 2 3 4 4 4 5 7 3 7 4 5 7 9 14 19 23 29 30 29 26 26 27 26 24 22 15
18 16 16 15 15 15 14 15 17 10 3 3 3 3 4 2 4 3 5 6 11 8 5 4 2 2 2 2 3 3 4 6 6 4 3 13 12 6 9 12 16 22 23 31 35 30 27 27 28 29 30 28 23 9
20 18 18 19 19 17 15 15 12 4 3 3 4 2 2 1 2 1 2 4 6 6 3 2 2 1 4 4 6 7 5 7 5 3 18 18 18 15 16 21 22 23 28 32 32 27 30 29 29 30 29 22 14 8
19 16 20 19 18 15 16 10 6 5 3 3 4 6 1 2 2 6 8 7 6 7 1 2 4 7 4 5 8 5 7 7 15 18 20 21 24 25 26 24 23 26 29 30 28 29 31 28 26 29 24 17 10 11
15 10 19 20 18 17 10 4 3 2 3 6 4 5 7 6 6 7 8 8 8 9 5 5 6 9 6 11 12 9 19 22 24 26 28 30 30 31 29 25 30 32 29 28 29 29 31 30 27 22 17 12 11 13
10 12 20 21 19 9 6 6 4 3 7 3 7 3 6 9 12 11 10 9 12 11 6 5 7 8 10 17 19 24 27 25 26 29 29 31 29 30 32 32 31 30 29 29 29 32 36 28 21 14 12 13 13 10
10 14 20 18 14 4 4 3 4 4 3 5 8 10 12 8 7 13 16 15 13 9 9 6 9 21 21 24 26 27 30 32 31 30 33 35 33 31 31 31 31 32 33 32 30 30 25 19 14 15 16 11 11 10
13 15 18 16 9 5 3 4 5 4 4 5 5 10 8 11 14 14 11 13 11 11 14 20 29 36 34 34 34 35 35 33 34 32 34 36 38 35 36 36 35 33 30 27 31 27 24 18 15 18 17 15 13 13
12 19 16 18 5 4 5 9 5 5 5 5 4 6 7 9 12 13 12 13 17 23 29 33 32 30 30 31 31 30 30 30 34 37 38 35 33 31 31 30 30 30 29 30 30 29 23 18 13 12 14 14 13 13
18 18 9 8 5 4 5 10 7 6 5 6 6 5 6 6 7 8 7 13 19 29 29 28 29 28 29 31 30 32 32 31 30 30 30 30 30 29 30 35 33 33 32 29 26 21 17 14 12 13 13 13 13 13
18 10 8 9 12 4 6 7 6 5 6 7 4 6 7 8 12 10 9 19 31 28 26 28 28 28 27 26 25 24 24 24 27 27 27 28 31 33 34 32 29 28 23 18 14 12 8 8 14 15 13 14 13 13
7 7 6 6 9 7 6 4 6 6 6 8 12 9 4 5 4 7 11 23 27 26 25 24 22 22 22 23 21 22 23 23 22 27 32 28 29 21 22 23 22 13 8 13 9 5 10 14 12 12 13 13 12 11
7 9 11 8 10 7 8 5 7 11 10 13 6 6 4 3 6 7 7 16 18 16 17 19 17 15 16 18 21 22 23 23 26 27 29 23 18 19 20 21 20 15 13 11 12 12 9 10 13 14 13 12 12 11
6 8 9 11 10 8 5 8 9 7 7 6 6 10 5 5 6 6 16 16 16 15 13 11 13 14 18 21 22 24 27 27 25 27 27 24 21 19 17 18 20 18 11 9 10 12 12 15 14 12 13 11 9 9
9 7 10 16 13 15 11 9 7 6 6 11 11 9 5 6 6 14 11 12 14 13 16 19 20 26 31 28 26 27 27 27 27 26 25 22 19 16 14 15 16 13 11 10 11 12 12 12 11 11 11 10 9 10
9 11 12 11 16 10 13 11 14 21 23 20 11 13 19 26 29 29 29 27 26 26 29 31 34 33 29 26 25 24 24 20 19 22 20 21 19 18 17 16 14 15 17 17 17 16 16 13 12 11 10 11 12 12
15 16 14 15 14 12 27 21 25 27 23 24 25 28 31 38 41 38 35 34 34 34 35 33 31 28 25 23 23 22 15 14 14 16 18 19 19 20 18 14 15 16 18 19 19 18 16 15 14 11 12 12 13 15
11 11 16 21 21 31 32 29 30 29 29 29 29 28 34 35 34 32 30 30 31 30 29 27 21 15 14 14 12 13 13 9 9 13 14 14 14 12 11 9 10 11 9 8 9 7 9 10 10 10 11 12 14 16
9 13 15 14 19 23 21 15 14 18 21 21 26 25 26 19 14 15 17 18 18 15 13 14 15 13 15 14 9 8 10 11 10 10 10 9 7 7 5 4 3 2 1 1 2 4 6 7 7 10 12 11 11 9
18 20 22 21 19 19 22 11 8 8 16 21 21 21 21 17 7 7 6 8 10 14 15 14 11 9 8 7 7 8 7 7 7 7 6 6 5 5 4 3 3 5 5 5 5 6 7 8 8 7 8 8 9 10

GFSWCAN_850_spd_003.txt.gz
Wind_Speed
26 38 34 31 31 31 29 26 24 22 21 19 17 15 12 10 9 8 9 6 6 4 10 9 8 13 8 4 4 1 5 1 4 2 3 3 4 4 2 4 3 4 2 4 3 4 8 2 4 3 8 16 23 17
11 18 28 35 31 32 30 30 27 26 24 22 20 18 16 13 12 11 11 11 10 10 8 8 9 15 19 15 8 3 4 1 7 3 2 2 3 1 4 5 4 3 7 4 9 6 9 25 25 31 36 36 31 25
9 11 21 30 33 28 30 29 31 26 26 26 24 22 20 17 15 15 14 14 12 10 17 22 23 21 19 20 19 10 10 11 9 14 9 4 4 3 4 5 4 3 15 8 7 10 24 28 42 39 35 29 29 19
10 13 13 14 20 27 27 27 29 25 26 26 25 24 23 21 20 18 18 17 17 7 6 14 21 27 24 18 20 19 22 25 24 22 8 3 3 13 4 6 7 7 5 8 13 24 33 31 28 33 32 23 22 21
6 8 12 14 15 19 22 25 26 25 25 24 25 25 23 22 22 22 22 22 20 15 3 5 12 15 12 23 25 20 22 27 27 11 6 3 6 4 6 3 3 14 15 7 16 30 25 35 27 31 18 16 13 13
6 7 8 9 9 10 12 17 23 27 27 27 25 23 22 21 22 22 17 27 25 23 9 2 8 19 20 19 25 28 27 28 26 10 8 11 22 13 4 7 12 27 25 28 27 31 37 33 23 16 18 15 17 22
8 7 6 7 9 11 10 10 12 18 26 29 27 28 26 25 26 30 7 2 12 20 12 5 5 5 19 24 20 19 23 22 22 19 12 15 12 13 2 11 28 28 28 33 42 39 21 8 8 11 14 17 20 19
9 5 3 6 4 4 7 11 12 12 14 19 21 21 23 26 29 29 35 25 19 17 6 2 3 3 7 5 5 8 6 9 8 8 2 4 6 7 4 16 25 23 29 30 19 9 7 9 14 16 14 14 18 19
10 7 4 4 4 5 3 3 5 8 10 14 16 17 18 16 12 15 20 19 19 11 6 5 3 2 5 3 3 1 2 1 6 4 5 5 3 6 7 19 24 28 24 8 8 5 7 10 15 20 22 22 22 24
11 10 6 3 0 1 5 5 2 4 8 12 16 10 7 6 5 5 5 8 12 7 6 5 6 2 8 6 2 0 2 2 2 4 4 3 6 22 26 33 36 18 3 7 10 7 9 15 18 24 23 21 27 28
13 14 11 6 4 5 6 6 6 8 14 13 5 4 11 15 6 5 3 2 2 2 5 4 11 2 6 3 2 4 0 1 3 4 4 3 3 8 17 16 5 5 7 6 7 12 16 21 24 26 29 31 30 30
14 17 16 12 8 7 6 8 14 9 7 6 4 12 11 4 3 3 3 4 3 3 7 4 4 4 3 3 4 5 2 2 5 7 1 4 4 12 5 6 8 5 3 3 6 18 21 25 24 26 28 30 28 28
17 18 19 15 11 7 5 9 8 6 11 10 3 4 5 3 3 4 5 3 2 5 5 5 3 3 3 2 3 0 3 5 6 2 4 4 10 11 4 4 4 10 15 11 23 24 26 24 22 22 25 25 28 28
16 14 16 17 14 11 8 11 11 10 3 2 3 2 4 3 3 1 1 2 3 5 9 10 5 2 3 2 1 2 4 2 3 2 4 3 12 10 11 11 14 19 22 23 23 25 31 28 27 27 24 22 26 26
17 17 18 18 18 14 13 13 13 9 2 1 2 3 3 3 4 5 5 5 8 8 8 8 5 2 1 1 3 1 3 5 5 4 2 12 14 13 13 13 17 21 22 21 24 31 33 29 26 29 28 26 27 24
21 23 19 17 16 16 14 16 16 9 2 3 3 1 1 5 4 3 5 8 9 9 7 3 3 2 3 4 2 7 3 6 4 1 13 19 20 21 21 21 23 24 24 25 30 34 30 29 28 28 31 31 25 18
20 15 15 14 15 16 15 14 6 4 3 2 2 4 5 3 3 7 10 9 11 9 2 2 3 9 4 1 3 4 5 3 10 21 25 28 26 25 25 27 26 25 27 33 35 31 30 31 34 31 34 32 19 13
18 15 16 17 19 19 15 7 5 3 3 5 5 6 8 5 4 5 6 10 10 6 5 4 4 1 5 6 4 5 15 23 31 34 35 35 30 27 29 30 31 31 33 34 35 32 32 31 31 32 30 22 15 12
15 12 15 18 21 9 5 7 3 2 6 3 8 5 5 4 8 8 9 9 12 11 4 3 3 4 4 8 14 26 29 28 24 25 32 37 33 29 31 32 33 35 35 35 34 37 35 32 25 28 22 18 13 9
9 12 21 22 16 5 4 4 6 3 2 3 8 9 7 6 8 10 12 12 12 8 9 4 5 18 20 25 26 24 28 33 35 31 34 37 36 32 33 35 37 37 36 36 35 34 32 29 29 29 22 16 15 15
15 23 26 19 8 5 3 4 3 3 4 4 5 11 4 8 16 15 12 12 11 7 6 18 32 39 36 34 35 35 36 36 36 31 33 34 41 40 37 35 33 32 32 31 33 35 34 33 34 28 20 17 13 6
18 21 19 13 3 3 3 7 3 2 3 3 2 4 3 4 10 14 12 15 9 18 25 35 35 32 32 33 33 31 30 29 29 32 34 32 31 35 34 35 34 33 36 38 35 34 31 29 27 20 15 11 10 12
22 17 8 6 3 3 3 7 6 5 4 4 4 3 4 5 6 7 8 10 16 27 31 32 32 31 32 34 33 33 31 30 30 29 27 28 32 28 32 31 30 28 28 31 29 27 23 19 19 15 10 8 11 14
14 11 6 7 8 4 4 5 5 4 5 4 3 3 4 8 7 8 4 14 26 29 31 31 30 31 31 30 29 27 25 24 23 23 25 27 30 31 27 23 23 21 25 25 21 21 16 7 7 7 5 11 13 11
6 8 6 6 7 5 4 3 6 4 4 6 4 4 4 6 2 3 4 17 25 30 32 29 26 26 27 27 25 22 19 21 23 25 27 27 26 27 27 25 22 25 21 19 13 11 6 4 5 7 7 10 11 9
4 9 11 11 9 6 7 4 6 7 4 4 6 5 4 2 2 6 4 11 16 19 19 19 20 19 18 14 13 16 22 24 26 27 29 26 25 25 28 26 26 24 18 17 13 10 12 8 8 10 12 10 10 12
5 7 8 12 7 8 4 6 8 3 4 5 3 4 3 4 6 7 18 18 14 9 11 11 12 12 12 14 18 25 27 26 27 28 27 26 25 21 18 21 22 21 18 14 13 11 11 13 13 13 13 12 13 13
9 6 7 13 10 13 5 3 4 6 5 6 5 5 6 7 6 11 11 10 14 18 22 23 21 23 23 24 28 30 31 26 23 23 22 21 18 17 16 16 15 17 16 12 14 14 14 13 13 14 15 14 13 9
7 9 11 11 14 7 9 8 9 13 19 17 7 6 11 24 27 30 34 32 32 33 35 37 34 31 29 30 27 28 24 18 18 20 20 21 21 19 19 21 21 18 14 15 16 18 18 19 18 18 16 14 11 12
7 14 9 9 7 6 18 19 23 26 24 25 28 28 31 39 42 39 38 34 31 30 30 29 28 27 27 25 23 19 15 12 13 14 17 19 22 21 19 18 16 13 15 15 14 14 16 16 14 16 15 14 15 14
10 10 15 18 12 27 33 33 31 31 33 35 33 29 33 38 39 34 27 27 29 31 29 25 23 21 16 15 15 15 14 13 12 12 14 16 14 13 13 12 11 10 8 6 7 7 5 4 7 9 10 9 9 9
9 11 13 8 18 26 26 26 27 25 25 25 27 27 29 23 18 17 19 18 19 16 15 14 12 13 14 15 14 12 12 13 12 10 10 10 9 9 9 9 7 7 6 6 6 6 5 3 3 5 8 8 7 7
14 18 22 16 12 10 16 15 10 13 19 23 23 25 25 21 11 6 6 5 7 8 11 12 14 14 9 9 7 9 9 8 7 7 8 8 8 8 8 8 7 7 6 5 6 6 7 9 10 8 7 7 8 8

GFSWCAN_850_spd_006.txt.gz
Wind_Speed
29 35 31 32 31 29 27 24 22 21 19 17 15 12 10 9 9 9 9 8 8 5 6 5 7 8 6 5 4 4 3 1 4 3 3 4 4 5 1 4 5 5 3 4 3 3 8 5 3 2 9 16 30 35
14 29 34 33 33 31 30 28 25 22 20 19 16 15 13 11 10 10 9 9 8 7 5 8 11 15 16 12 7 7 4 5 8 3 2 2 3 2 4 5 1 3 7 4 8 7 4 8 24 26 26 34 32 21
10 14 32 38 33 31 33 30 28 27 24 22 21 18 16 14 12 11 10 9 7 8 15 20 19 19 18 17 14 9 9 12 10 14 7 3 4 3 5 5 3 4 10 6 6 8 18 26 42 39 31 24 15 14
10 11 14 27 37 33 30 33 28 29 27 25 24 22 21 18 16 16 14 13 12 4 4 12 19 22 22 17 16 19 23 20 21 18 10 3 3 13 5 6 7 8 7 5 14 23 33 29 29 24 21 10 12 6
5 8 5 10 19 25 30 29 26 28 25 27 26 23 21 22 19 18 17 18 17 13 3 4 11 11 7 8 9 12 14 20 24 15 5 4 6 5 5 2 4 12 16 7 14 27 23 29 20 18 14 9 2 12
8 7 9 13 10 12 17 23 27 24 25 28 25 23 24 22 21 17 14 24 22 21 7 2 10 21 22 21 22 27 27 24 26 12 7 9 22 11 4 4 10 22 25 34 30 36 32 27 13 14 11 10 9 14
8 8 7 9 13 15 14 14 19 22 25 26 26 23 22 21 22 22 6 4 10 21 6 5 5 5 13 17 19 21 23 22 17 18 10 13 14 11 2 12 36 27 30 34 34 32 20 7 6 8 10 12 14 20
8 6 6 6 7 9 12 13 13 14 17 20 22 22 22 20 24 28 28 24 23 15 6 3 2 3 3 2 4 5 5 6 8 7 3 5 3 7 4 25 27 27 28 23 11 4 2 5 7 12 15 17 18 17
11 8 6 6 5 5 6 7 8 11 11 13 16 18 21 18 12 15 19 15 23 13 4 5 3 3 6 6 4 2 3 2 5 3 4 4 1 5 8 15 23 25 16 7 3 4 5 11 16 19 21 18 18 23
13 10 6 5 5 5 7 7 7 8 11 14 15 7 4 3 6 7 5 6 12 10 9 5 5 3 9 10 4 2 1 2 2 3 3 2 5 22 33 36 35 27 9 2 10 8 5 12 18 22 23 23 23 27
13 12 9 7 7 8 10 10 10 15 18 14 7 5 9 16 7 4 4 5 4 2 4 4 13 3 6 3 2 4 1 0 2 4 3 2 3 8 15 7 6 7 5 9 5 7 9 14 19 22 25 24 25 26
13 14 13 11 10 10 11 13 13 15 9 7 7 14 12 4 2 1 2 2 3 3 6 4 3 3 4 4 3 4 2 1 5 2 1 3 3 13 9 10 7 6 4 5 7 20 18 19 25 23 22 23 23 23
14 15 16 14 12 10 13 15 13 11 12 11 4 5 4 3 2 5 6 3 3 3 6 5 3 3 3 3 3 2 2 4 0 0 3 4 8 8 7 7 10 11 15 19 21 21 22 23 27 23 24 20 21 24
14 16 19 16 15 12 13 11 13 15 6 3 5 3 3 2 3 3 2 3 2 3 7 11 5 3 2 2 2 3 4 2 2 3 5 2 9 11 13 15 18 20 20 20 21 22 25 27 30 28 29 28 27 30
16 16 18 17 17 14 13 14 16 10 3 3 4 3 3 3 3 3 4 5 6 11 11 6 4 3 1 2 1 1 2 3 3 4 3 6 9 15 15 17 17 20 26 28 27 28 30 34 34 32 31 33 30 31
20 18 20 22 19 15 15 16 15 11 2 2 2 2 3 5 3 3 4 5 7 10 9 3 2 3 3 3 2 5 5 6 4 3 3 10 13 14 16 18 21 29 31 31 31 32 34 35 37 32 32 33 31 32
25 15 23 23 22 17 17 16 9 5 3 2 2 4 5 2 4 7 8 9 10 8 2 3 4 10 1 2 2 4 5 4 4 12 17 15 17 24 30 31 29 28 30 32 34 34 34 36 33 34 35 32 30 29
22 22 20 17 19 19 15 6 5 5 4 4 3 6 10 4 5 5 8 10 12 8 3 3 1 2 5 5 4 4 5 16 26 26 28 27 33 33 31 29 30 33 34 36 36 34 34 35 32 33 28 26 28 28
18 17 17 20 22 15 5 6 3 3 3 3 6 6 6 7 11 10 8 13 16 11 4 3 1 4 4 6 8 21 22 17 20 32 38 34 31 29 29 31 34 34 33 33 33 33 34 31 33 30 26 25 31 27
17 15 17 22 21 5 4 4 6 4 4 2 5 9 7 5 8 10 13 15 13 7 7 4 6 13 14 25 25 24 29 33 32 33 36 33 31 31 33 34 33 34 34 36 34 33 34 38 33 27 23 25 26 19
23 26 23 22 9 5 3 5 5 3 2 2 2 10 3 8 12 14 11 12 12 7 5 16 28 33 34 36 35 35 35 29 29 30 31 34 36 35 33 31 32 32 36 33 33 31 31 32 30 26 24 23 17 11
27 28 18 14 3 4 3 5 2 2 3 1 1 4 3 4 7 8 10 12 8 18 26 34 36 36 36 34 30 27 26 27 28 30 31 29 29 28 30 30 31 32 29 27 26 31 32 30 27 22 19 13 8 9
26 21 9 5 2 3 2 7 4 4 2 3 3 2 4 4 5 7 6 9 12 24 27 31 32 31 33 31 30 29 28 26 27 26 24 24 24 24 27 31 28 24 24 25 27 28 28 25 22 19 14 11 9 7
17 9 4 7 4 3 4 5 4 3 4 3 2 3 4 7 6 7 4 7 23 29 30 32 33 35 34 33 32 28 21 21 21 18 19 23 26 28 31 32 29 25 22 23 24 23 16 16 9 3 3 3 6 9
6 5 5 4 5 5 4 1 3 2 4 4 3 4 5 6 2 2 4 22 33 30 23 18 19 20 24 24 22 19 14 10 13 19 23 24 26 30 35 32 31 28 21 18 21 21 21 14 10 9 8 8 9 10
3 9 10 11 7 6 7 4 5 7 4 3 6 5 4 3 1 5 4 17 17 18 17 10 9 11 13 14 17 13 11 15 20 26 29 27 27 28 28 29 30 28 21 16 21 19 19 16 15 12 13 13 11 10
4 6 7 9 7 7 3 6 5 4 5 6 4 2 3 3 6 6 17 18 20 12 6 7 9 12 17 20 19 21 24 27 28 30 32 30 23 18 18 20 24 23 21 19 18 17 18 18 16 16 16 15 14 13
8 6 7 12 9 13 4 2 4 6 5 8 5 4 7 8 6 17 20 15 17 24 26 29 32 33 32 29 27 28 29 30 30 30 30 26 17 12 14 19 21 25 27 25 22 18 18 19 20 19 19 18 18 16
6 6 9 9 10 7 10 10 9 11 18 17 6 5 13 28 30 31 33 34 37 41 38 36 33 26 23 22 22 25 25 22 21 22 20 20 18 14 18 21 18 18 17 17 16 17 18 18 20 22 23 21 20 19
6 14 7 8 7 7 17 19 23 26 25 26 27 29 31 34 37 36 37 36 32 31 31 32 29 24 23 21 21 19 15 15 15 15 18 18 18 19 18 16 15 14 14 13 12 11 13 14 15 15 15 15 15 14
5 10 8 13 11 27 31 32 32 31 32 34 34 32 33 37 34 28 25 26 26 24 24 22 18 18 18 16 12 11 13 15 13 12 14 16 14 14 13 12 11 11 10 10 10 11 11 11 9 8 3 2 3 6
6 7 7 5 17 27 25 26 28 27 28 29 29 31 30 21 17 15 17 15 14 13 12 8 7 8 8 10 13 13 11 11 13 13 10 9 10 10 10 10 10 11 11 12 11 10 9 8 7 7 9 10 9 8
11 15 19 15 10 6 13 16 10 9 18 23 26 28 27 16 4 3 3 4 5 7 8 10 10 10 9 8 8 7 7 8 8 7 7 9 10 11 11 11 12 12 12 11 12 12 13 13 12 11 9 9 9 8

GFSWCAN_850_spd_009.txt.gz
Wind_Speed
24 43 36 35 31 29 27 25 24 21 19 18 15 13 12 11 10 10 9 9 9 5 6 9 8 7 7 6 4 6 3 1 4 2 3 4 3 5 1 4 4 4 3 4 2 3 8 2 1 5 10 22 25 28
11 28 41 38 34 32 30 27 25 23 21 19 17 15 12 10 10 9 9 9 8 7 5 13 14 12 12 10 7 11 4 5 10 4 1 2 3 2 4 5 2 3 8 4 9 6 7 7 15 31 25 29 24 15
17 13 33 39 37 34 32 30 27 25 23 21 19 17 15 13 11 10 8 7 7 7 12 17 18 16 15 12 12 8 10 10 7 10 10 3 4 3 4 5 3 4 11 4 4 8 21 21 36 41 37 18 9 7
7 16 16 36 37 36 34 32 30 28 25 22 21 19 17 14 13 12 11 9 8 3 2 9 12 13 13 13 15 18 21 14 14 11 8 3 3 12 4 6 6 8 3 5 13 20 28 32 30 23 14 9 8 8
6 13 10 23 35 34 34 33 31 29 29 25 24 22 19 18 16 15 13 11 10 9 3 6 11 12 11 14 18 20 21 22 19 8 5 3 5 3 5 2 3 13 8 5 11 26 24 28 18 11 5 7 8 15
4 3 10 6 22 35 37 34 31 32 29 26 27 25 21 20 17 15 10 19 16 17 6 2 10 19 19 20 19 21 21 21 21 10 6 7 15 10 3 4 14 26 27 28 29 34 24 23 8 3 5 9 11 17
6 5 6 6 4 9 25 32 36 31 28 31 27 23 24 23 21 19 6 4 11 19 5 5 5 5 15 20 20 18 21 20 14 8 8 14 17 10 2 11 17 17 30 29 25 20 13 2 1 7 12 16 19 23
6 7 7 9 9 8 3 10 20 27 28 26 25 23 20 20 19 20 21 12 10 16 7 3 3 3 3 2 4 4 3 5 8 6 3 5 2 9 5 15 22 19 16 17 17 10 7 2 7 10 15 19 21 19
9 8 8 8 8 10 13 14 11 11 15 21 20 18 21 20 14 16 19 16 17 9 4 3 2 2 3 1 1 0 2 1 2 3 3 2 1 4 5 10 22 27 21 17 5 5 7 8 10 15 19 21 22 23
11 7 7 7 8 8 9 11 15 17 16 18 21 9 6 8 11 12 7 2 6 5 6 4 5 2 5 7 3 1 2 2 2 2 4 1 3 9 12 17 14 9 4 9 9 5 7 14 23 25 27 24 23 24
13 10 8 7 7 11 11 12 15 19 22 17 7 5 12 15 6 4 3 4 3 3 3 3 9 2 4 3 2 5 1 1 2 3 1 2 2 8 11 12 14 11 10 11 10 11 20 25 25 24 26 25 24 23
16 14 11 11 11 12 15 18 23 21 13 11 9 15 12 3 2 3 1 1 2 3 3 3 4 6 4 4 3 2 2 1 4 2 1 2 3 5 9 10 9 10 12 13 16 19 20 19 19 21 25 26 24 24
18 18 15 13 12 13 14 17 16 13 16 17 4 5 4 2 3 4 6 2 2 3 6 6 2 3 3 3 3 2 3 4 1 1 3 4 2 7 10 12 14 15 13 14 18 21 23 24 23 25 27 29 30 29
20 21 19 16 13 16 16 16 16 17 8 3 4 4 3 3 2 3 3 3 5 4 8 10 4 1 2 2 2 2 2 0 1 2 5 2 6 10 11 11 12 15 18 22 27 25 24 25 27 29 29 31 30 29
23 24 22 19 15 16 16 16 15 12 3 2 4 3 2 2 3 4 4 5 4 9 10 6 4 3 1 2 1 2 0 3 4 4 2 4 9 9 10 12 17 22 25 25 26 28 29 30 31 32 31 30 29 30
25 23 25 22 18 16 14 15 12 5 2 2 2 4 4 5 4 5 6 5 6 10 6 3 3 3 3 3 2 5 5 6 4 4 2 7 8 6 19 21 24 25 24 26 28 30 31 31 31 30 31 30 29 26
29 19 26 23 21 17 15 12 6 3 2 2 2 4 10 3 7 8 9 7 10 10 2 3 3 8 3 3 2 4 5 3 6 10 7 6 12 21 23 24 23 23 28 27 29 31 32 33 31 32 31 31 29 23
23 23 24 25 25 19 16 9 5 4 2 3 4 6 9 4 6 7 10 10 11 7 5 3 2 2 5 5 3 4 7 4 13 11 19 28 26 23 21 21 24 27 27 29 30 31 36 34 32 33 32 34 29 23
22 22 23 21 21 15 4 4 3 3 3 3 5 5 6 5 8 5 6 10 13 7 3 3 1 3 4 7 6 11 12 15 19 28 32 28 21 19 21 25 26 26 27 30 31 33 33 28 26 27 29 27 26 23
18 23 24 23 19 4 4 4 6 3 5 5 5 7 5 3 3 5 9 12 13 10 7 5 7 9 11 19 21 25 28 28 29 30 29 26 23 25 26 25 24 25 28 32 33 31 32 32 33 31 28 26 24 24
24 24 21 21 13 4 3 5 4 4 4 3 3 5 2 5 8 9 10 12 11 6 5 14 26 32 34 35 35 33 32 27 24 21 25 31 29 27 25 23 23 25 30 33 32 30 27 31 32 31 28 24 23 20
26 24 23 13 3 4 3 5 3 5 3 3 3 4 3 3 5 7 8 8 6 14 22 30 32 31 31 31 26 25 25 24 24 25 25 23 26 24 24 23 26 29 32 32 30 26 28 28 26 28 25 23 16 13
27 20 9 3 3 3 3 8 3 4 3 3 3 2 3 4 4 6 4 7 9 21 24 28 27 27 29 30 30 31 28 28 28 24 20 18 17 19 23 24 27 29 32 33 28 24 23 24 24 24 20 14 9 6
18 7 4 5 2 2 5 3 3 3 4 2 2 2 3 6 5 5 3 6 22 24 25 27 29 30 26 25 23 20 17 17 19 18 14 13 17 21 23 27 29 29 28 29 25 20 20 23 23 18 16 13 7 10
6 3 3 3 3 4 4 1 1 2 3 2 2 4 5 6 2 2 4 14 25 23 18 15 15 14 15 15 15 15 14 16 16 14 14 19 24 27 29 31 31 27 20 19 20 20 22 23 23 19 17 15 15 15
3 5 8 9 6 4 5 4 4 5 3 2 6 4 4 3 1 5 4 11 15 20 18 14 9 5 7 13 19 23 22 18 18 23 26 25 25 26 30 32 31 28 21 19 21 24 25 23 22 21 20 17 17 18
3 5 7 8 7 5 3 3 4 3 4 5 3 2 3 3 6 6 10 10 11 14 11 6 12 17 24 31 33 35 31 26 27 27 29 28 26 28 26 25 25 25 25 26 29 29 28 27 24 23 23 22 20 19
5 9 7 13 8 10 5 3 4 6 4 7 5 4 7 8 6 12 20 24 26 23 23 29 33 36 37 30 26 26 24 23 23 25 25 24 22 21 17 16 18 21 26 23 20 21 20 19 21 22 23 24 25 24
5 5 10 7 6 6 10 10 8 10 14 13 7 4 11 24 29 32 32 30 30 32 35 36 36 31 29 25 21 19 19 19 20 20 20 19 15 13 16 19 18 17 16 16 16 15 15 16 19 21 23 24 24 24
6 13 7 6 6 6 13 16 20 23 23 24 25 29 31 32 32 32 35 34 31 30 30 30 29 23 20 18 16 15 17 17 15 14 16 16 15 16 16 15 15 13 13 13 13 12 14 15 15 14 14 13 12 11
4 9 6 7 8 18 24 26 28 30 31 31 31 32 34 34 28 24 24 23 22 22 21 19 18 18 15 14 12 10 9 11 13 12 12 15 14 12 12 12 12 13 13 14 15 15 15 15 14 14 14 13 12 10
6 8 6 3 12 21 23 24 24 24 26 28 29 29 30 23 13 9 13 14 11 10 9 9 9 9 8 8 9 10 10 9 9 11 10 9 9 10 11 12 13 14 15 15 15 15 15 16 16 16 15 14 13 11
7 10 12 7 3 3 5 10 7 8 17 25 27 27 24 13 4 1 4 8 8 9 9 8 7 5 4 2 4 5 5 6 7 8 8 9 10 11 12 13 15 16 16 17 17 17 17 16 15 14 12 10 8 8

GFSWCAN_850_spd_012.txt.gz
Wind_Speed
12 35 34 30 27 24 25 23 22 19 18 16 13 11 9 9 9 9 8 7 6 3 5 8 6 6 6 6 4 6 4 1 4 3 3 3 3 5 2 4 5 4 3 4 2 3 8 4 3 3 9 16 21 23
7 9 36 32 31 28 26 26 24 22 19 17 15 13 11 10 9 9 7 6 6 4 2 8 9 8 8 5 7 11 2 4 7 4 1 3 3 2 5 3 1 3 7 3 8 7 6 7 16 32 30 27 25 9
11 11 13 40 34 34 29 28 25 24 22 19 17 15 12 10 9 9 8 6 5 4 8 12 9 10 11 10 12 6 6 8 6 6 9 2 3 4 4 5 3 4 6 4 2 7 16 26 39 32 23 10 4 4
8 16 12 24 35 33 33 30 28 26 24 21 19 17 15 12 10 9 8 7 6 2 1 4 6 6 10 12 12 14 18 11 10 8 5 3 2 11 4 5 5 8 2 3 6 19 27 27 17 17 17 11 11 10
5 2 15 17 29 39 37 34 31 28 25 22 20 18 16 14 12 11 10 10 9 7 2 4 10 14 14 9 12 16 19 19 14 6 4 3 5 3 4 0 2 14 6 4 13 25 19 20 12 14 7 6 12 13
3 4 1 11 17 37 38 38 31 29 27 26 23 22 19 16 13 11 6 15 16 15 3 1 4 7 9 15 18 19 19 18 15 6 6 5 10 7 3 3 9 21 22 28 26 27 23 14 10 9 8 11 16 19
3 4 6 2 4 21 40 34 35 32 30 28 25 24 20 17 18 17 6 4 14 18 4 3 4 3 11 14 15 17 18 17 12 6 7 8 15 9 2 8 16 30 29 21 17 16 9 2 6 10 12 15 19 22
4 2 4 4 1 5 9 34 34 30 30 28 27 21 21 22 21 21 20 7 10 14 5 2 3 2 3 1 3 4 5 4 6 4 3 2 3 5 3 4 11 15 17 11 6 3 9 10 8 9 14 21 25 25
4 3 3 4 3 3 3 9 22 34 34 28 25 27 23 23 18 17 18 21 16 10 4 5 3 2 4 3 2 2 2 1 3 2 2 2 1 3 3 15 15 14 8 5 10 12 9 11 15 19 23 21 22 26
7 5 4 5 6 6 4 5 9 12 20 27 26 10 7 11 11 11 7 5 6 5 5 4 8 2 6 6 1 2 2 1 2 2 2 2 2 3 9 10 12 14 15 11 10 11 18 22 23 25 24 18 21 26
11 8 5 4 6 8 9 10 13 12 16 16 6 4 12 19 7 4 3 4 3 1 3 4 7 3 6 2 2 3 2 1 2 3 0 1 2 2 10 13 12 12 11 11 11 12 17 19 23 26 27 26 26 27
14 10 7 6 8 10 11 15 22 24 15 8 6 16 14 4 3 4 2 1 1 3 4 4 3 2 3 3 2 1 2 1 3 2 0 2 3 4 4 7 7 8 9 11 14 18 22 25 24 24 27 30 30 31
16 13 9 8 11 16 20 24 21 11 14 17 5 5 3 2 2 4 6 2 2 5 6 6 3 4 3 3 3 2 2 3 2 1 3 3 6 7 6 7 7 9 13 19 21 22 24 23 24 25 29 30 31 31
19 19 14 10 12 13 15 13 19 20 6 3 4 4 2 2 1 2 1 3 3 4 9 10 5 3 2 2 2 2 1 0 0 1 5 2 5 4 5 6 10 17 21 22 22 23 25 26 29 30 31 30 29 30
22 22 22 17 16 16 16 17 17 12 1 3 3 3 2 3 3 4 5 6 4 6 9 6 5 3 2 3 0 2 1 3 3 4 3 5 4 5 6 15 20 22 22 22 22 26 27 29 30 33 35 34 32 30
24 22 22 20 20 18 18 15 10 4 3 2 3 4 5 3 4 5 5 5 6 10 7 4 3 3 1 3 3 5 5 5 4 3 4 2 4 7 17 20 21 19 20 22 26 26 27 30 31 35 37 34 31 29
28 21 25 23 21 18 16 13 6 3 2 3 3 5 8 3 11 9 7 6 8 7 2 3 2 7 3 2 2 4 5 4 10 2 3 4 14 21 23 22 21 20 23 25 25 26 28 31 33 34 32 32 28 28
31 21 27 24 22 19 15 6 4 3 2 3 3 6 10 4 10 10 11 11 10 7 5 2 4 2 4 5 4 4 8 7 5 6 9 18 21 22 19 19 19 23 25 25 24 27 30 31 31 30 28 29 31 29
30 26 28 25 23 15 5 5 3 3 2 3 4 5 6 3 5 3 6 12 11 6 5 4 3 3 4 6 6 4 4 7 18 22 26 24 20 18 18 20 22 23 22 23 24 28 31 28 25 27 30 29 28 28
23 30 29 26 23 6 4 4 5 3 3 3 4 7 4 3 5 7 9 10 11 6 6 4 7 6 7 9 13 19 22 24 27 28 28 25 20 20 21 20 22 21 23 24 27 30 31 32 27 24 29 29 29 27
29 26 21 21 12 5 3 4 3 3 3 3 5 5 3 4 5 7 7 11 8 4 5 11 22 25 25 28 29 29 26 22 22 20 24 28 27 25 22 20 19 20 23 26 30 33 31 27 26 24 27 29 28 23
28 26 21 11 4 3 3 3 4 6 4 4 4 3 1 1 3 4 8 7 6 9 18 27 26 25 24 23 20 20 23 25 26 27 27 27 30 26 21 19 20 23 24 27 30 31 31 29 20 21 25 26 24 21
24 16 8 4 3 3 3 8 2 4 3 3 2 1 1 3 2 6 4 6 8 15 19 21 21 21 23 24 25 24 20 22 23 22 21 20 19 21 19 17 20 23 27 31 27 26 25 22 19 23 24 24 20 17
17 5 3 3 3 3 5 3 2 3 3 2 2 2 3 3 4 2 3 5 15 20 19 19 20 20 18 16 14 12 10 14 17 19 20 20 20 18 18 24 26 26 27 27 24 23 22 22 22 24 23 24 21 18
5 2 2 3 3 3 3 3 0 2 3 0 2 3 3 5 2 2 4 6 14 11 9 11 13 14 14 10 2 8 17 24 27 28 26 21 21 24 27 29 29 29 26 24 22 22 25 26 27 27 25 23 23 23
4 2 3 5 5 4 5 4 4 5 3 3 6 3 4 3 1 6 4 6 6 5 9 12 15 9 4 11 19 28 31 32 30 31 32 26 29 29 28 30 30 29 25 20 21 24 28 28 27 25 23 24 24 24
3 3 5 6 6 5 4 3 4 3 3 5 3 3 3 2 6 6 6 5 5 11 15 16 16 17 22 29 31 34 32 27 25 27 28 27 23 22 22 21 22 22 19 20 23 25 22 22 23 23 23 24 24 24
2 8 7 10 6 6 4 3 4 6 4 6 6 4 7 8 5 5 9 16 22 24 25 22 22 25 29 31 30 29 28 24 20 19 18 17 21 21 17 15 15 18 22 23 18 16 16 16 17 19 20 23 25 23
3 5 9 6 5 5 9 9 8 8 7 11 7 4 9 20 25 26 29 30 32 32 30 29 29 27 29 29 24 20 21 19 17 18 19 17 12 10 11 15 18 19 17 14 12 11 11 14 16 17 18 19 21 21
6 12 6 7 6 6 9 12 11 16 18 20 23 27 28 28 29 30 29 28 27 26 23 22 23 24 22 22 21 19 17 15 15 13 12 13 13 14 15 14 14 13 13 13 13 13 13 14 14 14 16 18 19 19
3 11 3 6 6 10 16 18 19 21 24 27 29 31 33 28 21 17 15 14 14 16 16 16 15 15 15 13 11 8 8 8 9 11 11 12 13 11 11 12 13 14 15 15 15 16 16 16 17 18 19 19 18 16
6 10 7 3 6 11 15 16 10 14 23 25 27 27 24 16 9 4 13 12 12 10 11 12 12 10 9 8 6 5 6 7 7 8 8 9 9 10 11 12 13 14 16 17 17 18 18 18 18 17 16 15 13 11
4 7 7 6 4 3 2 4 4 5 7 7 5 5 4 2 4 8 8 13 14 16 15 11 7 6 4 1 1 4 5 7 8 9 9 9 11 12 13 15 16 17 17 17 16 15 14 14 13 12 12 11 10 9

GFSWCAN_850_spd_015.txt.gz
Wind_Speed
16 25 22 19 21 18 18 19 18 17 15 14 12 10 9 7 6 6 6 6 6 5 10 7 6 6 7 6 4 8 5 0 3 3 3 3 2 3 2 2 3 3 3 4 3 4 7 2 3 2 3 21 20 18
4 12 29 24 22 21 19 20 20 19 17 15 13 11 10 9 7 7 6 5 6 4 5 6 6 5 5 4 6 13 3 5 7 4 1 3 3 2 4 3 2 4 6 3 8 6 5 6 17 21 19 12 10 12
5 2 7 30 31 26 24 21 21 20 18 16 15 14 11 9 8 7 7 6 5 4 3 5 5 7 7 7 7 5 4 6 7 7 9 2 3 4 4 6 2 3 6 4 1 8 14 23 27 16 7 12 11 13
9 5 7 12 31 30 27 24 23 22 20 18 16 15 13 11 9 7 7 6 6 4 3 3 6 4 8 9 10 11 10 9 8 8 5 3 2 10 4 3 5 8 4 4 6 20 22 16 14 12 7 10 7 10
8 8 5 12 15 35 31 29 24 24 22 20 18 16 14 12 10 8 7 7 8 6 4 3 6 7 9 7 9 11 11 13 10 5 4 3 4 4 2 1 3 8 7 4 7 17 13 9 8 7 4 5 7 11
6 5 6 3 12 16 37 34 30 26 26 22 20 17 15 13 10 7 3 10 11 10 2 1 2 7 10 12 14 14 16 15 12 7 5 6 9 4 2 3 7 20 23 24 18 17 8 10 5 5 4 7 11 14
3 6 8 5 6 14 25 34 30 29 27 25 21 18 16 14 12 10 3 1 13 12 5 2 4 3 8 10 9 10 13 9 9 6 8 5 8 9 2 3 2 7 9 9 8 3 3 4 4 4 7 12 16 21
3 4 7 3 3 5 19 35 35 33 28 26 23 19 18 16 15 17 17 9 8 9 5 3 3 1 4 4 4 3 4 6 4 3 2 4 3 6 3 2 10 9 4 5 6 6 12 7 3 7 13 20 25 25
3 4 4 5 3 2 6 19 38 31 34 26 24 20 19 22 18 19 17 22 16 10 7 7 5 3 4 3 2 3 3 2 1 2 2 3 1 4 2 6 7 6 5 17 13 10 8 11 14 17 20 22 23 25
4 3 3 3 1 5 3 10 19 34 30 26 26 14 9 11 14 18 14 11 15 6 6 3 5 2 6 6 2 2 2 1 1 1 2 1 2 3 5 11 17 18 17 7 7 10 12 15 18 22 24 25 25 28
6 4 3 2 4 4 5 10 10 18 28 23 7 5 13 19 9 5 4 4 4 1 3 3 7 3 4 2 2 1 1 1 1 0 2 2 2 6 14 12 9 6 4 3 5 9 13 18 23 25 28 28 30 32
9 7 4 2 4 9 10 8 9 18 5 8 13 18 12 4 4 3 2 3 1 2 3 3 3 4 5 3 3 2 2 0 3 1 1 2 1 12 9 7 4 3 2 7 12 15 18 20 21 24 27 29 29 30
13 9 7 4 8 9 13 16 13 10 15 12 5 4 4 3 3 3 4 2 2 6 6 5 3 4 4 3 4 2 3 3 1 1 3 2 8 11 9 5 2 3 10 15 18 18 18 20 22 23 26 27 30 34
15 14 9 8 10 11 19 17 19 17 7 3 4 4 2 2 1 2 2 3 4 6 11 10 5 3 3 3 2 3 1 1 2 2 4 2 11 8 5 2 7 14 17 18 19 19 20 24 25 26 27 31 32 34
18 18 14 11 9 12 9 16 16 8 1 4 4 3 2 3 5 8 12 9 7 11 15 7 6 3 2 2 1 2 2 3 4 4 2 12 7 4 4 9 16 20 20 20 19 21 24 24 26 29 31 31 31 31
23 19 19 22 13 15 17 14 9 3 3 3 4 4 6 5 4 7 9 10 9 13 10 5 3 2 1 3 3 4 4 5 3 3 11 6 4 4 11 17 19 20 20 19 21 23 25 25 26 30 33 32 31 30
23 16 25 22 20 17 13 8 5 3 2 2 3 6 6 4 8 9 8 9 11 9 2 4 3 3 4 1 3 4 5 3 8 8 3 4 6 15 19 22 22 20 20 20 24 24 24 24 27 31 33 33 32 31
18 24 26 24 23 19 13 5 3 2 3 3 3 7 6 6 10 11 9 9 8 5 5 3 6 2 4 4 3 4 9 6 11 3 8 11 17 19 19 20 20 20 22 23 23 24 24 26 31 34 33 28 31 29
24 27 27 24 19 10 4 3 2 3 3 4 5 7 5 5 8 5 11 12 6 5 6 4 2 3 3 6 6 5 5 6 10 17 20 19 19 19 17 17 19 21 22 22 23 24 26 27 31 33 30 25 27 29
29 30 30 29 23 5 4 3 4 3 3 4 5 7 5 4 6 6 8 12 12 5 4 3 5 5 7 6 5 9 15 17 20 22 25 22 17 17 18 18 21 22 22 21 22 24 27 31 31 31 26 22 25 28
31 28 27 24 15 7 5 4 4 4 5 3 7 6 3 4 4 6 7 10 6 5 5 11 17 20 20 20 21 22 20 15 16 18 23 28 28 26 25 22 20 19 19 20 23 25 27 29 31 27 23 21 24 26
28 27 21 15 5 4 5 4 6 6 3 5 6 4 2 2 3 3 7 5 5 10 16 22 23 20 18 18 15 15 17 19 21 22 22 22 24 25 24 19 19 17 16 18 22 26 29 29 26 23 23 22 24 25
25 20 9 5 4 3 4 7 2 3 3 4 5 2 1 2 2 7 4 6 9 13 14 15 14 13 16 16 17 17 15 13 9 9 12 15 18 21 23 23 18 18 22 23 23 27 27 26 23 24 23 23 24 24
18 6 4 4 4 3 5 2 3 3 4 2 2 1 2 3 5 3 3 5 11 15 14 11 10 11 12 13 13 11 5 5 13 18 20 24 27 28 25 24 22 23 24 25 26 26 24 22 23 22 26 27 26 25
6 4 2 5 3 4 3 3 2 2 1 1 2 3 2 4 1 2 3 6 13 8 2 3 4 9 13 16 15 11 8 17 22 28 31 30 29 29 29 26 26 28 24 26 26 23 21 21 25 24 23 23 24 24
5 2 2 4 3 3 5 4 5 4 2 2 5 1 2 2 1 5 4 7 8 6 4 5 11 14 16 16 16 17 21 25 28 31 33 28 28 27 28 27 25 23 24 21 19 19 22 25 22 21 21 23 23 24
4 3 4 4 5 7 5 4 5 3 4 5 3 3 3 2 5 5 6 7 5 2 10 16 19 20 20 20 23 27 29 30 28 29 29 27 23 19 18 19 20 19 17 15 17 21 20 17 17 17 18 18 19 21
3 6 6 8 4 4 5 3 4 5 4 6 8 3 6 8 5 1 3 7 13 20 23 26 27 27 27 27 29 31 31 27 24 25 23 19 18 15 16 17 16 15 17 19 20 14 14 13 14 16 16 17 19 21
2 5 9 5 3 4 7 9 8 7 6 11 7 3 6 7 13 17 22 25 27 29 29 29 28 27 25 24 23 22 22 21 20 21 21 18 15 11 10 12 16 16 16 15 12 12 12 12 14 14 14 17 19 20
3 8 5 5 5 5 7 11 6 8 8 10 11 15 19 19 16 18 19 22 23 21 19 19 19 20 21 21 18 16 15 13 11 10 10 8 8 10 12 13 12 12 13 14 14 14 13 14 15 16 17 19 20 19
2 9 2 4 5 5 9 12 14 14 15 20 22 22 24 12 11 8 11 14 15 17 18 18 16 15 16 14 13 9 6 6 6 6 7 7 8 9 9 10 11 12 13 14 16 17 18 18 18 18 17 16 15 14
4 7 3 2 4 5 6 9 11 10 12 15 19 14 6 6 2 5 12 15 15 15 17 15 13 13 11 7 4 4 5 7 8 8 8 8 8 9 10 11 13 14 16 17 17 16 15 14 14 13 13 12 11 10
2 4 5 4 3 2 1 2 2 4 6 5 2 1 2 3 4 7 8 14 15 17 16 12 10 9 9 9 9 9 10 11 12 12 12 13 13 13 14 15 15 15 15 14 13 12 12 12 12 12 11 11 11 11

GFSWCAN_850_spd_021.txt.gz
Wind_Speed
29 27 23 25 23 21 21 21 20 17 15 12 10 9 9 9 8 7 7 6 6 5 7 4 5 7 7 10 5 10 6 2 3 2 4 3 1 4 2 3 5 7 6 4 4 4 6 4 5 1 9 17 9 8
32 27 23 22 23 21 20 20 20 18 16 14 12 10 10 10 9 8 4 5 5 5 6 9 9 11 10 7 5 13 1 7 9 3 3 2 3 0 0 3 6 5 7 4 8 5 12 12 14 11 7 7 9 6
23 29 23 22 22 21 19 19 19 18 16 15 13 11 10 10 10 10 8 9 6 6 5 6 5 9 8 10 11 6 4 6 7 2 7 3 3 5 4 5 7 8 15 6 8 8 16 14 11 6 6 7 7 7
9 13 26 22 20 21 19 18 18 17 16 15 13 11 10 9 9 9 9 10 7 5 5 4 8 9 12 11 10 8 6 11 8 4 4 3 3 10 4 7 8 9 6 9 13 19 15 3 6 4 11 7 5 5
12 8 9 19 22 18 19 18 16 17 16 15 13 12 10 9 9 8 9 9 9 3 3 3 6 10 12 14 10 8 7 7 5 4 3 3 4 2 2 2 9 16 14 9 8 9 3 3 5 11 5 3 4 8
11 11 8 8 12 19 21 19 17 17 17 16 14 13 12 10 9 5 3 8 9 8 3 2 3 3 9 9 7 8 9 8 7 5 4 5 6 5 3 3 7 12 10 12 11 7 3 4 5 3 4 4 6 11
9 9 6 6 5 9 12 20 23 21 19 17 15 13 11 11 12 7 3 5 13 9 4 2 3 2 8 7 6 7 10 6 6 4 5 5 8 7 2 5 9 11 10 7 4 3 4 4 2 3 2 7 11 14
7 7 8 6 3 6 9 14 23 24 22 18 16 15 13 12 12 10 6 5 11 6 5 2 2 2 7 5 4 7 5 5 5 3 3 4 3 5 5 9 10 9 7 5 3 2 2 5 2 2 7 11 15 17
5 4 4 5 6 2 5 11 18 25 25 21 19 16 15 16 13 15 12 7 6 5 3 4 5 4 8 4 4 4 4 2 3 3 4 5 3 5 7 13 10 11 9 8 8 6 3 1 3 7 10 14 16 18
3 3 4 3 3 5 6 6 12 19 30 27 24 16 10 11 13 18 11 6 7 8 6 6 7 4 8 6 3 5 3 1 3 3 4 3 3 8 6 7 9 11 11 11 7 5 3 5 7 10 12 14 16 18
1 2 3 5 4 5 10 5 6 13 25 24 13 5 8 25 18 11 6 7 7 3 6 5 13 5 6 3 4 4 3 4 3 3 3 3 3 12 13 12 14 14 11 6 4 2 3 7 10 12 13 15 16 18
2 2 3 3 4 6 6 5 7 16 15 16 10 14 17 4 3 5 3 3 4 4 6 6 3 5 6 5 4 4 3 3 3 6 2 3 3 11 17 16 13 11 8 5 2 4 7 10 11 12 14 17 17 22
4 3 4 4 7 2 9 7 8 8 18 17 4 5 2 1 2 4 7 3 3 5 8 7 4 5 4 4 4 3 4 2 1 2 3 2 7 13 14 14 11 9 7 4 5 8 10 13 15 17 19 21 21 22
6 5 4 5 6 5 3 2 6 9 5 4 3 3 2 2 1 2 3 4 4 7 13 14 6 3 3 3 2 3 2 3 3 3 4 1 8 11 12 10 10 7 5 9 13 16 18 19 19 18 20 21 22 24
8 7 6 6 5 4 6 6 4 4 4 3 3 2 3 2 4 5 7 7 8 10 9 7 5 3 3 2 1 3 4 3 4 2 3 3 9 10 9 7 6 6 11 15 14 17 20 18 20 22 21 21 22 26
8 7 9 7 3 4 10 11 10 4 3 3 3 3 4 4 3 4 6 7 7 9 7 5 2 1 2 1 3 3 2 3 2 2 3 8 9 8 7 5 8 13 18 20 20 19 19 19 21 22 22 22 23 24
5 7 13 11 8 6 3 10 6 2 3 3 3 5 4 5 5 4 4 4 7 5 2 3 0 3 2 1 2 2 2 2 1 3 6 7 8 6 5 10 17 19 20 19 18 18 20 21 22 22 22 18 18 25
7 7 13 14 9 7 8 2 3 2 3 3 4 5 4 5 6 7 8 8 8 4 5 1 4 2 2 2 2 1 3 1 2 6 6 6 4 6 11 15 16 17 18 20 22 22 23 21 19 16 15 17 19 19
3 5 13 18 15 11 1 2 3 3 2 4 6 7 4 6 9 9 8 12 6 5 5 3 2 3 2 3 2 1 2 3 4 6 7 8 13 20 17 16 19 20 20 20 19 18 19 20 20 18 16 16 21 22
13 8 20 20 21 8 3 2 3 2 3 4 5 6 4 4 6 7 10 8 5 2 2 2 4 3 2 1 1 2 3 3 6 11 14 14 12 12 14 15 15 15 17 17 17 19 18 19 16 16 16 18 25 27
17 15 23 23 11 6 4 4 2 3 4 3 6 5 3 4 3 2 3 5 4 3 4 8 8 7 7 9 10 10 12 13 12 13 15 15 13 14 15 13 12 12 14 17 22 24 24 23 20 17 22 24 27 27
15 18 16 18 4 4 3 4 4 5 3 5 7 4 3 3 3 2 2 4 4 10 8 8 8 7 7 8 8 10 11 12 15 15 16 16 14 10 11 12 14 18 22 24 22 26 27 22 20 23 25 28 24 26
15 21 7 5 4 3 4 6 3 2 3 6 5 4 3 3 2 2 2 5 6 7 9 9 7 8 8 7 8 7 8 11 13 13 14 11 11 13 15 16 18 23 26 26 22 23 24 23 22 24 26 24 22 25
19 5 4 3 3 4 5 2 3 4 4 3 3 3 3 2 3 2 3 4 5 4 4 4 4 4 5 4 3 5 8 10 13 12 11 13 17 19 18 19 21 23 22 25 26 26 23 22 23 22 18 20 22 20
6 3 4 4 2 4 4 4 3 3 3 2 3 2 3 4 2 3 3 0 3 4 1 1 0 1 2 4 6 8 11 13 13 18 21 24 27 28 27 23 24 26 26 26 25 18 15 16 18 17 19 18 17 16
4 2 1 3 4 2 4 4 4 4 3 4 3 3 3 3 3 4 2 4 5 5 5 5 5 6 7 9 13 16 16 18 19 21 23 23 26 26 27 30 30 27 22 21 21 19 16 15 15 17 16 15 15 17
4 3 3 3 5 8 5 4 5 3 4 4 5 6 4 3 5 3 4 3 3 2 5 7 11 11 14 17 18 23 25 25 24 26 29 30 30 29 30 27 22 18 22 22 19 14 14 16 17 15 16 15 14 15
4 3 4 5 5 3 4 4 4 4 3 5 8 5 3 3 2 3 2 1 5 8 8 11 14 17 16 17 18 19 20 22 23 21 20 17 16 18 18 17 15 16 15 13 14 15 15 14 16 16 14 14 14 16
4 6 5 4 3 2 3 3 3 3 4 7 4 2 3 2 4 3 4 7 9 10 11 13 13 13 12 13 12 12 16 18 19 18 16 14 15 16 17 16 15 15 15 15 13 12 14 14 13 14 14 15 16 16
3 2 3 2 2 1 1 3 2 3 3 4 2 2 2 2 3 4 5 7 8 9 9 9 10 12 12 13 12 10 13 14 15 16 16 16 18 21 21 21 20 18 17 16 15 13 13 13 13 11 12 12 12 11
3 2 2 1 0 1 2 4 5 6 6 4 7 4 2 4 4 5 4 5 6 7 8 8 9 10 11 13 13 14 13 14 17 17 17 19 21 22 22 22 21 20 18 17 16 15 15 12 10 9 9 10 10 10
2 2 1 1 1 4 3 2 2 2 3 3 3 2 2 3 2 1 3 4 4 6 8 9 10 11 12 11 13 13 17 19 21 22 23 24 25 24 24 23 22 21 20 18 15 14 13 11 10 9 9 9 10 11
2 1 1 2 2 2 1 1 2 2 3 2 1 1 1 1 3 2 2 5 5 6 8 11 13 15 14 14 15 17 19 20 22 23 23 23 24 24 24 23 21 20 18 16 14 13 12 10 10 10 10 10 10 10

GFSWCAN_850_spd_024.txt.gz
Wind_Speed
29 27 26 26 24 22 21 21 19 16 14 11 9 8 7 7 7 7 5 6 7 4 4 3 4 5 2 10 4 12 5 2 3 3 3 2 1 3 1 3 6 7 6 4 4 3 6 1 4 2 6 13 7 8
29 25 25 24 23 22 21 21 19 17 15 13 10 9 8 8 8 7 3 5 6 5 6 8 9 9 8 5 7 15 2 7 8 3 2 1 2 1 3 2 6 4 6 4 9 5 11 9 5 3 5 7 7 8
29 28 24 23 22 21 19 19 19 17 16 14 12 10 9 8 9 9 7 8 5 6 5 5 3 8 9 8 12 6 4 4 8 4 7 3 3 4 4 4 2 3 9 3 3 8 12 5 8 10 5 8 8 5
31 28 24 22 21 20 19 18 18 17 16 14 12 11 9 8 7 7 7 8 6 5 5 3 5 6 8 8 11 9 8 10 8 7 4 3 3 11 5 6 4 6 7 6 9 13 10 6 8 3 4 3 0 2
17 28 27 22 20 20 17 17 17 16 15 14 13 11 9 8 7 6 5 7 8 3 4 2 4 9 8 8 6 6 7 9 5 4 3 3 4 1 4 1 3 8 7 5 7 4 4 3 5 3 0 2 1 3
17 15 17 22 21 17 18 17 16 16 14 13 12 11 10 8 7 6 1 5 8 7 3 2 2 1 4 6 6 6 6 8 9 5 4 4 6 7 3 4 7 11 8 7 2 5 7 8 3 2 3 2 2 6
17 13 10 9 15 19 18 18 15 14 13 13 12 11 10 10 11 5 3 3 8 8 3 2 3 1 6 5 6 5 5 4 6 3 7 4 4 5 3 5 8 10 12 7 3 7 4 6 4 6 4 2 5 8
13 14 12 8 6 8 13 16 18 17 14 12 11 10 10 9 8 5 4 3 9 4 3 3 2 1 6 4 2 2 4 5 4 3 3 3 3 1 4 10 16 18 11 5 5 6 5 7 6 5 2 4 7 10
12 11 10 10 7 4 7 10 14 18 17 14 13 11 9 8 6 7 8 4 8 4 3 4 5 4 7 4 4 4 5 1 3 3 4 5 3 6 7 8 10 8 9 8 8 8 8 6 3 1 3 7 9 11
9 10 10 8 6 5 2 10 13 17 23 21 16 9 6 10 10 10 5 3 4 6 6 6 7 3 7 6 3 5 2 2 2 3 5 2 3 13 13 7 5 11 12 12 12 9 6 2 2 3 6 9 9 12
7 8 10 9 9 10 8 5 10 16 21 24 10 7 8 19 15 9 6 5 5 3 7 7 14 6 7 4 3 6 3 3 3 3 3 3 3 9 14 8 9 11 13 11 5 6 3 0 3 7 9 11 16 16
5 7 9 8 8 13 12 10 8 15 14 13 9 12 12 4 1 3 3 2 3 3 3 5 4 5 5 5 4 5 3 3 5 9 2 3 3 9 13 12 12 12 11 9 6 3 1 4 6 10 14 17 17 20
2 4 7 7 9 12 16 8 5 8 19 15 4 4 3 1 2 3 4 2 1 3 4 4 3 5 5 3 4 2 5 4 3 3 2 2 7 8 11 12 10 10 11 9 3 2 5 10 14 17 18 18 19 22
1 2 3 4 6 8 11 11 11 8 2 3 3 3 2 2 1 2 2 2 2 3 8 10 4 3 3 3 3 3 1 2 2 3 4 2 8 10 10 10 9 8 4 2 8 11 15 19 20 19 19 20 22 22
1 1 2 2 4 2 6 5 6 7 4 3 3 2 2 2 3 3 3 5 6 8 7 6 4 3 2 2 1 2 3 2 2 1 2 11 9 11 12 11 5 1 4 9 13 19 21 21 21 22 21 21 21 22
1 0 2 3 1 4 2 3 1 2 3 2 3 3 3 4 2 4 8 9 6 8 6 4 2 0 2 1 2 1 1 1 2 3 5 7 9 8 8 6 4 5 13 18 20 19 19 20 21 23 24 24 23 21
2 0 1 4 4 3 1 4 1 3 3 2 2 6 5 6 5 4 6 5 4 4 2 2 1 4 1 1 1 1 2 2 4 5 5 6 6 6 4 2 11 17 18 18 19 20 22 23 24 25 25 23 16 16
2 5 2 6 5 3 2 2 3 2 2 3 2 4 3 4 5 3 2 4 3 3 2 2 2 1 0 1 1 3 3 3 4 4 3 4 5 5 6 12 16 15 17 19 19 20 20 19 20 23 23 22 18 20
2 2 4 9 8 3 2 2 4 1 2 2 4 5 3 2 4 4 3 4 3 5 4 2 1 2 1 2 2 2 2 2 1 2 4 7 9 13 17 16 15 16 15 16 18 19 19 20 22 22 23 22 23 21
9 3 9 14 13 6 2 2 4 1 3 4 5 6 4 2 4 7 7 6 6 4 2 2 2 1 2 2 3 2 1 2 3 6 9 11 10 10 12 15 17 18 17 16 16 18 21 23 25 25 25 23 23 24
9 9 9 11 12 6 3 3 3 2 4 3 7 6 3 6 4 3 3 4 1 2 3 5 6 5 6 8 7 7 8 9 9 9 11 12 12 14 18 20 15 14 16 18 21 26 27 27 27 28 25 24 25 26
13 13 10 13 3 5 3 5 3 5 4 5 6 5 4 3 4 4 4 3 4 7 6 5 5 5 5 6 5 4 5 7 8 9 11 13 14 15 14 14 15 19 21 23 27 29 28 27 28 26 25 25 25 26
14 10 8 5 3 4 4 9 3 4 3 6 5 4 3 3 2 3 2 4 5 4 5 6 5 7 7 5 6 5 5 7 8 10 13 15 16 17 17 20 21 24 27 29 26 25 31 31 32 27 26 26 25 19
11 8 5 3 2 4 6 3 4 4 4 5 4 3 4 3 3 3 2 3 1 0 2 2 2 2 2 2 1 3 6 7 9 10 11 16 21 24 25 27 28 29 31 30 28 36 33 30 24 21 20 21 21 21
4 3 5 3 4 5 4 5 4 4 3 3 4 3 4 4 3 3 2 4 3 3 3 3 4 2 2 2 2 4 10 11 15 22 25 19 23 27 29 29 32 33 31 37 37 34 27 24 22 22 20 20 19 17
2 2 2 3 4 3 4 5 5 4 3 3 3 5 4 3 3 4 2 7 7 5 7 5 5 4 5 6 9 14 19 23 25 25 24 25 25 24 26 26 25 21 21 20 17 16 18 21 21 18 19 19 16 15
3 3 2 2 4 6 5 5 6 3 3 3 5 5 3 3 5 4 5 6 3 0 4 3 4 5 8 11 14 17 18 19 21 21 21 17 18 18 16 15 16 20 23 24 25 19 17 17 16 17 17 16 17 14
2 2 4 5 4 3 4 4 4 4 3 5 10 4 3 2 3 2 3 2 2 1 2 5 9 11 11 13 12 12 14 16 15 14 11 3 12 18 17 18 19 19 19 18 17 17 16 17 19 19 16 14 13 15
2 4 4 4 3 2 2 2 2 2 3 7 4 2 4 3 8 5 5 2 3 3 4 6 8 7 7 6 7 11 17 17 17 18 17 16 19 21 23 23 23 23 22 21 19 18 16 16 18 17 15 12 15 12
2 3 2 2 1 2 2 2 2 4 4 4 3 4 4 3 4 4 2 3 3 4 4 4 5 6 7 8 8 8 9 17 18 16 17 20 24 26 26 27 27 26 25 24 23 21 19 18 15 10 12 16 13 7
2 2 2 2 3 2 0 1 0 1 1 2 3 1 5 5 3 3 2 1 2 3 2 3 4 6 8 9 11 13 13 14 17 18 20 21 23 25 26 27 27 26 25 24 22 19 18 18 12 10 12 13 11 9
3 3 1 1 3 2 2 1 0 1 3 2 4 2 3 4 4 2 1 5 1 1 3 5 7 9 11 11 11 11 15 19 18 20 23 23 27 28 27 27 27 26 24 22 20 16 16 15 12 12 10 13 12 11
3 3 3 2 1 1 2 2 1 1 2 2 2 1 1 3 3 3 1 1 1 3 6 9 10 11 10 13 14 13 18 21 21 19 20 23 25 25 26 26 25 24 23 20 15 14 16 15 13 13 12 11 10 10

GFSWCAN_850_spd_027.txt.gz
Wind_Speed
36 34 31 29 26 25 22 20 17 15 12 11 9 8 8 8 8 8 10 9 8 5 6 5 6 8 11 16 5 11 4 0 4 3 3 3 2 4 2 7 6 7 6 3 2 3 7 7 2 6 5 9 12 5
33 32 29 27 25 24 22 20 17 15 13 11 9 8 8 8 8 9 10 9 7 4 5 5 9 9 12 10 12 19 4 6 7 4 1 2 0 1 1 3 4 2 7 6 8 6 7 7 6 9 8 13 6 2
30 28 27 26 24 22 21 19 18 15 13 11 10 8 8 8 9 7 10 9 8 6 7 6 5 6 7 10 16 8 5 7 9 6 7 3 3 3 4 5 1 3 12 3 4 7 9 16 16 13 11 5 3 3
29 27 25 23 22 21 20 19 18 16 14 12 10 9 8 7 8 6 8 7 6 6 5 2 4 6 5 9 11 10 11 9 16 9 5 3 3 12 4 4 4 6 4 1 2 1 15 14 15 14 6 0 7 6
30 25 24 22 21 19 19 18 17 16 14 12 11 9 8 8 7 6 6 6 6 3 4 3 4 4 5 6 7 7 8 11 8 5 3 3 5 1 1 2 2 6 5 3 5 9 7 12 14 8 4 9 9 5
29 29 25 22 21 19 18 18 16 15 14 12 12 10 10 9 8 8 3 5 7 5 3 1 2 1 3 7 6 6 7 6 5 5 4 4 4 7 3 3 7 12 15 12 7 8 7 12 10 6 9 10 7 3
24 23 28 24 20 20 17 16 17 16 14 13 11 10 10 10 11 6 4 4 9 8 4 3 1 1 6 8 8 6 8 5 3 3 5 3 3 4 3 5 8 9 7 6 11 15 10 9 7 10 9 7 6 2
21 18 19 19 22 19 16 18 16 15 14 14 13 11 9 9 10 6 4 3 8 5 3 3 2 0 7 4 4 3 3 4 1 2 4 4 3 1 3 11 18 20 19 11 12 7 6 11 12 10 9 5 1 2
20 19 15 15 13 10 16 18 17 15 13 11 9 8 6 6 6 6 5 4 7 4 5 4 4 3 7 3 4 4 3 1 2 2 3 3 2 5 7 8 9 12 16 16 10 10 12 14 12 9 5 2 3 8
19 18 17 16 12 6 7 12 14 17 16 13 11 5 4 7 7 7 2 3 5 5 5 5 6 2 6 4 2 4 2 2 1 3 5 2 3 13 15 9 4 12 15 16 19 15 16 11 7 3 0 5 9 13
16 17 17 16 14 10 7 11 13 17 23 18 9 7 9 14 9 6 4 2 3 1 5 4 12 5 6 4 3 5 2 2 2 4 3 3 3 7 9 6 8 13 18 15 14 12 10 9 5 3 6 11 15 18
14 15 16 17 17 16 15 11 13 18 11 13 9 13 11 6 3 3 3 1 2 2 2 3 4 5 6 5 4 6 3 2 5 10 2 3 3 14 17 17 18 17 18 17 13 11 6 3 3 7 12 15 15 15
11 12 15 16 17 18 15 12 11 12 18 16 5 4 2 1 2 4 6 1 1 3 3 3 2 4 4 5 4 2 5 4 4 2 3 3 6 12 19 17 16 18 17 13 9 5 1 5 9 13 13 13 15 17
9 10 11 15 14 17 17 14 15 14 5 4 4 3 1 2 2 2 1 1 2 1 5 5 4 2 2 2 2 3 1 2 2 2 3 2 10 12 14 13 13 12 8 3 1 5 10 14 14 14 14 16 18 19
8 7 8 10 11 9 9 10 9 7 5 4 3 2 2 3 3 3 5 5 5 6 7 6 4 2 1 1 1 3 1 1 1 1 2 6 10 15 16 13 11 8 3 3 9 12 13 13 14 17 17 18 20 22
7 7 7 7 6 5 3 7 6 6 4 3 4 3 4 4 2 4 8 8 7 8 7 5 2 1 2 1 1 0 2 1 2 1 9 11 10 8 7 7 5 2 7 12 12 12 14 16 18 20 21 21 19 19
9 6 6 6 7 6 5 1 3 5 4 3 3 7 4 6 5 4 5 5 5 3 1 1 2 1 1 1 1 2 2 2 5 7 8 5 5 6 5 4 3 10 14 14 16 17 17 16 16 15 19 21 21 19
8 8 5 4 2 3 2 3 4 3 3 3 2 6 6 7 8 5 5 5 3 2 1 2 4 1 2 2 2 1 5 6 5 3 2 3 5 5 5 8 15 15 14 15 14 14 15 15 16 20 23 25 26 25
3 2 4 4 2 2 4 2 3 3 3 3 8 8 6 6 6 5 6 6 4 3 5 2 2 0 1 2 4 7 7 5 3 4 4 3 4 8 11 13 14 17 17 16 16 15 14 16 20 24 27 26 27 27
3 3 4 3 6 1 1 2 3 3 2 4 6 7 5 3 5 8 7 6 5 3 1 1 2 1 3 4 3 5 2 2 5 5 7 8 7 9 12 14 18 20 20 17 16 18 20 23 27 26 25 25 27 26
3 2 3 5 3 6 2 2 2 2 4 3 9 5 4 6 4 4 5 5 3 2 2 4 3 2 3 3 4 5 5 6 5 4 6 9 9 11 13 14 14 14 15 18 21 25 27 28 30 26 29 29 28 26
3 2 4 4 3 4 4 7 4 5 4 6 9 6 5 4 4 4 4 3 3 3 3 1 1 1 3 2 1 2 2 3 2 3 7 9 12 14 16 18 19 22 25 27 28 31 31 32 29 27 33 35 30 24
3 3 1 4 3 3 3 11 4 6 3 6 6 3 3 4 4 6 3 4 3 1 3 1 2 3 4 5 2 2 3 4 4 2 4 6 7 13 21 21 19 21 25 28 28 29 30 28 32 34 28 26 23 22
5 3 4 2 5 3 4 4 5 4 5 5 3 2 3 4 5 3 2 4 7 5 3 4 4 3 5 5 6 7 3 0 2 4 10 16 23 26 25 25 26 25 24 27 29 29 28 29 32 29 20 20 22 20
4 4 3 4 4 4 3 3 3 4 3 3 2 2 3 5 2 2 3 4 4 2 3 6 11 10 15 9 2 3 7 11 15 19 19 20 21 22 23 22 20 16 19 25 26 27 28 26 26 26 23 21 19 21
3 4 3 7 5 3 5 4 5 4 3 2 2 5 4 2 1 3 2 7 8 3 1 5 4 3 1 3 7 11 16 18 19 17 15 15 18 18 18 20 22 22 21 22 24 25 25 23 22 20 17 17 16 15
3 3 2 2 1 4 3 4 5 4 2 3 4 5 2 3 4 3 7 7 6 4 2 1 2 1 4 8 11 11 14 14 14 13 10 7 10 12 18 21 21 23 22 22 22 22 22 22 21 21 22 21 18 15
1 3 3 3 2 1 2 3 2 3 3 7 12 4 5 3 2 3 5 7 7 6 3 4 4 5 6 7 8 10 10 10 10 10 3 7 11 18 17 19 21 23 24 23 23 22 22 22 21 22 20 19 17 15
1 3 3 2 1 0 1 0 2 2 2 9 4 2 4 5 6 5 6 5 6 7 6 5 3 3 3 3 6 10 12 14 17 17 16 18 21 23 25 27 27 26 26 25 24 22 21 20 20 21 17 12 12 13
1 1 1 1 1 1 3 4 2 4 5 5 4 6 5 6 8 7 5 4 4 2 1 1 3 3 4 4 5 5 11 15 17 18 18 20 24 25 26 27 28 28 29 28 27 25 22 18 18 13 14 16 15 15
2 1 2 2 3 2 1 1 2 2 4 3 3 3 5 5 5 5 4 2 3 2 4 3 3 3 5 7 9 11 11 14 17 19 20 22 23 24 26 26 26 26 26 26 25 22 18 17 17 15 15 14 14 14
2 2 1 1 3 1 2 1 1 2 3 3 3 4 4 4 3 0 4 5 4 2 1 2 5 6 7 7 7 10 12 16 18 20 19 21 24 24 26 27 27 26 24 23 21 16 14 16 17 16 16 15 14 12
2 1 2 1 2 3 1 1 2 2 3 2 3 4 3 3 3 2 2 4 2 1 4 5 8 9 10 9 12 14 14 16 18 17 18 19 22 24 25 24 24 23 21 20 18 15 16 17 16 14 13 12 10 9

GFSWCAN_850_spd_030.txt.gz
Wind_Speed
32 32 34 32 27 25 23 20 17 16 15 14 13 13 12 12 13 13 13 11 8 6 7 5 8 10 11 10 5 9 5 2 4 4 3 4 3 5 2 5 6 7 6 4 3 2 7 12 4 7 6 14 17 14
35 34 35 33 27 25 23 20 17 15 14 13 12 11 11 12 13 14 14 11 8 5 8 11 13 11 11 9 12 16 5 5 7 4 2 3 2 1 2 3 2 2 7 5 9 6 7 16 8 15 15 17 18 12
35 34 34 33 26 25 22 20 18 15 13 12 11 11 11 11 10 10 13 12 9 10 8 6 8 9 8 10 12 9 7 8 8 6 8 3 2 4 4 5 3 4 8 3 3 5 12 16 12 13 14 13 13 7
35 34 32 32 25 23 22 20 18 16 13 12 11 11 10 10 9 8 10 9 6 7 5 4 5 6 6 7 11 8 9 14 13 10 5 3 3 10 3 3 4 6 7 4 4 2 5 11 13 15 13 9 7 11
33 31 29 28 26 22 21 20 18 16 14 13 11 11 10 9 9 8 8 8 6 2 5 5 6 3 4 4 5 5 8 13 11 5 3 3 4 3 0 2 3 7 7 4 5 11 9 8 20 17 13 11 13 17
30 27 25 22 22 22 20 19 18 16 14 13 12 11 10 10 11 11 4 5 6 6 3 2 3 2 5 7 8 9 8 6 5 4 4 4 3 4 3 3 11 16 19 16 11 13 13 8 18 14 14 16 15 12
29 26 25 23 21 19 19 18 17 16 14 13 12 11 10 10 10 5 5 6 9 7 3 3 2 2 8 9 8 6 6 3 3 4 5 3 2 3 3 5 10 14 14 13 12 12 13 20 12 16 14 17 14 10
31 32 28 23 21 19 18 18 17 16 14 13 12 11 10 10 10 9 8 8 10 5 3 3 2 1 6 3 3 3 3 5 1 3 4 4 2 1 4 13 17 22 20 13 17 12 8 16 20 17 16 17 13 8
28 26 24 25 22 17 19 17 17 15 14 13 12 11 10 9 6 7 6 6 6 3 6 3 4 3 6 3 3 3 2 2 1 1 2 3 2 5 6 7 8 10 11 14 18 10 16 18 19 21 17 11 5 2
26 24 20 18 18 19 16 19 17 15 14 12 11 4 4 8 9 9 4 3 3 2 3 3 5 1 4 3 2 2 1 1 1 3 4 2 3 15 19 16 8 9 12 20 24 18 20 21 16 11 6 1 3 7
22 20 17 15 13 15 17 18 18 18 16 13 5 3 7 13 5 3 2 2 2 1 1 2 5 4 3 3 2 3 2 1 2 4 3 2 3 4 8 2 7 8 18 19 19 20 16 13 8 2 4 5 9 13
21 22 20 19 18 15 16 17 19 22 14 12 8 12 9 3 2 4 2 1 1 3 3 3 4 4 4 4 4 4 2 1 4 7 1 2 2 6 16 19 20 20 20 21 18 15 11 5 3 2 6 10 12 13
20 20 21 20 19 16 14 13 14 10 18 17 4 4 2 2 2 3 6 1 2 3 4 3 2 3 4 5 3 2 4 4 5 2 2 2 10 13 16 16 16 13 15 17 14 10 6 2 4 8 9 10 12 13
16 17 18 20 18 16 16 17 19 18 5 4 3 3 1 1 2 1 1 2 2 1 3 4 4 2 2 2 2 3 0 1 3 2 3 1 8 11 12 14 15 13 7 6 5 3 7 10 9 9 10 11 14 16
13 13 13 14 13 12 11 9 9 6 3 4 3 3 1 4 4 4 4 4 4 5 5 5 4 3 1 2 1 2 1 1 0 1 2 5 3 4 12 12 8 8 5 5 8 10 11 11 12 12 13 14 14 15
9 10 11 9 7 6 6 6 6 5 4 4 4 4 6 5 3 4 6 5 5 7 5 3 1 1 0 1 2 2 3 2 1 2 2 6 6 6 3 4 4 2 6 10 11 11 13 13 13 13 11 11 15 17
9 11 8 8 7 7 5 5 4 5 4 3 3 8 6 8 6 5 6 6 6 3 1 2 2 2 1 1 2 2 2 2 4 2 4 4 4 3 6 4 2 9 12 11 12 12 11 11 11 11 15 17 20 21
12 9 6 5 6 6 7 6 4 4 4 4 3 6 6 8 10 7 7 6 3 2 2 2 3 2 1 1 1 3 6 11 9 8 7 5 3 2 3 7 10 11 14 15 14 14 14 12 13 16 20 24 27 26
7 4 4 3 5 7 3 4 4 4 4 5 9 8 6 8 8 7 6 4 2 3 6 3 3 2 2 3 3 5 9 9 7 5 5 4 2 4 7 9 10 14 17 17 16 14 15 17 20 23 25 26 27 27
5 6 4 2 2 4 3 3 4 3 3 4 6 7 6 4 6 6 5 4 4 1 1 1 4 2 2 4 3 6 6 5 4 5 3 3 3 6 8 9 10 11 12 14 16 19 22 24 25 28 28 28 31 29
4 6 6 2 1 3 2 2 2 3 5 4 10 5 4 6 5 5 5 5 2 2 2 3 5 3 2 2 2 3 4 4 5 4 2 2 3 4 5 6 8 11 15 19 22 26 27 27 28 29 31 30 29 30
4 4 6 4 2 0 1 4 2 4 3 6 8 5 4 3 3 4 4 3 3 1 1 1 4 6 7 5 4 4 4 3 6 6 4 1 4 6 7 12 19 22 22 23 24 26 29 31 33 32 31 33 34 30
1 2 3 2 1 1 1 8 3 4 3 7 6 3 3 3 5 6 4 4 2 2 4 5 6 6 10 10 8 8 8 7 7 5 3 4 8 11 16 20 22 22 23 22 22 24 28 29 28 28 28 25 23 20
2 3 1 1 2 2 2 1 2 3 4 4 3 2 3 5 5 4 2 3 5 5 6 6 8 9 11 10 10 10 7 4 1 5 9 13 16 16 16 15 15 16 18 22 25 26 26 26 26 26 25 25 23 23
2 3 2 2 3 3 1 1 2 2 2 3 3 1 3 6 2 1 2 3 8 7 6 6 8 9 11 8 4 1 2 6 9 12 15 15 14 13 13 12 14 17 21 25 27 27 28 28 27 27 26 25 26 26
3 3 4 5 3 3 5 3 3 4 2 2 2 5 5 3 2 3 1 6 8 5 3 5 4 5 5 2 2 5 9 12 12 10 12 13 13 14 16 20 24 24 22 23 27 29 29 29 28 28 28 27 25 24
2 4 3 4 3 3 1 2 2 3 3 4 3 3 2 3 4 2 7 6 6 4 3 3 6 4 3 3 6 8 10 11 10 8 8 10 10 14 18 22 23 24 24 24 25 25 27 29 29 28 28 28 26 24
1 2 2 2 3 2 1 1 1 2 2 5 8 3 4 3 2 2 3 6 5 5 6 4 3 4 5 6 7 8 8 7 7 8 7 8 13 17 18 19 20 22 23 24 24 24 25 26 26 26 26 26 23 15
1 1 1 2 2 1 1 3 2 1 3 8 4 2 3 4 4 5 6 6 8 7 7 6 4 5 6 7 8 9 9 10 12 12 13 16 18 20 23 23 24 25 26 27 25 24 24 23 21 20 16 13 12 13
1 2 1 1 1 0 2 5 3 3 5 5 6 7 6 8 6 5 5 5 5 6 5 5 5 4 4 5 6 9 12 14 15 16 18 20 22 23 24 24 25 26 26 26 27 25 22 19 17 14 14 15 16 17
1 1 1 1 2 3 3 3 4 4 4 4 4 4 7 8 8 5 3 1 2 4 6 6 5 4 5 7 9 10 12 13 15 17 20 21 22 23 23 24 25 25 25 24 23 22 20 19 18 18 17 17 17 16
1 1 3 1 2 2 2 1 0 1 1 1 1 3 5 4 3 3 3 3 3 3 1 2 4 7 9 11 12 13 15 16 17 19 20 21 22 22 23 23 23 22 21 21 21 19 18 17 17 16 16 15 14 13
1 1 1 1 2 1 2 2 2 1 2 2 3 4 4 2 3 2 3 5 3 2 4 4 7 9 11 12 13 14 15 16 18 19 19 19 20 21 21 21 21 19 18 19 18 17 17 16 15 14 13 13 12 11

GFSWCAN_850_spd_036.txt.gz
Wind_Speed
43 40 38 36 35 33 30 28 25 23 23 27 28 29 32 33 34 21 11 10 6 7 7 6 9 10 11 9 5 11 6 1 4 4 3 3 3 5 2 4 6 7 6 4 3 2 7 8 4 7 6 7 9 19
43 40 37 34 33 31 28 27 25 22 23 25 24 27 29 30 30 22 7 9 11 8 11 15 12 9 7 8 13 18 5 6 7 5 1 3 2 1 2 3 2 2 6 5 8 6 5 13 7 15 6 6 9 17
39 37 34 32 30 28 27 25 24 23 23 22 22 23 24 26 32 23 20 15 13 21 13 9 12 11 9 9 10 9 6 8 8 6 8 3 3 4 4 5 2 4 6 2 2 5 11 19 21 23 13 15 13 13
36 34 32 29 26 26 26 24 24 24 22 21 21 21 22 22 20 20 20 16 12 10 6 4 7 8 7 7 8 7 8 14 13 8 5 3 3 8 3 3 3 4 6 4 5 12 13 20 19 22 25 20 14 13
34 30 28 29 24 24 23 22 24 23 21 20 20 20 19 19 18 16 17 13 12 4 6 8 11 9 8 6 6 6 10 13 8 5 3 3 5 4 2 1 3 9 6 4 6 13 8 13 15 13 15 17 17 18
31 30 27 32 20 21 20 21 22 21 22 19 19 19 18 19 18 17 7 9 10 11 7 2 4 5 8 8 10 11 9 7 5 4 3 4 4 3 4 3 9 8 14 16 8 9 14 17 17 16 15 12 14 15
32 31 30 22 19 19 19 20 20 19 18 18 18 17 16 15 15 6 7 11 10 9 4 4 2 3 5 6 5 4 5 4 2 4 3 4 3 4 3 4 4 12 13 16 16 15 14 13 9 7 11 13 15 18
31 37 29 20 17 17 17 18 17 17 16 16 15 14 13 11 13 14 13 11 11 6 4 3 2 2 3 2 2 2 3 3 5 3 3 3 4 2 3 5 12 12 14 8 12 6 9 6 5 9 12 20 26 20
30 34 26 17 14 15 16 15 15 15 15 15 15 14 12 8 6 9 11 8 6 4 5 3 4 3 2 3 3 3 3 3 1 2 1 2 1 3 5 17 18 17 13 13 7 3 6 11 16 18 21 16 17 17
26 26 26 21 12 13 14 14 15 15 15 16 15 5 5 7 16 12 4 2 3 4 4 4 2 2 2 2 3 3 4 1 1 2 1 1 1 6 13 11 11 12 10 4 9 14 18 21 21 18 19 15 11 4
23 22 21 19 17 14 13 14 14 14 14 9 4 5 14 12 4 4 4 6 5 4 4 4 3 3 2 3 2 3 1 1 1 3 2 1 1 4 9 13 13 13 11 11 12 17 20 20 18 17 11 7 2 4
26 24 21 19 17 17 16 16 14 13 9 7 9 14 9 3 5 6 2 2 3 2 2 2 3 4 3 2 5 2 2 1 3 3 1 2 2 6 12 15 17 17 20 23 22 21 19 17 12 8 3 4 6 7
21 21 22 20 18 18 18 17 14 13 19 13 4 4 2 4 5 4 4 1 1 2 2 3 3 3 3 3 5 2 3 2 4 2 1 1 8 6 7 15 19 17 17 18 16 14 10 6 3 3 5 6 8 9
24 22 20 19 19 18 18 16 17 15 6 4 4 4 3 2 2 1 2 2 3 4 7 8 5 3 3 3 1 2 1 1 2 2 2 1 7 10 8 11 11 11 10 9 7 4 2 2 4 6 8 9 8 7
19 18 18 19 15 14 14 14 17 15 5 4 3 3 2 4 5 6 8 7 6 6 6 6 5 3 2 2 2 3 2 1 2 3 1 2 11 15 12 12 8 7 6 5 5 5 6 7 7 7 7 7 8 11
14 14 19 15 11 10 10 10 11 7 5 4 4 4 7 6 3 4 9 9 7 7 7 4 2 2 1 2 2 3 4 4 2 2 9 10 14 12 10 7 3 4 7 7 8 8 8 8 9 9 8 10 13 17
6 17 14 12 10 10 10 10 6 7 6 4 4 8 7 8 7 5 7 6 7 3 2 3 3 3 2 2 0 1 3 3 12 14 12 10 7 6 5 6 1 2 3 6 7 8 7 8 8 11 15 18 21 24
15 11 9 8 9 10 8 6 5 6 6 5 4 5 7 7 11 8 8 7 3 4 3 2 5 2 3 4 2 3 8 17 14 10 7 5 3 3 5 3 2 2 4 6 7 7 9 13 16 19 23 26 29 31
17 14 8 5 4 4 4 5 5 5 5 5 8 8 8 8 9 9 7 5 5 5 5 2 3 2 3 3 2 8 11 13 9 5 4 4 5 5 4 3 3 4 3 5 7 10 14 17 19 22 25 28 30 31
13 12 13 8 4 4 5 5 5 5 3 2 5 6 5 5 7 6 5 2 1 1 1 1 3 0 2 3 4 6 8 8 8 10 9 8 6 4 4 2 2 3 5 8 12 16 20 22 23 25 26 28 30 32
11 12 12 9 10 9 6 4 5 4 4 3 7 3 4 3 3 4 3 1 1 1 1 1 3 8 10 9 9 8 8 7 8 7 10 10 8 5 3 2 5 8 11 15 18 20 21 22 25 27 28 29 29 30
13 10 8 9 7 5 7 7 5 3 2 6 5 3 4 2 2 1 1 2 2 1 1 2 8 11 10 7 6 5 4 4 4 5 8 8 6 3 4 6 9 12 15 16 18 20 22 24 26 28 29 29 29 30
8 7 6 7 5 6 4 4 2 2 2 3 4 2 1 2 2 3 1 1 2 3 2 2 6 11 9 8 6 6 6 5 6 6 5 2 1 4 7 9 11 13 14 16 19 22 24 25 26 27 28 29 31 32
7 5 6 5 7 3 3 4 3 2 2 2 2 1 1 2 5 2 1 2 2 1 3 5 9 12 10 10 9 7 6 5 4 3 1 2 5 6 8 9 12 14 17 20 21 22 23 24 26 27 29 30 30 31
2 6 3 4 3 2 3 4 3 2 1 2 2 1 3 4 2 1 1 1 3 3 4 9 8 8 8 7 7 5 3 2 1 3 3 4 5 6 8 10 13 17 20 21 22 24 25 26 26 27 27 27 28 28
5 5 3 2 2 2 1 1 1 3 1 2 3 2 4 3 2 2 1 3 3 5 6 6 5 6 6 5 4 1 1 2 3 3 4 3 5 7 11 15 17 17 19 21 24 25 26 26 26 27 26 24 23 21
3 2 3 2 2 2 2 3 3 2 2 2 2 2 1 2 1 2 2 3 3 4 4 3 2 1 2 2 0 2 3 4 4 3 3 5 9 12 14 17 19 19 20 21 22 23 25 25 25 24 23 21 19 20
2 2 1 3 3 2 2 2 1 2 2 2 3 2 1 3 2 2 3 4 4 2 3 5 4 3 2 0 2 4 5 4 3 3 6 9 12 14 14 16 17 19 20 21 22 22 22 22 22 22 22 22 22 23
1 1 3 2 2 1 3 3 4 4 6 2 1 2 3 3 4 5 5 3 1 2 4 4 2 2 2 2 3 3 4 4 5 6 8 10 12 15 17 18 19 20 21 20 19 20 20 20 20 20 21 21 21 20
2 4 1 1 1 1 3 5 2 6 6 4 5 6 7 9 7 6 3 1 3 3 1 1 3 4 3 3 4 5 6 8 9 13 14 16 18 19 20 20 21 21 21 21 20 18 17 17 16 16 16 16 17 16
3 2 1 1 2 2 5 3 3 4 2 6 6 4 7 7 7 5 3 3 2 2 3 3 3 3 4 5 6 8 10 12 14 15 17 18 19 19 20 21 21 21 20 20 19 18 18 18 18 18 17 17 16 16
3 2 3 2 1 3 4 1 2 1 1 1 3 3 4 4 3 4 3 1 3 4 3 3 3 5 6 8 9 11 14 16 17 18 18 18 19 19 20 21 20 19 18 18 17 17 17 17 17 17 17 16 16 16
2 2 2 2 1 2 2 4 2 1 1 3 3 3 2 2 3 3 3 1 2 3 4 4 4 6 9 11 14 16 18 18 18 18 18 19 20 20 20 20 18 17 17 17 17 16 16 16 16 16 15 15 15 15

GFSWCAN_850_spd_039.txt.gz
Wind_Speed
55 43 41 38 37 35 33 30 28 27 28 30 33 39 44 47 39 26 14 11 8 7 11 8 9 12 10 10 5 11 6 1 3 3 3 3 3 4 2 3 5 5 6 3 3 1 6 7 4 4 3 4 5 11
41 38 37 36 34 32 29 27 24 23 24 28 34 39 41 44 42 26 12 12 11 7 10 14 11 11 9 11 15 21 6 6 8 4 1 3 2 2 2 3 0 3 5 4 8 5 4 11 8 10 8 8 6 9
39 37 36 34 33 31 28 25 23 23 25 28 33 36 38 40 37 20 15 16 14 20 13 10 11 10 11 12 14 9 6 9 8 7 8 2 3 3 4 4 2 3 5 2 1 2 9 16 18 23 23 23 14 14
38 37 36 34 32 30 27 25 25 24 26 27 30 33 35 37 26 22 14 16 8 10 7 4 7 8 7 10 8 8 12 14 15 8 5 3 3 6 3 2 2 2 7 3 4 11 13 11 11 13 15 18 19 17
36 36 34 33 31 30 28 25 24 24 27 30 31 34 35 38 28 22 19 13 12 3 7 8 13 11 9 8 7 9 14 16 10 5 3 2 6 5 2 1 3 7 4 4 4 4 5 9 12 14 13 11 10 9
32 33 31 30 29 28 27 26 26 25 28 31 31 30 29 31 32 23 10 8 11 13 8 3 5 7 12 12 14 15 12 8 5 5 4 4 4 3 3 3 3 7 8 8 6 15 16 15 15 13 10 7 4 8
30 30 27 27 30 26 25 26 25 28 29 32 32 32 32 31 30 19 9 14 13 11 5 4 2 4 6 7 6 7 6 5 4 5 4 4 3 4 3 3 8 13 14 10 8 9 4 9 6 6 2 9 13 22
29 28 25 24 24 24 23 24 25 24 20 24 23 22 20 18 20 20 18 15 13 8 5 4 1 3 3 3 3 3 4 4 6 4 4 4 5 2 2 7 15 14 12 4 13 7 2 4 8 12 14 20 24 22
24 24 24 21 20 21 21 23 24 25 25 23 22 20 20 14 7 13 15 12 11 6 6 4 4 3 2 4 3 3 3 3 2 2 2 3 1 1 3 7 12 14 10 7 4 8 11 13 18 20 22 20 22 20
27 27 24 21 19 18 19 20 20 22 23 24 17 6 5 8 20 13 5 3 4 6 6 4 3 2 3 2 4 2 4 2 2 1 2 2 2 6 5 6 8 12 9 8 12 16 19 23 22 21 21 18 15 10
26 24 23 20 20 16 15 16 16 17 19 6 5 7 17 12 5 5 5 7 7 5 6 4 4 3 2 2 2 3 2 1 2 1 2 1 2 2 6 9 11 13 13 13 17 22 22 21 19 16 12 8 5 2
26 20 14 12 13 14 14 14 13 10 9 14 16 14 6 5 6 6 3 2 4 2 2 3 4 4 3 3 4 2 3 1 2 4 2 2 2 7 11 15 19 21 24 23 20 20 17 14 10 6 2 1 4 5
21 21 19 17 14 10 10 10 10 14 14 11 5 5 5 6 6 3 4 0 2 2 3 4 2 3 3 4 5 2 3 2 6 2 1 2 10 12 17 18 17 16 16 15 12 9 6 3 3 4 5 5 7 7
22 21 19 18 17 16 16 16 18 20 8 4 4 5 3 2 2 2 1 2 3 5 9 8 5 3 3 3 1 3 1 2 3 3 3 3 13 15 15 15 11 10 8 6 5 5 5 6 7 7 8 8 7 7
19 16 19 21 15 14 13 12 11 7 6 6 5 4 3 4 5 7 8 7 6 8 7 7 6 3 3 3 2 3 2 2 2 2 2 10 16 16 13 10 8 6 6 5 5 4 4 4 4 5 5 5 6 9
14 15 19 17 15 14 12 10 10 7 6 6 6 4 6 6 4 6 11 9 8 10 8 5 3 2 2 2 2 2 4 3 3 3 10 18 18 14 16 8 6 4 4 5 4 5 4 5 6 7 8 11 14 19
16 21 16 14 13 13 13 13 7 7 5 4 4 9 8 9 6 5 6 5 6 3 2 2 3 1 2 2 1 2 3 3 11 16 16 17 15 13 12 11 4 3 2 1 3 4 5 6 8 12 17 21 23 24
18 15 13 13 13 12 12 8 7 6 6 7 5 6 10 8 9 7 7 7 3 3 2 2 5 2 3 3 2 2 5 14 16 15 14 9 8 8 7 8 5 3 1 1 2 4 6 10 15 19 21 23 26 28
18 13 9 9 8 5 5 6 6 6 7 5 8 10 10 10 12 11 9 6 4 6 6 2 3 1 2 3 3 10 16 17 15 12 10 7 8 10 10 8 6 3 1 2 4 8 11 14 16 19 22 25 27 29
15 13 10 8 5 5 6 6 7 6 4 3 6 6 6 6 8 8 6 5 4 2 3 2 1 1 1 3 5 11 14 14 13 12 11 12 11 10 9 6 3 1 2 4 7 9 12 15 18 21 24 26 28 29
14 15 12 9 15 11 7 5 6 5 4 4 6 4 4 5 4 3 4 3 4 3 3 3 3 6 8 9 10 9 9 9 10 8 14 14 12 8 6 3 1 1 4 7 10 13 16 19 22 24 25 26 26 27
14 12 11 11 8 6 8 8 5 4 4 5 3 3 3 3 3 2 2 2 3 3 2 2 7 8 9 9 8 7 7 6 6 6 9 11 10 7 4 1 2 5 8 11 14 16 19 20 22 23 24 26 27 27
11 10 9 9 6 7 4 5 3 3 2 3 3 2 2 2 1 2 2 2 2 2 3 1 6 8 8 10 8 7 7 6 8 9 8 7 5 4 1 3 6 8 11 13 16 18 19 21 21 23 24 25 26 26
10 7 7 7 9 3 3 5 4 3 3 2 1 1 1 2 3 2 1 2 3 4 2 1 6 10 11 11 10 9 9 7 6 6 5 3 1 2 4 6 9 11 14 16 17 18 19 19 21 22 23 24 24 23
5 9 6 6 7 5 5 4 5 5 1 2 2 1 1 1 2 1 1 3 8 5 2 3 5 5 7 8 8 7 6 5 3 1 1 1 1 3 5 8 11 13 16 16 17 18 19 20 21 21 21 22 22 20
6 7 4 2 3 3 1 2 0 2 1 2 1 1 2 2 3 2 3 6 6 8 8 5 3 5 6 5 5 4 3 2 2 0 1 1 2 5 8 10 12 14 16 17 19 20 20 21 21 20 19 19 19 20
4 4 4 3 2 1 1 1 1 0 1 1 1 1 1 1 2 3 3 7 3 6 6 4 2 1 4 5 5 4 4 2 2 1 1 3 6 9 11 12 14 15 17 18 19 20 21 21 20 19 19 18 19 21
3 3 3 5 2 1 1 1 1 2 1 4 1 3 2 2 2 2 2 4 4 4 5 5 5 5 5 5 4 5 4 3 2 2 4 7 9 10 12 14 15 16 17 18 18 18 19 19 19 19 19 19 19 19
4 4 4 4 2 3 3 2 2 3 5 1 2 2 3 3 4 5 5 4 2 2 4 4 3 4 3 3 3 3 3 3 4 6 7 8 10 12 14 15 16 17 17 16 16 17 17 18 18 17 18 18 18 17
5 7 3 3 2 1 3 4 2 4 6 6 6 7 7 8 6 5 4 1 2 1 2 3 3 2 2 2 3 3 3 4 6 9 11 12 14 15 16 17 17 18 17 16 15 15 15 15 15 15 15 15 14 14
4 5 2 2 2 1 2 2 3 2 2 6 6 5 8 7 7 5 4 2 2 2 2 2 3 3 4 5 6 7 8 10 13 14 15 15 16 16 16 17 17 17 17 16 16 16 15 15 15 15 15 15 14 14
4 3 4 2 0 3 4 1 1 1 1 2 3 4 5 4 3 3 1 1 3 4 3 3 3 4 5 6 8 10 12 14 15 15 15 15 15 15 16 17 17 16 16 15 15 15 15 15 15 15 14 14 14 14
3 2 2 3 2 2 3 4 2 1 2 3 3 3 2 3 3 3 2 1 2 3 3 3 4 6 8 10 13 15 16 16 16 16 16 16 16 17 18 17 16 16 15 15 15 15 14 14 14 13 13 13 14 14

GFSWCAN_850_spd_042.txt.gz
Wind_Speed
33 37 37 34 28 29 40 40 35 36 37 39 39 41 45 52 48 23 22 18 15 7 10 10 11 10 9 10 6 12 7 2 2 2 2 3 2 4 3 2 4 5 6 3 3 3 4 6 6 3 4 4 3 4
33 35 41 34 44 34 33 34 36 36 37 37 38 42 47 53 33 23 22 17 13 10 7 11 12 15 17 14 11 18 1 8 8 3 1 3 3 1 1 3 3 3 3 1 6 1 3 7 7 3 5 9 9 7
35 45 44 39 35 33 33 33 34 34 35 36 39 41 47 51 28 18 19 19 14 11 9 7 5 9 12 15 15 8 6 9 7 7 6 2 3 4 4 4 3 5 4 3 2 2 5 7 8 10 11 13 12 12
36 36 36 35 33 31 29 29 29 30 32 35 38 42 48 53 30 8 15 15 13 12 6 3 7 7 9 13 15 12 13 17 17 8 4 3 3 4 3 1 3 2 8 5 4 8 6 4 4 8 11 11 9 7
37 36 34 31 29 27 26 26 27 28 31 34 37 40 43 48 35 15 17 13 8 3 6 8 10 9 9 10 8 9 18 18 11 5 3 2 5 4 2 0 2 2 1 2 2 5 5 6 12 11 10 8 5 2
36 34 32 29 27 24 23 22 25 29 31 34 36 39 40 40 29 22 8 7 8 11 7 4 5 7 13 14 17 17 15 10 5 5 4 4 2 2 3 4 4 4 4 4 4 11 7 6 8 9 7 8 10 14
34 34 31 29 28 25 24 26 31 31 34 35 38 40 45 37 25 21 12 17 13 9 5 4 4 3 8 9 8 9 8 6 5 5 4 4 2 4 2 3 3 5 5 4 5 7 3 11 8 11 14 16 16 19
30 30 30 29 27 26 29 31 31 31 36 41 41 38 36 28 18 13 11 17 13 5 4 4 3 3 3 4 4 4 3 4 7 4 4 3 3 1 2 4 5 7 5 5 7 8 10 11 11 13 15 20 24 24
29 29 30 30 25 27 30 34 34 36 38 37 35 30 27 20 7 14 15 13 9 3 5 4 4 3 3 4 4 3 4 3 3 2 2 3 2 2 2 3 6 8 4 3 9 10 11 14 17 20 21 19 19 16
20 27 28 22 24 24 22 23 23 29 31 32 28 15 7 11 24 16 4 3 2 6 6 4 3 3 2 2 3 2 4 2 2 2 3 2 2 4 2 3 4 6 6 10 14 14 19 22 20 17 15 13 9 5
23 24 24 24 21 21 22 25 22 21 21 15 6 6 21 15 6 3 4 5 5 4 5 4 4 4 3 2 3 2 3 1 3 2 3 3 3 4 6 6 7 8 7 10 16 20 18 17 15 10 5 3 2 4
25 21 20 19 18 18 19 18 17 12 9 12 19 18 8 4 4 6 2 1 4 2 2 3 4 4 4 3 4 2 3 1 2 6 2 3 3 10 11 14 17 17 18 18 17 14 10 7 5 4 3 4 5 5
19 20 16 19 17 14 14 17 26 24 19 12 6 5 4 5 5 2 4 2 3 2 3 4 3 3 4 4 5 2 3 2 7 2 2 2 13 16 19 15 14 12 13 12 10 8 5 5 4 4 4 4 4 4
19 17 18 18 17 16 15 14 15 11 6 5 5 5 3 2 4 3 2 3 3 6 10 11 5 3 3 3 1 3 2 3 3 4 3 5 17 22 16 13 12 11 10 8 7 6 5 4 4 4 4 4 4 6
15 16 18 18 17 16 14 12 5 8 7 6 5 4 3 3 5 6 8 7 8 8 7 7 6 3 2 3 1 3 3 3 2 2 3 15 22 20 16 11 11 10 9 7 5 4 3 3 2 2 2 3 6 10
17 21 22 21 16 11 8 6 4 8 7 6 7 4 5 5 3 6 11 9 7 9 7 5 3 2 2 2 3 3 3 2 3 3 9 20 19 16 14 12 12 9 7 6 4 3 2 2 1 2 5 9 14 17
16 20 15 16 16 15 12 11 7 9 6 5 5 10 9 11 6 5 7 5 6 4 2 1 2 2 2 2 2 1 1 2 8 10 13 14 16 17 14 13 9 8 7 4 3 2 1 1 3 7 11 15 18 19
20 15 13 13 13 12 15 11 7 6 7 8 5 6 12 9 10 7 7 5 3 3 2 2 4 2 1 3 2 3 5 10 12 16 16 15 14 15 10 12 9 8 7 5 3 2 1 4 7 11 15 18 20 20
14 12 11 10 7 4 6 8 8 6 6 5 7 11 12 12 14 13 11 8 8 8 6 2 2 2 2 2 3 7 12 14 16 17 13 10 10 12 15 12 10 9 7 5 3 1 4 8 10 14 17 20 21 22
12 10 8 6 3 5 6 7 7 6 4 3 6 7 6 6 9 9 7 7 5 3 4 3 3 3 3 2 4 9 12 13 16 15 11 10 11 12 12 11 9 7 4 1 2 4 7 9 13 15 18 20 22 24
10 9 10 9 17 12 8 5 6 5 5 5 6 5 4 6 4 4 5 6 5 4 4 4 3 5 6 7 8 10 13 12 10 9 14 14 12 11 10 9 7 5 2 1 4 7 10 12 14 17 19 20 22 23
11 8 11 12 8 7 8 9 6 5 4 4 4 4 4 3 3 3 3 4 4 4 3 2 3 4 6 8 9 9 10 10 8 8 10 13 13 11 9 7 4 2 2 4 6 9 11 13 16 18 19 21 22 21
10 10 9 9 6 7 4 5 4 4 2 2 2 2 2 2 3 3 3 4 4 7 6 4 3 5 7 9 10 10 9 8 10 10 11 10 10 9 7 4 1 1 3 6 8 10 12 15 17 19 20 20 20 19
11 7 7 6 8 4 3 5 3 3 3 1 1 3 2 2 2 2 2 4 7 7 7 5 1 3 6 7 8 9 9 9 10 11 10 8 7 5 3 1 1 4 6 9 11 13 14 16 18 19 19 18 18 17
6 9 6 6 6 4 4 3 4 3 3 3 1 2 2 1 1 2 2 4 10 11 9 4 1 2 5 7 8 8 8 8 7 6 6 5 4 3 1 3 5 7 10 11 13 15 16 17 18 17 17 17 18 18
7 10 5 4 4 4 3 2 3 3 2 2 3 2 1 1 2 3 3 6 7 9 9 8 5 4 5 7 6 6 6 5 4 3 5 4 3 1 3 5 7 11 13 14 16 17 17 17 17 17 16 16 17 18
5 5 5 5 3 2 3 2 2 2 2 2 1 1 0 2 2 3 2 5 3 6 7 5 4 4 7 6 5 5 4 3 3 3 3 1 3 4 6 8 10 13 15 17 17 17 17 17 17 16 16 16 16 18
5 5 3 4 3 4 2 2 2 3 2 3 1 2 2 2 2 2 3 3 5 5 5 5 5 6 5 5 6 6 5 4 3 2 3 5 7 9 11 13 14 15 16 17 16 16 16 16 16 16 16 16 16 16
5 4 1 3 3 4 4 3 3 3 5 2 1 2 3 3 4 4 4 3 1 2 3 3 3 4 4 4 4 3 3 3 3 4 5 7 10 13 15 15 15 15 15 15 15 15 15 15 15 15 15 15 15 15
5 6 2 2 2 2 3 4 3 4 5 5 5 5 6 6 5 6 4 2 1 0 1 2 2 2 3 3 3 3 3 4 6 8 10 11 13 14 14 15 15 16 16 15 14 13 14 14 15 15 15 14 14 14
3 4 2 3 2 2 3 2 1 3 2 5 5 5 6 6 6 5 3 1 1 1 1 3 3 3 4 3 3 4 6 8 11 12 13 13 14 14 14 15 16 16 16 15 15 14 14 14 14 14 14 13 13 13
5 4 4 2 2 2 3 1 2 1 2 2 3 4 4 3 3 2 1 2 3 3 3 3 3 3 3 4 7 9 11 13 15 15 15 15 15 15 15 16 16 15 16 15 15 15 14 14 14 13 13 12 13 13
2 3 3 3 2 1 2 3 2 2 3 3 3 3 3 3 3 2 2 2 3 3 3 3 2 4 6 9 12 14 16 16 16 16 16 16 16 15 16 16 16 16 16 15 15 15 14 14 13 12 12 12 12 13

GFSWCAN_850_spd_045.txt.gz
Wind_Speed
37 37 37 38 36 35 35 36 39 41 39 44 43 38 41 51 47 51 40 10 9 8 12 12 17 24 15 22 7 14 8 3 4 3 3 3 1 4 2 3 6 7 7 3 3 3 5 7 6 1 5 6 5 7
34 33 31 31 31 32 34 40 33 35 46 39 36 43 44 45 44 44 33 11 8 6 8 10 15 16 17 12 15 19 4 13 10 5 1 3 2 1 1 3 4 4 4 2 6 1 5 5 4 3 7 9 10 11
28 29 30 32 35 35 35 28 35 47 37 39 40 39 39 40 42 46 19 9 6 9 10 9 7 10 16 18 16 8 6 8 8 4 6 3 3 4 4 4 3 4 3 3 1 3 3 1 3 4 7 8 10 9
34 33 31 24 21 30 39 39 38 39 39 38 37 37 38 39 44 39 15 15 8 9 6 3 3 3 9 14 15 12 14 15 14 8 4 3 3 4 3 1 4 3 6 5 5 8 3 7 5 8 10 9 8 6
29 30 28 28 29 30 31 33 35 35 35 35 36 37 39 44 41 15 13 15 12 3 5 8 9 7 5 7 9 10 12 14 9 5 3 2 4 4 2 1 3 4 1 3 1 5 4 7 8 9 6 7 6 5
32 30 27 27 28 30 31 33 33 34 34 34 36 40 45 51 29 15 7 6 9 11 8 4 5 7 10 12 13 13 12 9 6 5 4 5 2 2 4 4 4 4 2 2 2 4 3 4 10 10 11 11 12 13
31 30 25 25 26 29 31 33 33 34 34 36 38 44 56 44 18 7 4 11 9 5 5 4 5 3 6 6 6 8 8 6 4 5 4 3 4 4 2 3 7 2 1 2 3 2 6 9 7 10 12 13 14 17
36 34 32 29 22 28 32 34 34 34 37 37 39 41 46 41 21 6 13 16 16 6 2 4 3 4 3 4 4 4 4 4 7 5 4 3 4 1 3 6 4 3 4 5 6 9 12 12 11 13 13 15 17 18
31 33 37 39 36 32 31 35 36 38 39 40 41 41 38 17 8 10 19 20 17 6 2 3 6 4 3 4 3 4 4 3 3 2 2 3 2 2 4 5 4 4 3 6 8 10 11 14 14 14 15 13 12 10
27 28 32 35 40 40 36 37 40 40 41 42 38 19 8 10 25 19 7 3 4 3 5 3 3 4 3 3 3 3 3 3 2 1 5 1 2 5 4 4 4 3 9 11 14 12 14 15 14 13 11 9 8 6
28 26 26 24 25 33 35 34 35 39 35 22 11 6 22 16 6 4 4 2 3 3 5 4 5 5 3 2 3 2 3 2 3 3 4 4 3 6 6 6 5 9 8 6 12 17 15 14 12 9 6 6 5 5
24 20 22 23 20 20 18 21 21 24 17 14 18 24 19 4 5 5 1 1 4 2 2 3 5 5 4 3 4 3 3 2 3 7 2 3 3 13 11 11 13 16 18 19 17 15 12 9 8 7 6 5 3 3
20 20 20 22 23 17 17 15 24 32 32 24 11 5 1 4 5 2 4 2 3 2 4 5 3 4 4 4 5 2 3 2 8 2 2 2 13 14 16 17 16 15 15 15 13 11 10 8 6 5 3 3 5 2
13 14 14 11 18 24 23 20 18 20 16 8 6 5 4 3 4 3 3 3 3 6 12 11 5 4 3 3 1 3 2 3 4 4 3 4 18 21 17 16 15 14 15 12 10 8 6 5 5 4 4 3 2 5
13 11 13 15 12 14 10 9 10 10 7 6 5 4 4 3 6 5 7 7 8 9 6 6 6 4 3 3 2 3 3 3 3 0 3 15 24 19 18 16 13 15 13 10 8 7 6 5 3 2 1 2 5 9
15 16 13 14 13 12 11 11 15 14 7 8 9 4 4 4 5 7 12 10 6 7 4 4 3 2 3 2 3 2 3 2 3 3 12 24 24 17 16 14 12 12 10 10 7 5 4 4 4 2 3 6 10 13
22 23 18 18 14 9 9 13 9 9 6 4 5 12 11 11 7 5 6 5 6 4 2 2 3 4 2 2 3 2 2 3 8 10 17 23 22 17 15 14 14 11 9 8 7 6 4 4 3 3 3 8 12 12
21 18 17 19 18 16 16 13 7 7 7 9 5 7 12 10 8 7 8 7 5 4 3 3 3 2 1 2 3 3 6 12 12 14 15 16 17 16 14 13 10 10 9 8 6 4 3 1 1 3 7 11 12 11
13 12 10 8 7 6 6 8 8 6 7 5 8 12 12 12 15 13 12 10 8 6 5 2 2 2 3 6 6 8 14 13 16 15 15 13 13 13 12 13 12 10 8 7 5 4 1 2 3 6 9 12 13 13
10 8 6 4 5 6 7 6 6 7 5 4 7 7 6 7 8 11 12 11 7 3 6 4 4 5 6 5 8 8 12 14 14 13 11 10 9 13 12 10 9 8 6 4 4 2 1 2 6 9 13 15 14 15
8 9 9 8 19 14 8 5 7 5 5 5 4 6 5 7 6 8 9 9 9 6 5 7 7 7 7 7 6 7 10 10 10 9 12 12 10 10 9 8 8 7 5 4 3 2 3 5 9 12 14 14 16 14
10 8 12 12 9 7 8 10 6 4 4 4 5 5 4 3 4 5 5 8 6 7 6 7 6 6 7 10 9 7 8 9 9 11 13 15 12 10 8 7 6 5 4 2 1 4 5 9 12 14 15 15 15 13
8 11 10 9 7 7 4 6 5 5 3 3 2 3 3 3 4 4 4 6 6 10 9 7 5 3 6 8 8 10 10 8 10 11 13 12 11 10 8 7 6 4 1 3 4 6 9 12 14 15 14 14 12 13
10 7 7 6 8 4 4 5 4 3 3 2 2 3 3 4 4 3 3 5 8 9 11 8 7 5 5 4 6 7 8 8 10 11 10 9 8 7 5 4 2 2 3 5 7 9 11 12 14 13 14 14 12 13
6 10 6 7 6 4 3 3 3 3 3 2 2 3 2 1 1 3 3 4 9 11 11 10 9 8 8 8 7 8 7 7 6 7 8 6 5 5 3 0 2 4 6 7 9 11 12 14 14 14 15 12 13 13
7 10 6 5 4 4 3 3 3 3 2 2 3 3 1 1 2 4 3 6 7 9 10 9 7 5 6 6 5 5 6 6 4 4 5 5 5 3 1 1 1 7 11 12 14 14 14 15 15 16 14 12 13 14
5 6 6 6 3 3 4 4 3 3 3 3 2 1 1 2 3 3 4 7 4 6 7 7 6 6 6 5 4 4 3 3 3 4 4 2 1 2 2 3 6 11 14 16 16 16 16 16 14 13 12 12 12 13
6 8 5 6 5 6 3 3 3 3 3 4 2 2 2 5 3 3 4 3 4 6 6 6 5 5 4 5 5 5 5 5 4 3 3 4 6 7 8 12 15 15 16 16 16 16 16 15 14 13 13 13 14 13
5 6 4 5 4 5 5 4 4 4 5 5 3 3 3 4 3 4 2 2 3 3 4 5 5 5 5 5 4 4 5 5 4 3 4 3 4 7 15 16 15 15 16 16 16 16 16 15 15 15 15 15 14 14
5 7 3 3 3 3 4 6 4 6 8 7 6 6 7 6 5 5 4 3 3 3 3 3 3 4 5 4 4 5 5 6 7 8 8 8 11 16 16 15 15 15 16 15 16 15 15 14 15 12 12 12 11 13
4 4 3 4 3 4 4 4 4 6 5 7 9 8 7 6 4 4 4 4 4 4 5 5 4 5 4 4 4 5 6 11 13 14 15 15 16 15 14 15 15 16 16 15 16 15 15 15 13 12 12 13 14 14
5 5 3 2 3 3 4 2 2 2 3 3 4 4 4 4 3 2 4 7 5 5 4 4 4 3 4 5 8 10 12 14 17 17 17 16 16 16 16 16 16 16 16 16 17 15 14 15 14 14 13 13 14 15
3 3 3 2 1 2 4 3 1 2 3 3 3 4 4 3 3 1 2 3 3 3 3 3 3 4 7 10 13 15 16 18 18 18 18 18 18 18 17 18 17 17 17 17 17 16 15 15 15 14 15 15 15 14

GFSWCAN_850_spd_048.txt.gz
Wind_Speed
43 44 43 44 44 45 44 40 36 35 34 36 37 39 40 35 47 51 55 40 20 7 26 37 32 21 24 24 7 11 9 3 4 3 3 2 2 3 2 8 7 7 6 3 2 2 6 7 6 2 5 6 9 8
40 42 41 41 40 41 41 39 36 33 33 38 39 36 38 36 44 40 39 50 32 27 11 18 15 17 12 9 23 26 5 12 8 4 2 3 2 2 2 3 10 4 5 4 7 4 6 7 10 7 6 7 9 8
36 36 35 36 36 38 40 36 33 34 38 35 35 41 35 48 43 53 48 33 20 2 8 10 11 17 13 9 20 7 6 12 9 8 5 2 3 3 3 3 2 5 5 2 2 4 9 8 13 10 8 7 7 7
31 32 33 33 33 33 33 33 33 36 36 39 37 38 43 40 49 59 48 29 12 1 3 6 3 3 11 11 17 12 12 11 15 13 5 3 3 6 3 2 3 2 8 5 5 3 13 13 11 7 6 6 6 7
25 26 27 28 30 30 32 33 33 42 35 42 43 41 38 43 46 36 36 25 17 5 5 6 5 6 3 10 10 9 16 18 12 5 3 2 4 4 2 1 1 5 0 3 1 6 7 11 8 8 9 10 10 11
28 32 34 29 32 35 39 37 28 35 42 36 37 41 42 34 29 24 13 15 7 10 6 3 4 7 7 8 9 10 11 10 7 5 3 5 2 0 3 3 6 9 8 7 6 6 12 14 13 13 14 13 11 11
20 18 16 20 26 33 32 34 37 36 39 44 44 42 35 33 36 12 4 10 8 3 5 4 4 5 11 12 10 8 8 6 5 5 3 4 4 4 3 2 12 8 7 7 5 7 9 9 11 12 12 13 14 16
20 26 27 29 32 35 38 41 42 42 39 37 36 35 40 32 13 9 11 9 11 8 6 3 1 5 3 5 4 4 5 5 7 5 3 3 4 2 2 11 12 8 9 9 10 12 18 16 15 14 14 14 16 15
31 25 25 26 29 32 34 35 36 36 35 34 35 37 39 17 7 9 14 15 12 8 3 2 3 4 4 4 5 4 2 3 3 2 2 4 2 2 6 12 10 5 8 14 12 12 14 15 15 15 15 13 13 11
48 42 31 30 29 30 32 33 36 37 37 37 38 25 4 12 10 23 5 2 5 5 3 1 1 2 3 3 2 3 3 3 2 2 5 2 2 7 6 7 7 7 11 12 15 14 15 16 16 14 13 12 12 11
40 45 46 41 36 33 35 37 41 47 50 30 9 5 22 25 8 4 4 3 3 2 1 1 5 4 4 3 3 2 2 1 2 2 3 3 3 6 8 8 8 12 13 9 11 15 14 16 16 12 11 9 8 5
31 34 38 36 37 42 47 51 52 37 18 15 19 29 18 3 4 4 2 1 1 2 1 2 5 5 3 3 4 2 3 2 3 7 2 3 3 13 11 10 11 13 15 18 19 19 17 14 12 12 10 8 6 6
27 26 25 28 30 29 35 29 20 25 31 34 12 5 4 6 5 2 4 2 3 2 3 5 3 4 4 5 5 2 3 3 11 2 2 2 13 14 15 18 20 20 21 21 18 15 14 14 12 9 9 10 7 3
19 24 21 24 26 24 22 29 32 31 17 7 5 5 3 2 3 3 3 3 2 4 13 12 4 3 3 4 2 4 2 2 3 4 3 4 16 18 19 20 21 20 19 17 15 13 11 10 10 8 8 7 3 2
13 16 20 23 18 17 19 15 21 18 9 7 5 4 3 1 4 3 5 6 7 10 8 7 6 5 3 3 2 3 3 4 3 1 2 14 24 20 20 19 18 20 17 14 12 11 10 9 7 7 5 3 3 5
10 12 14 16 14 11 10 9 13 11 7 7 8 4 2 4 4 9 12 10 6 5 4 4 3 3 3 2 2 1 4 2 2 3 14 25 22 19 19 16 18 16 15 12 12 11 9 8 7 4 2 2 6 9
11 19 17 16 16 12 5 7 9 10 6 5 5 12 10 11 8 6 7 7 6 4 2 2 4 4 1 2 2 3 3 2 9 13 20 24 22 19 18 18 19 16 13 10 10 9 8 6 4 4 2 5 7 8
22 22 20 16 13 13 18 13 9 7 8 11 5 9 16 11 9 10 8 10 5 4 4 3 3 2 3 2 3 3 6 12 13 17 20 23 20 18 17 16 14 14 13 12 9 8 6 5 5 2 2 6 5 7
19 16 13 10 5 5 6 7 7 5 8 5 11 13 12 14 17 14 14 12 12 9 4 4 4 4 3 6 6 12 14 14 19 19 18 18 18 17 16 15 15 13 9 9 8 5 4 5 3 2 5 7 8 10
13 11 8 6 3 7 7 7 7 7 4 4 7 11 8 8 13 18 19 16 15 7 8 5 3 5 6 11 13 6 13 14 18 19 16 12 13 14 17 16 14 12 12 10 8 7 4 1 3 5 8 10 11 13
9 10 9 9 21 14 8 5 7 5 6 5 6 6 7 12 11 13 14 13 13 7 5 10 10 11 11 12 13 15 14 12 9 10 14 15 13 13 12 11 9 9 9 8 4 4 4 3 5 7 10 11 13 13
11 8 11 14 9 7 8 10 5 5 5 5 4 6 5 4 5 9 9 12 7 9 8 9 11 9 10 11 12 11 8 10 9 14 14 15 14 11 9 8 9 10 8 6 5 3 2 6 8 10 11 13 13 11
10 11 10 11 7 7 4 8 5 5 3 3 3 3 4 4 5 4 6 7 6 14 11 11 11 9 9 8 8 10 9 7 11 14 14 15 15 13 13 12 9 6 4 2 1 3 6 8 11 12 12 13 11 11
11 8 8 7 9 4 4 5 5 4 4 3 3 3 3 4 4 5 4 5 9 10 13 12 10 6 10 9 11 11 10 8 10 11 8 8 9 8 7 6 5 4 2 2 4 5 8 10 12 12 13 13 10 12
7 10 7 7 8 4 4 3 4 4 4 4 3 4 3 3 2 3 3 5 11 12 11 13 11 11 10 10 9 10 8 8 8 10 10 9 8 6 6 5 4 3 4 4 7 9 11 13 13 13 14 11 12 13
7 11 6 9 6 5 5 3 3 4 2 3 4 2 2 2 3 4 3 9 9 10 11 11 12 9 9 8 7 7 8 8 5 5 7 7 7 6 4 3 3 8 10 12 13 13 12 13 14 14 12 11 11 14
6 7 7 8 3 2 4 5 4 4 5 4 2 2 1 3 4 4 6 7 6 7 8 8 8 9 8 7 8 7 6 5 5 7 6 6 4 3 2 3 5 10 12 14 14 14 14 14 13 12 12 12 12 15
7 8 5 8 6 10 3 3 4 5 4 6 2 5 3 5 4 4 5 4 6 7 7 8 8 7 6 7 6 6 7 8 8 8 9 10 12 10 11 12 14 16 15 16 16 15 14 13 13 12 12 14 14 12
6 7 5 7 6 7 8 7 5 5 8 7 4 3 4 5 6 6 4 3 3 4 4 6 9 9 9 6 6 7 8 7 5 4 5 4 4 10 17 16 14 14 14 14 12 12 13 16 15 14 15 15 14 13
7 10 4 6 4 4 6 7 7 8 11 9 7 8 10 8 6 6 4 4 5 6 5 6 5 5 7 5 7 8 7 7 9 8 8 8 12 15 14 13 15 14 14 14 13 14 13 13 16 11 9 13 14 15
5 6 4 6 5 5 4 5 9 9 9 11 13 12 9 7 5 7 9 9 5 8 6 6 5 5 5 4 4 3 5 13 15 15 15 15 14 13 12 16 15 15 15 15 14 15 14 15 15 14 13 13 15 15
5 6 4 3 4 4 4 3 1 3 4 5 5 5 5 5 4 3 6 10 4 6 6 4 2 4 5 7 9 11 13 15 15 17 17 17 16 16 16 17 16 15 14 16 15 16 15 15 16 16 16 14 15 18
3 5 4 3 2 3 4 2 2 4 5 4 4 5 6 5 5 2 5 4 3 3 3 3 4 5 7 10 14 15 15 15 18 19 19 19 18 17 17 17 18 18 17 17 17 16 15 14 15 16 17 17 15 16

GFSWCAN_850_spd_051.txt.gz
Wind_Speed
39 41 41 41 39 37 36 34 32 36 45 48 48 44 45 44 42 37 50 22 12 6 17 14 32 27 32 24 6 11 7 2 2 4 3 3 3 4 4 8 8 7 6 3 3 2 6 10 5 6 6 14 14 15
36 37 36 37 37 39 35 31 38 40 41 40 41 41 44 42 39 41 39 40 25 8 13 20 2 28 42 34 22 17 10 16 14 4 2 3 3 2 3 2 2 2 7 6 7 6 5 20 24 20 20 17 13 9
33 35 35 38 39 37 37 37 38 36 37 37 38 37 38 38 38 42 49 34 29 10 23 20 5 14 21 29 27 11 7 13 7 7 6 3 4 4 3 4 3 2 6 4 5 1 13 23 21 17 13 15 12 6
33 35 37 36 36 37 40 38 35 34 32 33 35 35 37 38 38 42 45 33 17 7 3 6 8 7 24 21 25 24 28 16 6 11 6 3 4 6 4 4 5 5 5 6 5 11 21 17 15 14 13 12 9 7
31 31 33 33 34 37 38 36 34 30 30 30 33 34 31 33 33 26 29 31 27 13 3 3 11 12 18 26 21 35 24 31 17 4 4 2 5 5 2 3 1 2 4 4 4 8 14 12 15 14 15 15 11 8
28 29 31 32 35 36 34 32 30 30 29 30 30 31 31 32 29 24 8 33 48 28 8 1 5 14 15 9 12 22 23 14 8 6 2 4 3 4 3 3 2 17 16 12 8 16 23 24 20 14 14 12 10 11
25 28 29 30 30 31 32 31 29 29 31 30 32 30 33 29 29 20 7 16 52 51 8 2 3 5 17 16 11 14 13 12 6 5 4 4 3 5 3 3 12 19 20 22 20 25 18 13 14 12 13 15 16 18
26 26 27 28 28 28 28 30 29 27 29 30 32 27 27 30 22 33 7 12 20 9 5 3 2 3 5 5 5 7 5 7 8 5 3 3 3 4 3 9 21 21 20 14 11 9 22 21 17 18 19 18 21 24
19 23 26 26 30 34 33 31 34 33 30 38 36 31 28 14 16 21 12 15 10 5 6 3 4 2 3 6 5 5 4 2 3 2 2 4 1 2 3 17 16 22 11 25 21 22 20 20 22 20 16 20 22 19
27 25 20 23 26 30 30 31 34 33 33 35 38 12 9 14 19 16 2 2 3 6 6 3 4 2 4 3 3 3 3 2 2 2 4 3 2 8 13 17 15 19 24 22 27 22 22 24 22 19 17 20 18 14
29 33 32 30 32 35 39 39 38 39 39 35 7 4 25 25 6 2 3 4 2 4 5 4 4 3 3 3 2 2 2 1 3 3 4 1 3 4 9 11 12 16 15 14 14 19 20 24 25 24 19 15 13 12
34 29 31 32 33 33 34 37 40 42 15 10 21 24 10 3 3 5 2 2 4 2 2 2 5 4 4 3 4 1 3 2 2 4 3 3 2 17 15 15 17 16 15 17 22 24 23 21 20 15 16 15 13 12
34 35 33 32 35 36 39 41 23 22 36 27 7 6 2 5 6 3 3 2 3 2 3 4 2 3 3 4 5 2 3 1 6 2 3 1 13 16 16 20 19 21 26 27 26 25 22 21 15 13 16 14 12 11
33 33 34 38 41 45 38 12 35 25 11 6 5 5 3 3 3 2 2 3 3 4 15 14 4 3 4 4 1 4 1 1 1 2 3 3 16 20 22 24 29 27 25 24 22 19 16 16 16 16 14 11 8 6
21 28 33 34 24 21 26 34 21 8 6 7 6 5 4 2 5 4 6 8 9 12 10 8 5 4 2 3 2 3 2 3 3 2 2 15 23 24 27 27 28 26 22 18 17 17 17 16 15 15 12 9 5 2
20 19 17 18 20 22 17 16 8 8 8 7 8 4 3 3 5 9 12 14 7 5 4 3 3 3 3 3 2 2 4 2 2 2 14 24 23 25 26 26 25 22 17 17 18 17 15 13 12 10 8 5 2 2
11 22 17 11 9 9 14 20 9 11 8 6 6 12 9 10 8 4 9 7 5 3 2 3 4 2 1 3 3 3 2 2 8 12 20 23 26 24 22 21 19 18 16 18 17 16 13 10 9 7 5 3 1 4
26 20 18 12 8 7 12 15 9 8 8 12 5 8 15 11 8 11 10 11 5 4 3 2 4 4 4 3 2 2 7 12 13 18 21 24 22 20 22 23 20 16 16 15 13 13 12 11 10 8 5 6 5 6
19 15 13 11 11 11 7 8 8 6 9 6 11 11 13 16 22 18 14 14 14 10 6 6 6 4 3 5 5 11 13 15 18 22 22 22 23 22 22 20 18 17 15 13 13 14 15 14 9 6 4 2 5 8
13 11 9 6 6 7 7 6 6 7 4 5 10 14 8 11 22 24 23 20 19 9 8 5 4 7 7 12 6 8 12 15 19 21 19 18 17 17 18 19 18 16 16 17 13 9 9 8 5 2 3 5 7 9
13 14 10 15 26 15 8 5 7 6 7 6 10 8 8 19 20 20 19 20 18 8 6 11 14 13 14 18 17 13 13 12 13 14 17 17 16 16 16 15 13 11 12 12 15 13 9 4 4 4 7 8 9 8
13 9 13 14 10 8 9 10 6 6 5 6 4 6 5 5 7 12 18 16 9 12 8 13 14 13 16 19 19 16 14 13 10 15 15 15 15 14 13 14 14 15 14 10 7 5 2 3 5 6 8 10 10 9
10 10 10 11 8 8 4 8 5 5 3 3 3 3 4 4 5 7 7 7 9 20 18 12 11 12 13 12 11 13 13 14 18 18 19 18 16 14 13 11 8 7 7 5 2 1 3 5 7 8 10 12 11 11
11 8 8 7 10 4 4 5 5 4 4 3 3 3 3 4 5 7 4 5 11 12 17 18 12 12 12 13 17 16 15 11 12 11 9 6 8 8 7 8 6 6 5 3 1 4 6 9 11 12 13 13 11 12
8 12 8 6 10 5 4 4 5 4 3 3 3 3 2 3 3 3 3 5 13 12 18 14 11 12 13 12 13 13 11 9 9 11 13 12 10 9 9 7 6 5 4 3 5 8 10 12 13 14 13 12 11 11
8 12 6 9 6 5 4 3 3 3 2 3 3 1 3 3 4 4 3 7 10 10 11 13 10 10 12 11 10 10 11 10 7 8 11 8 6 6 5 3 4 5 8 11 12 13 13 14 14 13 12 10 9 12
6 7 8 8 4 2 4 5 6 6 5 5 3 4 2 4 4 4 5 8 7 8 6 7 8 10 12 13 12 12 11 9 10 11 10 8 6 5 4 5 7 10 11 12 13 14 14 13 13 13 12 11 12 15
7 9 6 12 10 15 4 4 4 5 4 10 4 6 3 4 3 4 6 5 6 9 11 11 10 7 6 6 6 5 6 10 10 9 7 8 9 11 13 16 15 16 16 16 16 15 15 15 16 15 13 13 12 12
6 10 5 7 6 8 11 7 5 6 10 7 4 3 4 6 11 9 5 4 7 4 5 10 9 10 11 10 10 10 8 7 4 3 1 3 8 13 16 15 14 16 16 15 15 14 13 13 14 16 17 11 11 12
9 11 3 7 5 4 7 7 10 11 11 11 10 14 17 12 10 6 5 7 8 8 6 5 6 6 5 5 6 6 7 9 10 10 10 11 12 13 13 14 16 18 17 17 16 15 15 15 14 13 14 12 10 12
5 7 5 6 5 6 10 11 14 17 18 17 12 16 12 10 11 10 9 10 8 8 5 6 4 5 5 4 4 7 11 14 15 13 13 14 13 14 15 16 16 16 15 14 16 17 16 15 14 14 16 17 15 15
7 8 5 3 4 4 3 4 3 5 6 10 7 8 8 6 5 4 7 4 3 4 2 2 4 6 6 7 10 12 12 13 15 17 17 16 15 15 15 14 15 15 16 16 17 18 18 17 14 14 16 19 21 21
5 7 8 4 3 3 4 2 4 4 6 4 5 9 7 5 5 3 5 5 5 5 4 4 4 5 7 11 13 13 14 15 17 18 18 18 17 15 16 17 18 18 17 16 14 14 14 13 13 14 16 19 22 23

GFSWCAN_850_spd_054.txt.gz
Wind_Speed
43 48 50 51 47 42 39 39 39 37 37 36 34 30 41 55 49 52 51 22 11 5 6 1 20 15 28 33 11 7 7 1 3 4 3 1 3 6 4 6 6 7 7 3 3 3 6 6 4 7 6 15 19 16
37 42 45 41 39 36 36 36 38 37 35 35 33 34 37 49 49 44 33 31 12 6 6 10 8 12 20 31 27 19 7 8 9 4 2 3 3 1 5 3 2 1 7 6 8 5 3 3 10 22 24 23 15 15
33 35 36 36 35 34 33 34 32 32 35 39 34 43 46 50 47 38 35 20 25 12 13 18 18 10 11 26 32 15 6 11 11 12 5 3 5 2 4 4 4 1 5 4 6 2 3 19 21 22 19 17 15 12
31 34 35 34 32 30 29 28 29 31 36 40 43 44 40 38 39 36 30 23 20 5 2 9 11 14 11 22 33 35 22 20 21 18 6 3 4 7 4 5 5 6 8 7 4 3 12 11 18 22 20 16 13 11
31 32 33 33 30 30 28 30 34 37 39 40 37 34 34 35 35 32 32 24 30 13 3 11 18 6 10 21 32 40 32 25 10 4 3 2 3 4 2 3 1 5 7 5 5 20 8 10 18 21 19 16 14 12
30 29 30 30 30 28 34 32 31 30 30 32 32 31 34 34 33 29 10 25 34 23 3 3 6 1 8 14 21 24 20 17 8 5 1 4 1 2 4 2 3 3 8 17 10 29 19 26 21 16 16 16 15 16
29 29 29 29 31 33 32 31 30 28 27 29 30 30 31 29 27 21 7 8 36 22 4 4 4 6 11 15 13 10 9 8 5 5 5 3 5 1 2 3 8 13 17 19 27 31 24 25 15 17 17 18 19 22
25 27 27 28 30 30 28 28 24 26 26 28 26 27 23 25 22 26 9 8 17 30 4 2 3 4 6 1 6 5 7 7 5 5 2 2 2 3 2 5 22 25 27 28 23 5 22 24 23 21 21 25 29 29
25 27 28 29 29 30 28 27 26 25 28 28 27 26 22 19 13 29 19 1 13 13 6 1 4 2 4 5 5 6 5 3 6 3 1 2 2 2 2 14 23 29 13 24 19 22 27 26 25 24 27 28 28 26
26 26 27 27 28 28 28 28 27 29 29 28 25 10 7 14 10 17 17 4 4 6 7 3 4 2 5 3 3 3 4 2 2 1 3 3 1 2 10 16 21 14 23 28 31 24 27 27 24 24 27 23 24 22
26 25 28 30 31 31 32 31 27 28 27 24 15 6 21 27 15 8 7 5 5 2 4 1 3 4 4 4 2 4 2 1 3 2 4 2 2 3 12 18 21 22 23 17 10 23 21 28 31 28 25 23 20 17
25 24 26 30 32 32 31 31 35 39 31 10 20 30 17 5 4 4 2 0 1 3 1 2 4 7 6 4 4 2 2 3 2 3 3 2 1 15 15 21 21 21 17 17 21 26 28 28 27 27 24 21 18 16
30 30 29 30 31 33 34 47 48 26 41 25 8 5 4 1 3 3 4 2 3 1 2 4 3 4 4 6 5 3 3 1 1 3 2 1 8 16 21 23 21 21 22 25 27 28 28 26 21 20 21 18 17 16
30 30 30 31 33 37 43 30 20 20 5 6 5 4 3 3 3 2 1 2 3 5 17 13 6 3 5 4 2 4 1 2 3 1 3 2 13 19 24 23 24 26 26 28 28 26 25 23 20 18 16 16 15 13
30 29 29 33 35 37 32 24 11 8 8 8 6 5 4 3 4 4 6 6 8 7 8 8 6 6 3 3 2 3 2 2 3 3 2 13 22 25 27 28 29 28 28 27 27 23 20 19 20 19 16 14 11 9
33 36 29 23 21 20 20 10 8 9 7 6 8 4 4 3 5 8 11 9 6 7 6 8 3 3 3 3 2 2 4 2 1 1 12 26 26 28 30 30 29 26 23 21 19 17 18 18 17 16 15 11 9 6
18 26 22 24 21 20 11 12 7 9 7 5 5 11 9 9 6 5 6 6 5 4 3 3 4 2 1 3 3 3 2 1 4 11 19 26 28 28 30 28 27 21 21 18 20 19 18 16 16 15 13 10 6 3
19 12 8 12 17 19 17 14 8 8 8 12 5 9 16 14 8 13 10 9 5 4 4 3 4 5 4 3 2 2 5 11 13 18 23 24 26 27 25 23 18 18 18 18 18 17 16 16 15 12 10 8 6 3
17 14 10 7 5 8 7 8 8 6 9 5 12 14 14 18 23 19 16 18 21 13 8 6 5 4 3 4 4 7 10 13 17 20 21 20 20 21 19 19 18 19 18 20 19 19 17 14 11 9 8 8 8 8
15 10 10 11 9 8 7 6 7 8 5 5 15 21 13 13 19 27 26 25 22 10 8 5 4 7 7 11 8 4 10 15 21 23 21 20 18 18 20 19 19 20 19 18 17 17 17 15 10 7 6 6 7 7
14 16 19 19 25 14 8 5 7 6 7 7 11 10 11 25 25 21 23 23 21 8 6 12 14 17 18 17 13 12 11 11 15 19 21 20 18 17 18 18 18 17 17 17 16 14 11 8 5 3 5 6 8 9
14 12 15 14 9 8 9 9 6 5 5 5 6 7 6 5 8 14 20 17 9 12 11 13 14 16 21 23 19 14 12 12 15 17 17 18 18 16 15 14 14 14 13 11 9 7 5 3 2 5 7 8 10 11
11 12 11 13 8 7 4 7 4 4 3 3 3 3 3 5 6 7 7 9 9 20 16 18 16 14 16 16 16 18 16 15 18 17 15 15 15 14 13 12 9 8 8 6 3 2 1 2 5 8 10 12 13 12
12 9 9 8 11 3 4 6 5 4 4 3 3 3 3 4 7 7 4 5 12 15 17 13 13 14 15 17 20 19 17 13 15 16 13 9 11 11 8 8 7 7 5 3 2 4 5 7 10 11 13 13 13 13
9 12 8 7 10 6 5 5 5 4 4 4 3 3 2 5 3 4 3 4 14 17 15 14 13 15 18 18 17 16 14 12 12 15 16 13 12 11 10 9 7 6 5 4 5 8 10 12 13 14 14 14 14 13
8 10 5 8 5 4 2 3 3 4 3 3 2 2 4 3 4 4 3 5 11 11 12 12 12 13 16 14 13 13 14 10 8 12 14 9 8 7 6 5 4 5 8 10 11 12 13 13 14 13 13 13 13 13
6 6 9 11 5 4 4 8 9 6 5 5 3 4 3 5 4 3 4 7 8 7 7 8 9 11 13 13 13 13 12 10 9 12 11 8 7 7 6 7 8 10 11 12 13 13 13 13 12 13 13 11 13 14
7 11 5 16 11 15 4 4 4 5 3 9 4 6 3 3 3 4 4 5 9 11 12 11 9 7 7 7 7 6 7 8 8 7 5 6 8 11 13 14 13 13 14 15 15 15 16 16 16 16 16 18 14 10
7 8 7 12 7 9 11 6 5 7 10 4 4 3 4 6 13 12 11 10 7 4 6 7 9 9 9 10 10 10 8 5 5 6 8 10 12 12 13 14 15 15 16 16 16 15 12 13 15 16 16 14 15 14
12 12 4 8 5 4 8 8 10 12 17 14 13 24 24 20 14 9 7 7 6 7 6 5 5 2 5 5 6 5 6 8 9 9 10 11 12 13 13 14 15 16 17 18 18 17 16 16 15 14 14 14 13 16
6 6 6 7 5 11 15 20 22 22 22 16 19 23 15 12 15 12 11 8 5 5 4 5 4 4 3 4 7 10 11 11 11 12 13 13 13 14 14 14 15 15 16 17 18 19 20 19 19 19 16 15 16 17
7 8 4 3 3 11 11 1 9 13 11 12 11 12 9 5 5 3 5 4 3 2 3 4 3 3 3 6 10 12 11 13 14 15 16 16 15 15 14 15 16 17 17 17 17 16 17 17 17 16 16 16 17 18
6 8 8 5 4 3 2 2 4 5 5 4 4 7 6 4 4 3 1 4 4 4 3 3 4 5 7 9 12 14 14 15 16 17 16 16 16 16 17 18 18 18 18 17 16 16 14 14 15 16 17 17 18 18

GFSWCAN_850_spd_057.txt.gz
Wind_Speed
23 26 46 57 58 55 54 49 48 49 48 50 49 49 48 48 43 39 39 20 23 4 3 12 24 17 17 29 6 5 7 4 3 3 4 4 3 5 3 6 8 8 7 4 3 3 6 7 5 8 7 12 22 18
46 55 56 55 50 47 45 43 43 43 43 47 47 43 42 42 45 39 37 22 11 4 3 3 17 18 18 15 27 13 3 8 11 4 1 3 1 2 3 3 1 2 6 6 8 6 1 5 6 8 24 30 20 21
40 43 43 44 45 42 39 38 38 39 39 40 39 43 43 37 45 45 40 41 24 4 7 7 5 10 8 11 17 15 13 7 10 6 5 2 3 4 3 4 1 3 4 4 4 3 0 4 12 25 23 26 21 20
35 38 40 37 35 34 36 37 37 38 37 36 34 32 30 31 45 37 42 34 29 1 1 5 9 5 11 11 17 26 15 19 13 11 4 3 3 9 5 5 1 5 8 6 2 1 6 6 15 23 23 22 22 19
32 33 33 33 33 33 32 34 33 34 34 35 33 27 30 40 40 40 31 31 42 7 1 8 9 16 12 16 19 25 32 21 12 4 3 4 4 5 2 3 6 9 7 6 6 19 8 14 22 22 23 22 18 17
29 30 29 28 27 26 26 29 31 33 31 34 30 36 41 44 40 32 12 20 32 26 6 3 5 10 11 15 17 29 36 25 15 7 3 4 3 4 4 4 3 12 10 11 8 28 13 27 26 22 20 18 17 18
26 26 25 25 23 21 21 25 32 38 38 38 39 36 39 39 35 15 7 14 32 24 5 4 4 3 4 14 9 11 17 11 6 7 3 5 5 6 3 2 1 6 10 12 21 34 21 30 18 22 20 21 20 22
27 26 26 26 30 33 34 35 40 42 41 39 38 33 32 27 27 6 4 15 29 20 3 2 3 6 5 3 4 4 6 5 6 4 2 1 3 3 2 1 8 15 21 24 20 11 27 27 28 25 23 26 28 28
27 28 31 31 32 32 34 36 37 38 36 36 35 34 29 22 20 10 14 25 23 9 8 4 1 3 4 2 4 4 4 2 4 2 2 3 1 1 4 8 18 21 6 17 17 22 29 31 29 29 30 30 31 31
26 28 28 29 30 29 33 35 37 36 38 37 36 16 9 21 15 19 9 9 6 6 7 3 2 2 2 1 2 4 2 3 3 2 9 3 3 5 7 13 22 18 20 23 27 21 26 28 31 31 30 29 28 28
26 27 28 28 28 29 34 37 39 42 42 37 11 8 17 24 17 3 5 3 4 3 7 7 10 1 3 1 2 2 3 0 3 2 3 2 2 3 8 19 17 18 22 21 12 20 24 28 32 32 29 27 26 24
27 29 29 30 31 33 35 40 44 40 21 23 14 28 20 8 4 5 3 3 4 4 5 3 6 8 2 1 3 3 3 3 2 4 3 3 0 14 17 20 20 22 17 14 16 24 24 26 28 30 29 27 23 20
28 26 24 24 25 25 26 28 31 26 33 7 6 5 4 3 4 5 5 2 1 1 3 6 3 3 3 3 4 3 4 1 2 2 2 2 7 18 21 22 21 17 17 22 23 24 26 28 25 26 27 22 21 20
23 23 27 30 29 30 29 27 27 25 11 2 4 5 3 3 2 2 1 3 3 3 11 13 5 2 3 3 1 4 0 3 3 3 5 2 15 21 22 22 23 24 24 24 25 25 26 27 26 23 19 19 18 19
26 26 24 25 29 32 35 36 33 4 2 5 5 4 2 1 2 3 3 5 5 5 9 7 7 5 3 3 2 3 2 3 3 3 1 10 21 24 25 26 25 24 23 24 26 27 26 23 22 22 19 18 16 15
26 27 27 26 29 30 29 35 12 2 5 6 9 4 5 3 4 8 10 8 7 8 8 7 3 3 3 3 2 2 3 1 1 1 9 22 22 23 23 22 22 23 25 26 26 23 21 20 21 21 19 16 14 11
25 18 21 24 26 28 24 11 4 6 6 5 5 12 7 8 7 8 8 9 8 4 2 3 4 1 1 3 2 3 2 2 3 12 16 21 23 23 24 23 23 25 24 22 20 17 19 20 18 17 17 16 13 10
27 20 18 20 20 19 18 9 7 8 7 11 5 12 17 17 9 16 10 9 4 4 4 3 5 6 4 3 2 2 6 9 11 15 17 19 21 23 24 24 21 20 18 17 18 19 19 19 17 16 14 13 11 8
13 14 13 11 7 6 7 10 9 6 12 7 13 13 16 18 24 18 16 19 20 14 8 6 5 3 3 4 4 11 6 9 15 18 18 18 20 23 21 18 18 18 18 18 19 19 18 16 14 12 11 9 7 6
10 11 6 4 6 8 7 6 6 7 4 6 15 19 10 10 16 24 25 25 23 10 8 5 4 7 7 12 9 7 11 17 21 24 22 19 17 17 16 15 16 17 18 18 16 15 15 14 12 10 9 7 7 7
17 15 13 12 24 14 8 5 6 6 7 7 14 13 10 23 28 25 24 21 20 8 6 11 13 17 15 16 15 13 12 13 17 20 21 19 16 16 16 16 16 17 16 15 14 13 10 7 6 6 6 6 6 8
15 15 18 14 9 7 9 10 6 5 5 5 5 6 7 6 9 16 20 17 10 13 10 13 16 20 24 24 21 19 18 18 18 17 16 17 16 15 14 12 10 11 10 9 7 6 5 3 2 3 5 6 8 11
10 12 11 12 7 7 4 10 6 5 3 2 4 3 5 6 6 8 7 10 10 19 14 15 16 18 21 22 22 23 20 19 21 20 18 18 18 17 15 14 11 10 9 8 4 2 1 2 4 6 9 11 13 13
12 9 9 8 12 3 4 6 5 5 5 3 3 3 3 5 6 7 4 5 14 16 17 15 13 17 19 22 25 24 21 18 20 21 17 14 15 16 12 12 10 9 8 6 3 4 6 8 10 11 13 14 14 14
9 12 9 7 10 6 5 4 4 4 4 4 3 3 3 6 3 4 3 5 15 17 16 15 17 20 23 21 21 21 18 17 17 20 21 17 16 15 13 11 9 8 7 6 6 8 10 11 13 15 16 16 15 14
8 12 7 9 5 5 2 4 4 4 3 4 3 4 5 3 4 4 3 6 10 13 13 14 15 17 18 16 16 16 17 14 10 14 16 11 10 9 9 8 7 7 9 10 11 11 12 12 13 13 13 13 13 15
6 6 8 10 4 4 5 8 8 6 5 5 3 4 3 5 4 3 4 7 8 9 10 11 12 15 17 17 17 16 14 11 12 15 13 10 9 8 8 8 9 9 10 12 13 13 14 15 15 15 15 14 15 16
7 10 5 13 11 15 4 4 5 5 3 7 4 6 4 2 2 3 6 9 11 9 10 11 11 9 9 10 11 11 11 11 10 9 8 9 11 12 12 12 11 12 13 15 15 16 16 16 16 17 19 19 18 16
7 9 6 10 8 9 10 6 5 7 9 3 4 3 4 5 10 15 11 7 5 5 7 10 13 11 11 11 9 8 8 8 8 8 9 10 10 10 12 12 13 14 15 15 15 15 15 15 17 18 18 18 18 18
11 11 6 8 5 5 10 8 10 11 14 13 13 24 25 20 14 10 8 6 5 5 6 6 6 5 5 4 6 5 6 8 8 9 10 11 11 13 14 14 15 15 16 17 18 18 18 19 19 19 18 18 17 15
5 6 6 7 6 12 23 23 19 20 25 27 26 24 18 14 18 14 11 9 8 7 4 3 3 4 4 4 6 8 9 10 11 12 13 13 13 14 15 15 16 17 18 18 18 19 19 18 19 19 18 18 17 16
7 6 5 3 5 16 7 7 9 11 8 9 8 11 8 4 4 3 4 3 2 1 2 3 1 1 3 6 9 10 11 13 14 14 14 14 15 16 16 17 17 18 18 18 18 18 17 17 18 18 18 18 17 18
6 10 10 6 6 7 5 5 4 5 4 3 3 4 4 3 3 3 3 3 3 3 3 2 2 5 7 8 10 12 13 13 14 14 15 15 16 17 18 18 18 17 17 17 16 16 16 16 17 17 17 18 18 19

GFSWCAN_850_spd_060.txt.gz
Wind_Speed
9 6 15 27 31 38 35 67 68 66 56 54 57 57 58 60 55 47 46 42 21 8 9 14 18 23 24 29 6 5 11 5 3 5 4 4 3 6 4 4 6 7 7 3 3 2 6 11 5 9 8 4 21 24
7 9 7 32 31 48 66 63 61 52 51 56 62 52 57 54 47 42 40 49 13 12 5 6 17 24 38 39 28 22 7 8 13 4 2 3 1 1 4 4 2 3 5 6 9 7 3 20 5 16 7 9 21 27
28 27 44 57 58 54 54 47 47 49 53 54 53 53 50 46 42 37 49 46 16 13 10 6 12 20 24 20 33 14 12 6 9 9 5 3 3 4 4 5 3 4 5 3 2 4 5 11 15 11 15 18 24 25
33 34 37 40 41 44 46 46 46 48 48 48 45 47 47 40 36 36 43 43 11 11 2 3 8 10 9 17 22 29 12 20 6 6 3 3 3 7 3 4 5 5 7 6 3 5 8 12 14 15 16 18 22 22
34 35 36 36 37 37 38 37 38 38 40 41 41 40 37 37 35 26 36 38 25 5 2 6 4 6 5 13 18 18 25 18 10 4 2 3 4 4 0 1 2 7 8 6 8 15 11 10 21 22 23 24 23 24
30 29 29 29 31 32 34 35 36 36 38 37 36 36 34 31 37 35 12 24 34 34 6 4 5 2 4 8 16 23 23 24 14 7 3 4 3 4 4 4 5 19 13 19 3 11 14 16 27 26 26 23 21 20
24 25 26 27 30 31 34 36 38 38 39 37 35 35 36 39 40 29 8 15 25 22 3 4 5 0 2 2 4 10 21 15 12 7 4 5 3 6 2 3 4 4 8 13 11 18 12 25 17 25 25 24 22 20
21 21 20 20 24 28 32 35 36 37 36 38 35 37 35 41 34 12 8 13 29 11 2 2 3 4 3 3 1 3 8 9 4 6 5 3 4 3 3 1 3 3 8 13 18 7 13 23 26 25 23 24 25 24
23 25 27 26 23 23 36 37 33 31 34 34 38 40 39 26 11 11 21 31 24 9 8 3 2 3 1 4 6 5 4 2 3 2 2 5 2 5 5 5 11 12 7 12 9 13 19 27 27 26 26 27 29 30
31 33 36 36 37 35 37 39 36 35 41 47 48 17 8 11 23 38 21 10 8 8 4 3 5 1 2 4 3 5 5 2 2 2 8 2 3 5 11 12 16 14 8 17 23 17 21 24 26 26 27 28 29 33
27 27 28 30 33 39 43 49 53 50 45 19 6 7 27 29 13 5 5 5 3 2 6 6 15 3 2 3 2 2 3 0 3 2 4 1 3 3 9 14 16 16 14 18 9 17 22 26 34 32 28 26 27 28
22 24 25 27 32 36 40 44 45 26 9 9 18 30 19 5 5 4 3 3 4 5 5 3 6 7 7 6 3 1 2 1 3 4 3 2 2 3 11 17 16 17 19 9 7 18 20 23 25 26 27 26 27 26
19 19 20 24 27 32 42 28 21 17 26 24 10 5 5 2 3 6 7 3 2 3 6 6 2 5 5 3 5 2 1 1 2 1 1 2 4 10 16 18 19 17 16 18 21 20 20 22 22 23 28 27 26 24
20 19 19 19 19 22 28 22 23 25 10 1 5 5 1 2 1 0 2 3 3 3 10 11 4 2 4 3 2 3 1 2 2 1 2 1 11 18 22 23 24 22 21 21 21 19 18 22 26 27 26 23 22 22
20 16 15 18 20 20 20 21 21 18 6 3 3 3 3 1 4 5 7 6 4 11 11 9 6 4 2 4 2 2 2 2 2 1 2 7 15 19 21 21 22 21 20 19 20 22 25 27 27 25 20 20 16 16
21 20 20 22 22 20 20 20 13 4 4 4 8 4 6 4 4 7 9 8 7 8 6 7 3 3 4 2 3 4 2 3 2 2 3 14 14 17 19 18 18 18 18 21 23 25 26 24 22 21 19 17 15 13
24 17 21 25 24 22 18 15 9 3 5 5 5 16 9 8 9 8 9 10 8 5 2 2 4 4 2 3 3 4 3 3 6 7 9 12 14 16 17 17 16 18 21 24 24 21 21 18 17 19 18 16 14 12
21 24 23 27 27 31 21 4 3 6 6 10 5 13 20 19 11 17 13 16 6 5 4 3 4 5 4 3 3 3 6 9 8 9 10 11 15 18 20 22 23 23 22 20 18 18 17 18 16 14 12 12 11 9
25 26 28 31 32 11 5 4 5 5 11 6 11 14 14 16 26 23 18 20 23 15 9 6 6 4 3 4 5 13 12 6 16 21 19 17 19 22 24 22 20 19 17 16 16 17 16 13 11 10 9 8 6 5
18 23 26 24 14 4 6 6 6 8 5 7 14 22 13 13 19 26 27 27 24 10 9 5 4 7 7 12 9 8 10 16 22 27 25 23 21 20 19 17 16 15 15 15 15 13 11 9 8 7 7 6 5 5
17 15 13 13 15 12 8 5 7 6 8 8 14 13 10 24 29 23 23 21 19 8 5 11 13 14 12 13 13 15 14 16 20 24 23 23 20 20 18 17 15 15 14 13 11 11 8 6 5 3 3 4 6 7
15 14 16 14 8 7 9 11 6 5 6 6 6 8 7 6 11 19 20 19 9 12 10 13 15 17 22 24 23 23 22 23 23 24 23 21 22 21 20 18 15 16 15 13 10 8 6 4 2 2 4 5 7 9
10 11 11 11 7 7 4 9 6 5 3 3 4 4 5 5 7 9 7 9 9 15 13 13 16 20 24 25 25 26 24 25 28 26 24 24 24 22 20 19 16 14 13 12 9 7 5 5 6 7 9 11 12 13
12 9 9 8 12 3 4 7 6 5 5 3 2 3 4 5 6 7 4 5 14 15 16 14 15 21 24 26 28 27 26 24 26 26 23 20 21 21 18 17 15 13 12 9 6 6 7 9 11 12 14 15 15 15
10 12 8 7 10 6 6 4 5 4 4 4 3 4 3 5 3 3 3 5 15 16 16 17 20 23 27 26 25 24 22 20 21 25 24 20 19 16 15 13 12 11 9 7 8 9 10 11 13 14 14 15 15 15
8 11 7 9 5 5 3 4 4 5 4 4 5 4 5 3 4 4 3 5 9 11 12 15 17 19 21 20 21 21 20 17 16 21 21 15 14 13 12 10 9 10 11 12 12 12 13 14 15 15 15 15 15 17
7 6 8 10 5 5 6 8 7 5 5 5 3 3 3 5 4 3 4 5 8 9 10 13 15 18 20 20 20 20 17 15 16 18 15 11 11 11 10 10 10 11 12 13 14 15 15 16 16 17 18 18 18 18
6 8 4 11 11 13 4 4 5 5 3 6 4 5 4 3 2 3 5 8 8 9 10 12 12 13 15 16 15 13 13 13 12 10 9 10 10 11 11 11 12 13 13 15 15 16 17 17 17 18 19 20 19 19
7 5 5 9 8 9 10 6 5 6 8 3 4 2 3 4 9 16 11 8 9 9 12 13 16 13 13 12 11 10 10 10 9 8 9 9 9 10 11 12 13 13 13 14 15 16 17 18 18 19 20 20 19 18
9 9 7 8 5 5 9 9 9 10 11 11 12 21 22 19 14 11 9 6 5 6 7 9 11 6 7 6 7 7 8 9 10 10 10 11 11 12 12 13 14 15 16 16 15 15 15 15 15 15 16 16 16 16
5 7 7 7 6 10 18 22 23 23 25 26 26 24 16 12 15 12 10 9 8 7 5 5 5 6 5 5 6 8 8 10 9 10 11 11 11 12 13 14 15 16 16 17 17 17 17 17 17 17 18 17 17 17
7 6 6 4 5 16 5 4 6 7 5 4 6 10 7 4 3 4 4 5 3 2 4 5 3 3 4 6 7 8 9 9 10 11 11 12 13 14 15 16 16 16 16 15 16 16 16 16 17 17 17 17 17 18
8 13 11 6 5 6 7 4 4 4 4 3 2 2 3 2 3 4 6 5 4 4 3 2 1 4 6 7 8 9 9 10 12 12 13 14 14 16 16 16 15 14 14 14 14 15 15 15 15 16 17 17 17 18

GFSWCAN_850_spd_063.txt.gz
Wind_Speed
20 15 9 8 25 34 42 46 46 45 43 69 75 67 62 60 62 55 38 32 23 7 10 11 21 26 29 24 8 9 7 8 2 4 3 3 3 8 5 2 4 6 8 4 3 2 8 11 7 9 9 7 9 20
23 6 6 11 21 29 35 39 44 45 41 73 69 61 59 59 61 54 36 38 42 4 4 6 17 27 43 41 22 26 12 9 13 4 4 3 2 1 7 13 2 4 5 5 8 6 2 25 7 21 8 7 9 20
26 22 19 18 24 30 34 34 38 44 71 68 64 55 53 58 58 45 36 34 25 8 9 9 12 23 38 41 44 12 10 12 10 11 6 3 4 4 4 5 4 4 4 3 2 4 6 13 22 12 14 15 12 19
35 28 21 17 23 25 34 47 63 65 63 55 51 52 53 54 55 35 35 31 30 2 2 8 13 17 31 29 38 35 16 18 8 9 3 2 3 8 4 3 5 3 8 6 3 5 6 16 20 24 19 15 15 19
30 33 35 40 45 50 53 54 51 48 48 48 50 51 48 46 40 31 26 22 34 7 3 7 2 12 21 26 29 38 31 14 10 3 2 3 3 3 0 1 3 6 6 5 6 13 11 13 20 26 23 21 22 25
30 31 32 36 40 42 44 46 47 50 51 53 49 44 42 40 35 29 7 20 32 24 7 2 2 6 16 22 25 27 32 25 14 6 4 5 5 6 4 5 4 17 10 12 4 6 17 12 9 20 22 23 25 27
23 24 27 30 32 34 37 39 43 44 43 42 38 35 34 32 32 22 6 15 38 32 6 3 3 4 11 17 14 14 19 12 12 9 5 5 5 6 2 4 3 6 9 12 11 6 6 10 8 17 21 24 24 23
19 23 25 26 28 31 33 34 35 36 37 36 34 31 33 30 29 13 4 18 23 25 3 3 3 3 4 4 5 6 9 12 8 8 4 3 4 2 4 4 7 6 7 8 12 12 9 11 13 21 22 23 25 25
16 19 21 27 31 32 34 36 37 37 37 40 39 37 35 30 17 14 26 19 24 11 6 4 2 3 3 5 5 4 4 1 4 3 3 8 3 6 4 9 15 14 10 8 6 5 10 15 21 23 24 23 25 25
20 19 23 26 32 33 34 35 36 37 39 39 38 27 10 23 23 30 23 12 9 9 4 2 2 2 4 3 2 3 3 1 2 4 14 3 3 4 6 8 11 15 11 11 12 7 10 19 25 25 22 22 21 24
25 24 20 31 30 30 30 31 30 32 35 26 6 4 24 29 24 6 6 4 5 3 6 5 6 3 3 3 3 1 2 1 2 3 5 3 2 1 6 8 12 14 14 14 7 7 7 12 20 24 24 24 25 26
23 27 28 32 33 30 24 26 28 22 10 9 14 18 19 6 5 4 3 1 2 5 4 4 3 2 4 3 3 1 2 1 4 2 3 2 1 4 1 8 11 13 13 5 6 5 13 16 21 22 24 25 26 27
22 25 31 37 36 31 35 15 16 23 29 26 7 3 4 2 2 4 5 2 3 4 9 9 4 7 4 3 3 2 2 3 5 2 1 2 2 7 7 11 13 12 11 11 15 16 16 20 21 20 23 24 26 28
21 21 23 26 21 28 25 14 29 15 5 4 2 3 2 3 2 2 2 4 3 6 17 16 5 3 4 2 2 4 1 1 1 1 2 2 7 11 13 14 18 17 15 16 18 18 19 19 21 21 23 23 24 25
25 23 21 21 23 22 16 10 11 16 7 7 4 2 2 1 5 4 6 6 4 16 15 9 7 5 2 3 1 3 2 1 2 1 2 3 10 13 15 16 18 20 19 19 17 17 20 23 25 26 23 21 21 21
19 21 22 20 19 19 16 12 3 11 6 3 7 4 8 5 5 8 9 6 6 11 10 5 3 3 3 3 2 3 2 2 2 2 2 7 12 15 18 18 17 16 15 16 17 19 23 24 25 25 24 20 13 12
17 10 20 19 16 14 10 5 8 7 7 5 5 16 10 7 7 7 8 9 6 5 2 3 4 3 3 3 3 3 3 3 7 6 7 10 15 17 19 19 18 18 21 22 24 25 25 22 21 20 19 16 14 12
8 13 24 23 16 10 7 3 4 5 6 12 4 11 18 18 10 17 16 16 5 5 4 4 4 6 4 3 3 3 5 12 15 17 17 18 20 21 22 24 24 25 27 26 24 22 20 18 16 15 15 14 12 10
21 18 20 19 15 8 3 3 4 5 10 5 10 10 9 13 27 24 21 20 24 15 9 6 6 4 4 5 5 12 14 10 17 25 27 24 25 28 29 28 27 25 24 21 18 17 16 13 12 11 10 9 6 4
28 24 22 21 16 4 4 4 5 8 5 5 9 21 13 11 17 24 29 26 24 10 9 5 4 6 5 10 8 7 11 17 24 31 29 28 26 26 26 24 24 22 21 20 18 16 14 12 11 8 6 4 1 2
31 22 10 15 12 11 6 5 6 6 8 7 12 11 10 21 30 21 20 21 18 9 5 10 12 14 11 11 12 15 17 20 25 27 26 29 26 26 25 23 21 20 20 18 16 15 12 12 9 6 3 3 4 5
22 17 16 10 5 5 8 12 5 5 6 8 6 8 6 6 9 17 17 17 9 11 10 12 13 16 21 23 24 26 27 28 30 31 30 28 29 27 26 23 20 21 20 18 14 13 11 9 7 6 5 6 7 8
15 9 6 6 5 6 4 8 5 6 3 2 4 4 5 5 8 9 7 10 9 15 13 13 16 20 25 26 27 29 29 31 33 31 29 30 29 27 24 23 20 18 17 16 12 10 8 7 7 8 9 10 11 12
10 7 8 7 10 3 4 7 6 5 5 3 3 4 4 5 6 7 4 5 13 14 14 14 17 23 27 30 32 31 29 29 31 30 26 24 25 25 21 20 17 16 14 11 9 8 8 9 10 11 12 13 13 14
8 12 8 7 10 6 6 5 5 4 4 5 4 4 3 5 3 4 3 5 14 16 16 17 22 25 28 28 26 26 24 24 26 29 26 22 21 19 18 17 15 14 12 9 10 10 11 11 12 12 13 13 14 15
8 12 6 7 6 5 3 4 5 6 4 4 4 3 4 3 4 4 3 5 9 11 12 14 18 22 24 24 24 23 23 20 19 23 22 17 15 14 13 11 10 10 10 11 11 11 12 12 12 12 13 14 15 15
7 5 8 10 4 5 6 7 7 5 5 5 3 3 3 5 3 3 4 4 7 10 11 14 17 20 23 23 22 21 18 16 16 18 16 12 11 11 10 10 11 10 11 11 11 12 12 13 13 14 15 15 16 17
6 8 5 10 11 12 4 4 4 4 3 5 3 5 4 3 2 3 4 6 6 8 10 14 16 16 17 17 15 14 13 13 12 10 10 10 11 11 11 11 11 11 10 11 12 13 13 13 14 14 15 15 15 15
8 5 4 9 7 10 10 6 4 5 5 3 3 2 3 4 9 13 12 11 12 12 13 14 14 12 12 12 11 10 10 9 8 7 7 8 8 8 9 9 10 10 11 11 12 12 13 13 13 13 14 14 15 15
8 8 7 7 5 5 9 9 8 9 10 10 9 18 20 16 13 12 10 9 7 8 10 11 11 8 8 6 7 7 7 7 7 7 8 8 9 9 9 10 10 11 11 11 10 10 11 10 10 11 11 12 13 13
5 6 7 7 6 11 21 21 20 20 23 25 25 23 16 11 15 13 11 9 8 8 7 8 8 7 5 5 5 6 7 7 8 8 8 8 9 9 10 11 12 12 11 11 11 11 11 11 12 12 13 14 14 15
6 6 7 4 4 13 4 4 5 5 4 4 5 7 6 4 4 7 7 8 8 6 7 7 5 3 2 4 5 5 6 6 7 8 8 8 8 10 10 11 11 11 11 11 11 11 11 11 12 12 13 14 15 15
10 14 12 7 6 6 5 4 3 3 3 3 2 2 2 2 4 5 8 7 7 7 6 4 3 1 2 4 4 5 6 7 7 8 8 9 10 10 11 11 11 11 11 11 11 11 11 11 12 12 13 14 15 15

GFSWCAN_850_spd_069.txt.gz
Wind_Speed
36 36 28 28 24 25 34 41 38 38 43 52 49 51 50 49 50 67 47 57 44 26 15 24 19 20 30 31 17 27 21 14 11 12 9 7 6 8 9 14 4 10 9 5 8 8 12 11 10 11 13 16 8 9
34 24 21 24 24 27 33 42 45 40 42 46 53 50 53 53 54 63 36 55 41 28 13 11 21 12 32 38 33 32 25 23 15 10 7 9 5 4 8 9 18 6 6 5 7 5 8 20 13 20 9 7 9 9
28 13 19 18 14 12 14 35 46 40 43 45 51 52 49 47 74 52 40 44 35 23 15 10 15 12 21 31 38 24 30 27 27 27 8 5 5 7 5 8 6 11 18 8 11 6 14 11 14 14 7 10 8 7
22 12 16 17 20 20 28 37 41 40 41 48 46 46 49 66 62 41 40 41 36 13 3 7 13 12 14 33 34 27 28 36 25 21 7 4 5 11 8 9 10 10 6 11 18 19 23 18 16 15 13 13 12 12
19 9 16 19 23 26 30 33 36 42 42 40 41 50 62 64 47 34 32 36 32 18 5 13 6 13 17 23 34 28 24 33 14 10 5 6 8 4 2 4 9 10 11 9 8 11 11 17 4 7 14 16 14 12
19 16 13 17 21 29 31 32 35 37 40 35 45 63 66 50 46 44 17 26 25 12 4 4 5 8 17 23 23 33 41 25 22 20 11 15 18 13 4 8 14 24 22 20 15 7 6 6 9 10 7 7 10 13
24 20 19 18 21 22 27 29 26 34 38 41 59 66 53 41 37 21 8 18 19 13 2 2 2 3 16 19 27 26 27 21 14 18 6 12 15 9 4 9 11 12 18 15 8 8 9 7 2 8 6 4 7 7
25 30 33 26 24 24 30 40 53 60 65 63 60 53 44 35 28 17 12 20 27 11 3 2 3 3 15 6 9 25 23 19 11 8 5 8 9 5 6 14 21 22 12 8 9 8 9 4 3 2 1 1 6 7
25 33 33 36 41 49 54 50 49 54 56 59 53 45 38 24 9 12 23 24 12 6 6 4 3 3 12 15 10 17 15 8 4 7 5 6 6 7 7 15 18 15 13 12 7 5 3 2 2 2 2 4 7 10
25 30 32 40 42 43 46 48 53 55 52 49 37 13 6 10 30 26 5 5 7 8 5 3 5 3 8 4 3 3 6 4 5 5 9 5 9 13 13 2 5 1 8 7 7 4 2 3 4 5 6 7 9 12
25 30 34 39 38 38 41 41 40 40 30 16 6 6 26 31 8 4 4 4 4 3 4 3 3 2 7 6 4 5 3 3 5 3 5 4 5 3 9 2 1 4 7 5 5 6 5 6 9 11 12 14 15 18
27 28 30 31 33 37 40 44 27 11 10 11 19 24 15 5 2 4 5 4 4 5 6 6 6 9 12 6 5 4 3 2 3 5 3 3 2 10 6 3 6 7 8 12 12 15 15 15 15 15 16 18 19 20
28 28 26 26 27 30 35 24 25 34 29 18 7 5 4 4 5 5 7 4 3 4 8 8 4 5 2 4 3 3 3 3 8 2 2 2 3 7 5 5 10 12 13 14 16 15 15 18 16 15 20 19 20 21
19 23 26 25 25 25 26 22 21 14 10 5 3 3 3 2 1 3 4 3 4 5 12 12 3 1 1 2 3 4 3 4 3 4 3 2 3 4 8 11 15 19 20 23 24 23 23 23 25 24 25 25 28 29
19 15 17 21 18 15 10 9 8 7 5 5 6 4 5 5 5 7 5 6 6 5 11 6 5 5 4 4 3 3 2 3 5 3 2 4 8 12 16 18 22 25 27 29 29 30 31 29 31 32 29 29 30 28
21 18 15 16 16 14 13 11 8 2 5 5 7 3 11 2 7 11 16 8 11 4 3 6 3 3 3 2 1 4 2 4 3 3 5 10 15 17 20 24 26 29 31 33 32 31 32 32 32 31 29 25 22 19
12 11 10 8 5 7 6 8 5 8 7 5 5 16 9 5 7 8 11 13 12 6 3 1 4 4 1 3 3 5 4 4 9 10 13 17 22 23 25 27 27 28 30 31 31 29 29 27 26 25 25 21 19 18
8 9 4 2 3 6 18 12 6 7 7 10 5 15 15 14 14 15 13 17 8 5 5 4 3 5 5 3 3 3 8 12 15 15 18 23 24 24 26 29 29 29 30 30 29 27 24 23 23 22 21 19 18 16
15 12 6 8 9 7 6 8 7 5 11 6 8 10 8 11 17 19 21 17 17 15 8 6 6 4 4 5 6 9 10 12 16 20 26 27 28 29 30 31 30 29 28 26 26 26 25 22 20 18 15 14 14 12
12 10 8 9 8 7 5 5 6 6 4 4 5 14 13 12 14 17 23 24 20 9 8 5 5 8 7 9 9 8 13 16 18 22 23 24 25 26 26 27 27 27 27 26 25 22 21 21 19 17 15 13 12 11
11 15 21 12 20 11 5 4 5 5 6 5 8 6 6 13 25 20 17 17 16 8 4 10 12 10 10 10 10 16 19 19 19 20 22 24 23 25 25 24 23 23 23 21 21 20 19 18 15 13 12 11 10 10
11 8 8 11 5 5 6 9 6 5 5 8 5 5 5 6 9 13 16 16 9 12 9 9 12 11 15 18 19 20 23 27 29 30 27 25 24 24 23 21 21 22 21 19 17 17 16 13 11 11 10 9 8 8
11 7 6 6 5 6 3 5 4 5 2 3 3 4 4 5 7 8 7 9 10 15 13 12 14 18 20 21 25 27 25 27 29 29 28 28 27 25 24 21 18 19 19 17 14 14 13 12 10 10 9 9 8 9
6 6 7 6 8 4 4 5 5 4 5 3 3 4 4 5 6 6 5 6 11 12 14 13 11 15 20 23 24 23 23 24 27 26 23 24 24 22 20 19 18 17 15 13 12 11 11 10 10 9 9 9 9 9
6 10 7 7 8 4 4 3 5 4 5 5 3 4 3 3 3 4 3 5 12 13 13 13 16 16 19 20 21 23 22 22 23 24 19 18 18 17 17 16 15 14 11 10 11 10 9 9 9 8 8 8 8 8
8 12 7 8 5 5 5 3 5 6 4 4 5 3 3 3 4 5 3 7 8 10 11 11 12 15 19 18 18 19 17 15 16 19 16 14 12 11 10 10 9 10 10 9 8 7 7 7 7 7 7 7 7 6
6 6 8 9 5 5 5 7 8 6 5 5 3 3 2 4 4 4 5 6 6 8 10 12 14 17 18 18 18 17 15 14 15 15 14 12 12 11 10 9 8 7 7 6 6 6 5 5 5 5 5 5 6 7
7 9 6 8 8 12 4 4 5 5 4 6 2 5 3 4 3 4 5 6 8 10 13 16 16 16 16 15 14 13 13 12 12 13 12 11 10 9 9 8 7 6 5 5 4 4 4 4 4 4 5 5 6 7
8 5 5 8 7 9 10 6 5 6 6 6 2 3 3 5 6 8 7 8 10 10 12 13 13 13 12 11 10 9 8 7 6 7 7 7 5 6 6 6 5 5 5 4 4 4 4 4 4 4 5 6 7 7
6 6 6 8 5 6 8 8 8 9 7 8 11 17 17 10 9 10 8 8 8 9 10 10 9 7 7 7 8 7 7 6 6 5 4 4 2 3 4 4 4 4 4 3 3 4 4 5 5 5 6 6 7 7
4 5 7 7 6 9 10 11 13 13 14 15 11 13 12 7 6 7 8 9 9 9 9 8 8 6 5 5 4 4 3 4 3 3 3 3 3 3 4 4 4 4 3 3 3 3 4 4 4 5 6 7 8 9
6 6 5 4 5 6 2 3 4 5 4 5 6 5 5 4 3 3 8 8 6 7 9 6 5 5 3 2 2 2 2 2 2 2 2 3 4 4 4 4 4 4 4 4 4 5 5 6 6 7 8 9 11 12
10 12 11 7 5 3 3 3 2 3 3 3 3 3 2 1 3 4 10 11 11 7 7 6 5 3 0 1 1 2 2 2 2 3 3 4 4 5 5 5 5 5 5 5 6 6 7 8 8 10 11 12 13 14

GFSWCAN_850_spd_072.txt.gz
Wind_Speed
35 40 40 41 32 33 37 39 41 45 54 52 54 54 53 48 48 58 48 52 47 23 16 31 26 23 20 31 14 14 15 19 10 13 9 6 7 11 12 9 5 6 10 6 6 6 15 5 4 19 9 6 14 11
37 37 32 27 30 32 35 38 36 33 43 47 52 52 51 48 45 51 30 53 47 30 12 10 26 14 28 26 23 21 26 13 10 10 9 6 4 6 9 9 10 5 9 3 5 3 2 11 10 14 7 4 7 9
35 24 22 23 28 27 28 32 37 36 35 40 53 48 48 45 44 43 29 52 42 21 8 7 22 20 20 23 27 18 24 28 28 26 5 4 5 5 5 10 10 16 16 2 6 7 11 9 5 8 10 6 4 6
28 13 18 22 20 23 13 26 37 40 35 35 47 45 46 46 44 44 31 46 30 11 3 9 13 11 18 17 18 17 19 20 27 27 14 4 4 11 8 6 10 6 12 14 13 15 10 22 22 18 13 11 14 9
24 10 14 19 16 19 16 28 35 38 34 33 44 43 43 45 44 39 31 44 41 9 5 5 16 19 15 16 16 17 22 15 12 6 5 5 7 6 5 8 9 11 9 5 2 6 5 4 8 8 8 15 12 8
17 7 12 18 22 18 25 29 32 33 35 37 44 44 43 43 41 41 16 39 45 16 6 5 12 11 15 18 15 17 25 18 12 8 8 9 18 10 2 5 10 17 18 19 5 8 3 2 4 4 5 6 5 6
15 7 9 15 19 25 28 29 30 34 36 42 44 44 42 48 49 21 10 33 31 21 5 2 3 5 13 15 16 9 19 10 9 8 4 13 14 13 2 7 10 17 19 21 19 9 4 7 1 4 3 5 5 3
14 16 12 13 22 25 28 33 31 37 39 41 50 53 41 36 34 23 14 34 31 11 3 2 1 2 11 7 6 11 12 10 13 5 12 6 8 7 5 12 21 22 17 5 7 4 3 2 1 1 1 3 5 7
31 24 23 18 25 33 35 43 62 61 65 55 52 48 42 31 15 18 28 21 10 3 4 3 3 2 3 6 6 8 8 1 5 7 7 9 4 5 5 11 13 16 18 17 11 7 5 4 5 4 5 7 10 10
27 38 40 51 54 50 53 60 59 55 53 44 33 20 7 15 38 33 10 4 4 3 1 2 4 2 3 2 3 5 9 5 5 4 6 2 4 9 17 10 8 7 9 10 13 7 9 9 8 9 10 10 12 14
27 30 35 38 47 55 55 48 40 37 33 19 7 12 39 19 5 4 5 4 5 4 7 6 9 4 4 1 3 7 4 3 3 5 6 3 3 4 12 12 9 10 10 12 12 12 9 15 17 18 18 19 19 20
27 28 33 43 45 38 30 31 22 16 9 14 27 21 9 3 4 3 3 1 3 4 7 5 5 5 6 7 7 4 3 2 4 4 3 3 2 8 8 13 15 13 15 16 14 18 19 21 18 18 19 20 20 23
25 26 32 33 28 27 31 36 36 35 25 12 6 5 3 2 3 5 6 3 3 4 6 6 4 1 3 9 3 3 3 2 5 2 3 3 5 8 6 5 11 11 8 11 16 19 20 22 22 22 25 23 24 24
21 23 25 24 24 30 22 18 16 13 9 5 3 4 2 3 5 3 4 3 3 7 17 11 6 3 5 2 2 2 1 4 3 3 3 3 7 8 8 9 11 16 18 23 26 27 30 30 31 28 26 25 26 27
22 20 17 18 14 9 6 17 15 15 7 6 6 5 6 5 10 10 12 5 12 7 11 4 2 1 1 0 1 3 2 4 5 3 2 7 10 13 17 21 27 28 30 34 34 37 38 38 37 34 30 29 30 30
16 16 20 13 14 19 15 17 17 10 6 6 9 5 13 5 8 10 16 11 19 11 3 2 1 2 1 2 3 6 3 5 3 3 8 11 16 19 24 26 30 31 34 35 35 36 36 37 37 37 33 30 28 27
11 9 12 14 16 11 10 10 6 8 6 5 5 17 11 7 8 8 12 17 15 8 2 2 4 3 2 4 4 5 4 5 9 12 16 18 22 26 28 30 32 33 35 36 36 35 35 34 32 31 31 27 25 23
7 8 7 5 4 4 16 9 7 7 8 10 5 12 14 12 12 12 15 19 10 5 4 3 5 7 6 4 4 3 10 15 18 19 24 24 24 26 29 32 33 33 34 33 33 32 31 30 31 29 26 23 23 19
8 7 6 5 5 4 6 8 7 5 9 6 10 9 8 11 14 15 16 13 16 13 7 6 6 4 4 5 8 11 13 14 20 26 29 28 29 30 33 34 34 34 33 32 32 32 30 28 26 23 21 19 20 16
8 9 11 7 5 7 6 6 6 6 4 4 6 12 10 10 9 13 24 22 19 9 8 5 5 8 7 10 13 9 18 21 23 25 26 27 26 28 29 30 31 30 30 29 27 26 25 24 22 20 17 15 16 18
17 17 18 19 21 13 6 4 5 5 6 4 6 7 7 14 24 20 17 19 19 8 4 9 11 12 12 14 21 24 21 21 23 23 23 26 25 27 27 26 27 27 28 26 26 23 22 20 16 14 15 17 15 13
9 14 18 16 8 6 7 7 5 5 4 4 5 6 6 6 9 10 13 15 9 14 7 12 12 15 21 22 21 25 27 28 29 29 27 27 27 26 25 25 26 26 23 21 20 20 18 16 14 13 13 13 11 11
8 7 8 8 6 7 4 7 5 6 3 3 3 4 5 5 8 11 7 11 11 18 13 16 19 20 22 23 24 24 24 27 29 28 28 29 28 27 26 23 21 22 22 18 16 16 16 14 14 13 13 11 10 10
6 6 7 6 8 4 4 6 6 5 5 4 4 4 5 6 6 6 4 6 13 13 18 14 13 18 23 26 27 24 23 25 27 26 23 25 27 24 22 21 19 18 16 14 13 13 13 12 10 11 11 11 10 9
6 10 7 7 8 4 4 4 5 4 5 6 4 4 4 4 3 4 4 5 12 14 13 14 17 17 19 20 22 23 22 22 24 26 21 19 18 18 18 18 18 16 12 11 12 10 10 9 9 9 9 10 9 7
7 12 7 7 5 5 5 4 4 6 3 3 5 3 5 3 4 5 3 7 9 12 11 11 12 16 18 16 17 19 16 15 16 20 19 18 14 11 11 11 11 12 12 10 7 8 8 8 9 8 7 7 7 6
6 6 9 9 5 5 5 8 9 6 6 5 3 4 3 3 4 4 6 7 8 9 10 11 13 15 17 18 19 17 14 13 14 15 14 12 11 11 10 10 10 8 7 7 7 6 6 5 6 6 5 4 5 5
8 9 5 8 10 13 4 4 5 6 4 7 3 5 3 5 4 5 6 5 7 9 12 15 16 17 16 14 13 13 13 12 13 13 11 11 11 10 9 9 8 6 5 5 5 5 4 4 3 3 3 3 4 4
8 7 6 7 7 9 10 6 5 6 7 7 2 3 4 6 8 10 8 10 10 10 11 13 13 12 11 9 9 10 12 8 6 7 7 7 6 7 6 5 5 5 4 4 4 4 3 3 3 3 2 3 4 4
6 6 6 8 5 6 8 8 11 9 11 9 11 16 17 11 13 9 9 9 9 10 10 10 10 7 6 6 7 7 7 7 8 7 4 3 3 3 3 3 3 3 3 2 2 3 2 3 4 5 5 4 5 6
5 6 6 8 6 9 11 13 15 15 13 13 11 13 10 7 6 8 8 6 8 8 7 8 8 6 6 6 4 4 4 4 4 3 2 2 2 2 2 2 2 2 2 2 1 1 2 2 2 4 5 8 9 9
7 6 5 4 5 5 1 3 4 5 5 7 7 7 5 5 4 2 8 9 5 7 6 4 3 4 3 3 2 2 2 2 1 1 1 2 3 3 3 2 2 2 2 2 2 3 3 4 5 6 8 8 11 12
12 12 11 7 5 4 2 3 3 3 3 3 3 3 3 4 4 2 10 11 8 7 8 9 6 4 1 1 1 1 2 2 2 2 2 3 4 4 4 3 3 3 3 3 3 4 5 6 7 8 10 11 13 14

GFSWCAN_850_spd_075.txt.gz
Wind_Speed
33 36 37 38 41 42 42 41 40 42 46 49 49 47 48 48 49 48 47 51 42 22 13 40 23 20 21 18 8 8 12 14 2 5 4 4 4 8 6 6 4 5 6 6 4 4 4 15 2 8 5 12 17 5
35 35 38 39 31 32 35 36 38 38 38 40 46 48 48 48 48 46 25 49 52 17 17 22 29 26 29 21 6 19 12 10 9 4 4 3 3 2 7 5 3 6 5 4 4 4 9 9 7 5 1 6 5 6
32 36 35 27 30 32 37 38 39 39 39 41 43 47 48 49 48 47 37 28 44 18 9 21 23 38 24 27 23 3 13 13 18 12 4 4 4 5 2 6 4 3 5 4 3 5 12 11 11 9 9 6 4 9
32 31 18 24 28 29 33 37 39 38 36 39 40 46 53 50 49 46 38 34 33 12 4 10 23 30 31 19 23 15 19 22 8 25 5 3 2 9 5 5 5 5 9 7 4 7 19 16 9 12 19 15 11 12
26 13 14 21 19 21 17 5 21 30 32 30 32 47 48 47 44 44 31 31 31 11 3 13 24 23 27 21 17 13 12 9 3 1 1 1 3 6 3 3 5 6 7 6 6 15 10 6 13 16 23 17 16 7
16 9 12 18 12 14 17 20 29 30 28 30 39 42 43 44 43 44 12 28 37 16 5 3 12 21 20 20 13 11 7 8 3 4 1 5 7 9 3 5 6 22 17 10 5 8 14 13 7 4 6 6 6 3
5 9 11 16 15 18 20 24 25 26 29 35 42 43 44 43 44 16 9 27 36 16 5 2 3 10 15 10 7 7 9 8 8 4 6 2 4 11 11 4 6 16 13 14 15 13 7 11 8 5 2 1 2 2
9 8 12 17 22 20 22 27 28 33 40 42 42 40 40 40 29 7 11 38 27 10 6 3 1 4 7 5 4 8 6 9 7 4 5 2 8 3 5 6 18 16 15 5 5 8 12 14 9 5 6 6 10 14
21 14 14 18 20 27 31 34 37 39 41 44 43 47 39 27 8 23 35 45 9 6 5 2 4 3 5 3 6 6 7 2 4 3 3 7 3 4 5 7 13 19 26 19 14 11 14 16 13 12 12 12 18 20
24 32 33 32 39 37 32 40 44 44 46 52 33 11 6 18 39 33 10 5 6 3 2 2 6 3 4 4 2 4 5 3 4 5 14 4 5 4 17 16 15 15 11 15 23 17 22 20 22 20 18 17 18 19
50 48 49 48 43 38 41 36 28 29 26 16 11 13 25 22 14 6 4 3 2 2 4 4 4 5 5 3 2 4 3 3 3 3 7 2 4 3 8 19 18 17 21 20 18 19 19 20 23 22 23 22 21 23
36 38 35 35 30 28 29 28 29 28 24 28 28 17 8 5 5 5 2 1 2 4 5 4 4 6 7 6 3 4 3 2 4 9 2 3 2 8 7 12 16 14 13 19 21 25 23 22 21 23 25 24 24 26
32 34 34 32 32 31 35 40 40 33 17 10 6 5 3 4 4 4 5 1 1 2 6 6 3 6 5 5 2 3 4 3 2 3 2 3 6 8 6 8 11 10 9 12 18 20 21 22 22 23 27 26 28 29
26 28 29 26 24 22 19 16 12 10 7 8 5 5 4 4 4 3 3 2 3 2 15 17 5 3 5 3 2 4 1 2 4 5 3 2 7 7 8 9 11 15 16 21 24 25 29 31 31 32 32 31 30 30
13 14 13 13 19 15 11 9 8 8 8 7 7 5 5 5 8 10 12 6 14 4 6 4 4 6 2 2 3 2 4 4 5 3 2 9 11 16 20 22 26 29 32 34 34 35 35 35 35 34 33 32 34 34
19 19 17 13 10 12 11 9 13 11 7 6 10 4 10 4 7 11 16 12 18 9 3 3 1 2 3 3 5 6 4 4 3 2 11 16 20 23 25 28 31 34 36 38 38 38 39 40 40 40 38 36 34 32
14 16 13 13 11 11 9 14 9 10 7 6 5 17 10 6 8 9 13 17 16 7 2 2 4 4 3 3 4 4 3 3 8 14 20 23 27 29 31 33 34 36 38 39 40 40 41 39 37 37 37 32 31 28
9 8 6 2 7 9 22 12 8 8 8 9 4 12 16 16 13 13 17 19 11 5 4 4 6 7 5 4 4 3 11 19 22 23 26 29 31 33 33 35 36 38 40 39 38 36 35 34 34 33 29 26 25 23
7 7 6 4 2 4 6 7 8 5 9 5 10 11 9 14 20 18 20 15 17 14 8 6 6 4 3 5 4 9 15 17 22 28 32 32 33 34 35 35 35 36 36 36 35 35 33 31 29 25 22 20 22 19
5 9 6 4 2 5 6 7 6 7 4 5 9 18 13 11 13 17 26 23 20 9 8 5 4 6 6 11 11 16 21 22 26 28 27 31 31 33 32 32 32 32 33 32 30 28 28 27 24 23 21 20 20 18
11 9 8 15 19 12 7 5 6 6 7 6 9 8 8 21 31 24 19 21 17 8 4 11 14 12 12 18 23 22 24 25 24 26 26 30 29 30 30 29 29 29 29 28 27 25 23 22 20 18 19 19 16 14
9 9 10 10 7 6 7 7 8 10 5 9 6 7 6 5 9 17 23 21 8 11 11 14 15 16 19 22 26 27 27 28 30 31 30 29 30 29 27 26 26 27 26 24 23 24 22 19 18 15 14 15 12 12
5 7 8 9 7 8 4 7 3 4 3 4 6 3 4 4 7 9 7 12 11 11 13 15 17 20 22 20 21 24 26 28 30 29 28 29 29 27 25 24 23 23 23 20 18 19 19 16 15 14 13 12 10 11
8 8 8 7 10 3 4 7 6 5 5 3 3 3 3 5 10 6 4 6 12 16 15 12 15 21 24 26 26 25 24 27 29 29 27 27 27 25 22 21 19 18 17 17 16 15 14 13 14 14 12 10 9 9
7 11 8 6 11 6 5 4 5 4 4 5 4 4 3 4 3 3 3 5 16 13 13 16 19 21 23 24 23 23 23 25 27 27 21 18 21 20 20 20 19 17 11 12 12 11 13 12 11 9 9 9 8 7
8 13 7 8 5 4 4 4 4 6 4 3 4 3 4 3 5 4 3 7 12 12 10 11 15 18 20 19 20 20 18 17 19 22 19 15 13 13 16 16 16 15 10 9 8 9 10 9 9 10 8 7 6 5
6 5 9 11 6 5 6 8 10 5 5 5 3 5 3 5 4 3 6 8 9 9 9 11 15 19 20 19 18 17 14 12 12 15 14 11 10 10 9 10 12 11 8 5 6 6 7 8 5 4 6 5 4 3
8 10 5 10 10 16 4 4 5 6 4 11 5 6 3 4 3 4 5 4 5 10 14 17 18 18 19 17 16 14 14 13 13 12 12 13 12 11 9 9 9 8 7 5 4 3 3 4 4 2 2 2 2 3
6 4 5 8 8 9 11 5 5 6 10 7 2 3 4 8 8 9 10 11 11 11 13 13 12 11 11 9 9 8 9 9 7 4 6 9 7 7 7 6 5 4 6 6 5 5 4 4 3 2 1 2 3 5
7 6 6 9 5 5 8 7 8 14 15 11 13 21 20 19 15 10 10 9 11 12 11 10 7 7 9 8 9 7 6 5 3 2 2 3 3 3 4 4 3 2 2 2 3 4 3 2 1 0 1 3 3 5
5 6 7 7 5 7 16 17 18 17 17 17 13 16 11 8 9 8 7 4 4 6 7 7 6 6 4 4 5 5 5 4 3 2 1 2 3 3 2 2 2 2 1 1 1 1 0 2 2 3 5 7 7 7
6 5 7 4 4 7 6 4 3 5 5 7 6 8 6 5 4 2 7 7 5 4 3 3 2 4 3 1 2 2 3 3 3 3 4 5 4 3 2 1 1 1 1 1 2 1 1 2 4 5 6 7 10 11
15 15 13 8 6 7 3 3 3 3 4 3 4 4 4 4 4 3 9 6 7 7 5 3 1 1 2 2 2 3 3 3 2 2 2 3 3 4 4 3 2 1 2 3 3 3 3 3 4 6 7 8 9 10

GFSWCAN_850_spd_078.txt.gz
Wind_Speed
30 32 34 34 35 36 35 37 39 40 41 42 42 41 40 42 43 44 45 41 44 18 14 34 30 23 24 20 6 6 5 7 2 5 4 4 4 7 5 5 6 5 4 2 3 1 6 6 10 6 6 8 7 1
31 32 34 35 36 38 38 38 35 35 39 43 44 44 43 44 44 43 30 34 48 29 6 31 40 38 32 28 17 17 6 3 11 3 1 2 2 2 5 5 5 5 7 3 5 6 5 9 1 15 12 3 7 10
30 33 34 35 33 30 31 34 37 37 34 37 38 42 47 46 45 44 38 34 44 30 10 26 32 39 36 36 22 11 11 7 3 6 5 3 4 4 2 8 4 3 2 4 4 8 11 16 12 12 14 6 5 8
30 30 31 21 22 27 33 33 36 41 43 40 38 40 43 48 46 42 40 40 36 12 5 11 32 40 39 23 24 27 22 14 11 11 3 3 3 6 4 7 4 5 6 4 3 6 7 15 16 13 13 12 5 5
30 23 14 17 23 22 24 27 31 38 42 40 42 38 40 49 45 44 38 38 36 12 3 9 28 30 44 32 18 21 20 18 13 3 1 3 2 2 1 3 5 7 6 4 5 13 9 9 5 12 13 15 13 11
12 9 10 14 10 10 12 10 7 21 37 39 39 40 40 42 48 42 14 30 36 27 3 3 19 23 29 36 30 21 17 16 12 1 3 5 3 3 2 3 6 22 19 20 12 26 23 16 7 8 15 12 8 7
7 10 11 8 7 7 12 15 15 23 31 37 40 41 41 45 53 31 12 18 37 24 2 3 3 19 29 30 30 21 16 12 12 7 7 5 3 5 2 4 6 30 31 28 24 14 8 18 8 7 10 9 6 4
6 11 13 10 12 11 13 17 23 29 29 34 41 42 53 53 44 14 10 23 32 12 6 3 2 5 18 7 5 11 7 8 6 7 5 3 3 4 5 3 8 23 40 34 20 16 13 15 17 12 11 10 10 10
16 13 16 14 16 23 31 34 41 45 47 51 55 53 44 31 17 12 32 33 10 3 4 3 4 3 11 4 6 5 4 2 1 2 3 8 4 6 4 1 9 25 25 27 13 13 19 19 18 17 13 12 15 19
28 30 25 32 33 30 34 37 43 45 45 50 42 14 9 8 27 40 16 6 5 2 2 2 5 3 6 3 2 3 2 2 2 5 9 3 4 11 8 4 4 15 23 12 21 16 22 21 21 20 16 16 18 21
35 39 35 32 34 37 33 38 41 41 40 16 5 8 30 34 20 4 4 4 3 2 1 4 5 4 4 3 3 4 3 2 3 4 6 3 3 3 11 6 3 9 6 7 20 22 21 23 24 22 22 22 23 25
36 34 31 27 23 25 32 27 20 21 15 18 19 15 8 5 4 4 2 2 3 4 2 4 5 6 6 4 3 4 3 3 5 6 3 3 1 4 7 8 9 3 7 12 20 23 23 23 22 24 26 27 27 28
33 30 34 34 31 27 27 33 27 18 12 9 6 5 7 5 7 5 2 2 3 1 5 5 4 5 5 3 2 2 5 6 4 4 1 3 4 3 5 9 10 4 15 18 22 23 23 25 26 27 31 31 32 34
21 23 25 28 27 26 23 14 7 5 5 7 5 6 4 4 4 4 4 2 3 4 12 15 5 3 4 2 2 3 3 2 5 2 3 2 2 3 5 11 14 14 18 21 23 23 25 27 30 31 34 34 35 36
17 19 15 14 10 9 7 6 4 3 8 8 7 5 5 3 7 8 9 6 10 5 5 5 4 4 2 2 3 2 2 3 4 2 2 5 7 13 17 19 21 21 22 24 25 29 32 34 36 37 34 34 34 36
8 10 11 9 6 1 4 7 10 11 7 7 11 5 9 3 6 10 16 8 15 7 2 1 2 3 2 2 4 5 2 3 2 2 9 14 18 20 22 23 25 27 30 33 35 37 38 39 40 42 41 39 36 34
11 14 9 11 13 5 3 6 9 10 8 6 5 16 9 4 6 8 12 16 14 5 2 2 4 3 2 3 3 4 3 2 6 14 18 21 24 26 27 28 30 32 36 38 39 40 42 41 40 38 38 34 32 30
9 7 4 3 8 6 25 12 8 9 8 10 4 11 18 17 12 13 17 20 11 6 5 4 5 6 4 3 3 3 8 18 21 22 23 25 26 28 29 33 34 37 39 40 40 40 38 36 36 35 32 29 28 26
10 7 6 5 9 6 7 8 8 5 11 5 7 8 8 13 20 20 18 13 17 14 7 6 5 4 3 3 3 7 11 16 22 26 28 28 30 32 33 35 37 37 37 36 35 33 32 31 30 27 25 24 26 23
10 12 8 4 4 6 6 6 6 8 4 5 10 18 12 10 14 19 25 21 19 9 7 5 4 5 6 10 5 8 19 22 28 27 25 27 28 31 32 33 33 32 33 32 31 29 28 27 24 23 22 21 22 21
7 12 15 11 18 13 7 5 7 7 10 6 9 7 6 14 26 22 17 18 16 8 3 10 12 12 13 19 20 20 20 22 22 26 25 28 26 28 29 29 30 30 30 28 28 26 25 25 23 19 18 18 17 16
11 13 12 11 8 7 9 10 9 8 6 10 6 6 6 5 8 16 18 17 8 11 8 12 16 15 17 20 20 19 20 21 24 26 26 26 27 26 25 25 26 27 27 26 24 24 23 20 18 16 15 16 14 13
6 6 7 10 8 9 5 8 6 7 3 3 4 3 4 4 7 10 7 10 8 12 12 13 15 18 20 18 19 21 21 23 25 25 24 25 25 24 24 23 22 23 23 21 19 20 20 17 15 13 12 11 11 12
8 7 7 7 9 2 4 7 7 6 8 4 3 3 4 4 5 6 4 6 11 10 10 9 11 15 17 18 21 20 20 21 25 25 23 24 25 23 21 20 18 17 17 17 15 15 14 13 12 11 11 11 11 11
7 11 8 7 10 5 5 4 5 4 4 4 4 4 3 6 3 4 3 7 14 10 8 8 12 17 21 20 19 18 18 20 23 24 19 19 20 19 18 17 17 16 12 11 13 12 13 11 10 10 9 8 8 8
8 13 7 7 6 5 4 4 4 4 3 3 3 4 4 3 4 4 3 6 10 8 5 7 13 16 18 18 19 18 17 15 16 20 18 14 12 13 15 16 15 13 10 8 8 11 12 11 10 9 8 6 5 4
6 5 8 11 5 5 6 9 9 6 5 5 3 4 4 5 3 3 4 4 6 5 5 7 11 14 16 15 14 14 12 9 10 15 14 10 10 9 7 8 10 10 8 6 6 7 8 10 9 8 6 6 4 2
7 9 5 11 11 15 4 4 4 5 3 8 4 6 3 3 1 2 3 4 4 8 14 15 16 16 17 17 16 15 14 12 11 10 10 11 11 9 8 7 8 8 5 5 4 5 4 5 6 6 5 4 4 3
7 5 5 7 8 9 9 3 4 5 7 3 3 2 3 4 3 7 8 7 7 8 11 11 11 9 9 8 7 5 5 6 6 6 5 9 8 6 6 6 5 5 6 6 6 7 6 4 4 3 2 1 1 1
5 5 7 8 5 5 9 6 7 10 11 13 13 21 21 18 12 11 10 9 9 9 9 8 8 7 5 3 3 4 3 2 2 1 2 3 4 5 3 2 2 4 5 5 4 5 4 4 4 3 2 1 2 5
5 6 7 7 5 8 16 19 21 21 20 21 21 22 15 11 14 10 7 5 4 5 4 3 4 5 4 4 2 1 1 2 2 2 3 3 3 2 2 2 2 1 2 3 4 4 3 2 2 1 2 3 3 5
6 6 7 4 4 11 10 2 6 9 7 9 7 9 7 4 3 4 5 5 5 4 3 1 1 1 2 2 2 2 2 2 2 2 2 2 2 2 1 0 1 1 1 1 2 3 3 4 4 4 5 5 5 6
17 16 13 8 6 7 5 4 3 4 3 3 2 3 3 3 3 4 5 4 4 2 0 1 1 1 2 2 2 2 2 1 1 1 2 3 2 2 1 0 1 1 1 2 2 2 2 3 4 4 4 4 5 7

GFSWCAN_850_spd_081.txt.gz
Wind_Speed
30 31 31 31 31 32 32 32 32 32 32 32 32 32 33 34 36 42 43 37 43 8 14 29 31 21 19 24 6 4 5 3 5 6 5 4 3 6 5 4 4 5 5 2 2 4 5 2 4 1 1 18 10 4
32 31 30 30 31 33 34 33 32 32 32 34 35 34 34 35 36 38 32 42 42 26 5 29 36 36 40 36 27 13 6 4 9 4 3 2 3 1 5 6 4 6 5 4 5 3 27 18 5 4 7 10 12 5
32 29 30 31 31 31 33 34 34 35 37 37 39 39 39 39 38 40 36 31 35 34 18 24 28 38 36 36 33 14 15 22 11 5 3 3 3 4 4 4 6 4 5 4 4 9 20 33 21 15 8 19 24 15
31 31 31 32 33 30 28 28 30 31 32 34 35 37 42 41 42 41 42 27 35 7 3 4 39 38 41 36 31 29 23 13 14 11 2 2 2 5 4 5 5 5 4 6 4 5 15 24 21 22 16 12 19 16
29 26 21 17 20 22 25 28 31 34 37 38 40 37 39 43 42 38 40 35 33 16 4 6 22 41 38 43 40 34 33 28 21 4 2 2 3 2 2 1 4 5 4 3 5 9 7 15 22 16 11 17 15 12
12 10 11 14 19 15 18 20 24 28 36 40 41 41 37 41 47 39 16 35 38 37 7 3 10 30 35 40 39 29 24 23 21 6 3 3 3 2 1 6 7 19 18 8 3 24 28 30 24 17 8 2 4 7
7 10 11 8 11 11 17 18 18 22 34 41 42 42 36 39 51 36 14 14 41 31 7 1 1 14 40 33 34 31 25 14 10 12 5 6 6 5 3 5 4 9 14 18 25 28 20 18 13 11 8 1 2 1
8 9 6 7 7 6 10 3 6 15 35 44 43 42 37 44 39 22 7 11 42 25 8 3 3 6 22 10 11 27 19 18 5 5 4 3 3 3 4 4 12 13 15 20 21 16 21 23 12 10 10 13 17 12
10 13 14 18 21 22 12 13 25 33 39 43 44 40 45 30 15 16 16 33 36 7 4 1 3 3 17 6 7 10 9 3 3 2 3 7 4 6 6 10 14 12 10 18 21 18 14 11 14 14 13 10 9 14
23 24 24 24 28 38 46 46 37 44 50 53 53 18 7 13 36 34 24 15 9 8 2 1 4 3 11 5 2 3 3 2 2 4 3 2 5 15 23 18 14 13 14 12 9 13 17 17 16 14 13 15 14 18
24 24 33 29 33 35 39 48 52 35 26 20 7 8 43 44 26 5 4 2 4 4 7 5 5 5 3 3 3 2 3 3 3 4 6 3 3 3 2 5 6 7 10 11 13 21 21 25 25 20 19 19 21 23
22 24 23 28 26 26 30 28 14 23 28 20 23 26 21 6 5 3 2 3 3 4 2 4 4 5 5 4 4 2 3 2 5 5 3 3 2 7 4 1 2 4 5 4 11 17 21 22 21 21 23 24 25 26
25 23 21 21 21 28 21 29 22 21 16 21 10 5 0 3 5 3 3 2 3 2 5 6 4 4 4 5 3 2 4 4 2 4 2 2 4 6 5 3 4 4 5 8 13 19 23 26 24 24 29 30 32 34
18 20 20 23 19 14 10 6 8 8 2 7 5 6 4 5 4 2 3 2 2 5 17 13 5 3 4 2 2 4 4 2 4 3 1 2 7 6 4 5 8 11 12 16 18 23 25 30 30 29 30 32 35 37
12 11 11 12 7 3 1 4 7 3 7 8 8 5 5 4 7 8 8 5 9 7 6 7 6 4 2 3 0 1 1 2 2 2 2 6 6 6 9 10 12 15 18 23 22 26 28 32 35 37 34 33 34 35
7 5 7 12 9 5 4 4 9 11 7 7 10 4 9 4 7 10 15 8 12 6 6 4 3 3 3 2 3 3 2 1 1 1 4 6 8 9 10 13 16 19 22 26 29 32 35 38 41 44 41 38 37 36
2 4 7 11 17 12 1 3 8 10 7 6 5 15 7 4 5 9 13 16 10 5 2 2 4 3 2 3 3 3 2 2 5 11 10 11 13 15 16 19 22 25 29 32 36 37 40 41 42 43 42 36 35 32
7 7 6 6 8 3 27 12 8 9 8 12 4 10 17 15 12 14 16 20 8 5 5 4 4 6 4 3 2 3 6 15 19 18 18 17 18 20 22 27 29 32 34 36 38 39 41 41 41 39 37 34 33 30
11 9 6 7 9 6 7 8 9 6 10 6 7 10 8 14 22 20 18 15 20 14 8 6 5 3 3 3 3 9 8 12 18 22 21 20 22 25 28 30 32 34 36 35 35 34 34 35 36 33 31 28 28 24
11 13 12 9 5 6 6 7 7 9 5 6 9 18 15 13 16 22 27 24 22 9 7 5 4 5 7 11 6 3 12 18 22 24 22 22 22 25 26 29 30 30 32 31 31 31 31 29 26 25 23 22 22 22
8 13 14 19 24 13 8 5 8 7 9 6 6 4 8 13 25 23 18 20 17 8 3 10 12 11 9 12 13 12 14 14 15 19 22 22 21 24 25 24 26 27 28 27 27 26 25 25 23 20 19 20 19 18
11 11 12 12 9 8 10 11 9 7 6 9 5 6 6 5 8 16 19 19 8 10 8 11 13 14 14 14 13 12 12 12 17 19 20 21 23 22 22 22 23 25 25 24 23 23 23 21 19 17 16 17 15 15
5 7 8 10 7 7 5 7 6 6 3 3 4 4 4 5 7 9 7 10 8 13 10 10 11 12 15 13 12 14 13 15 19 19 19 20 21 20 20 20 20 21 22 20 17 17 18 16 14 13 14 13 12 14
7 8 8 8 11 3 5 7 6 6 6 3 3 3 4 4 5 6 4 5 13 12 10 8 6 10 12 13 16 16 15 15 19 20 19 20 21 20 19 19 17 15 15 15 14 15 15 14 13 12 12 12 12 12
7 11 8 7 12 6 6 5 5 4 3 4 4 4 3 5 3 3 2 6 14 14 11 8 9 12 17 16 15 14 12 15 18 20 17 16 18 18 17 16 15 14 11 9 11 11 12 12 11 11 11 10 10 10
8 13 7 5 6 5 4 4 5 5 4 4 4 4 5 3 4 4 2 6 9 10 8 8 11 14 16 15 16 16 15 13 14 18 16 13 12 12 13 13 12 11 9 5 6 8 10 9 9 9 9 9 8 7
6 4 8 10 5 7 6 8 8 6 5 4 3 4 4 5 3 1 2 6 6 7 5 6 8 11 13 14 14 13 10 8 8 12 12 10 10 9 7 7 8 9 9 7 6 5 5 7 7 7 6 6 5 4
7 8 5 10 10 11 4 3 4 3 2 5 4 4 4 4 2 2 2 4 5 7 10 12 12 12 12 12 12 11 11 10 9 8 7 7 7 6 5 5 5 7 7 7 7 7 6 5 5 4 4 3 2 2
8 5 5 7 7 8 9 3 3 4 5 2 4 2 3 4 3 5 5 4 5 5 7 9 10 8 8 7 7 6 5 6 5 3 1 4 4 4 4 4 3 3 4 4 5 6 6 5 5 4 4 4 3 3
5 6 7 6 5 5 10 8 8 10 11 12 11 19 20 17 13 11 10 8 6 6 5 4 4 6 5 3 3 4 3 3 3 3 3 1 2 3 4 3 2 1 2 3 2 2 3 2 3 3 3 4 4 4
5 6 7 7 6 11 21 19 21 22 24 24 23 20 14 10 12 8 6 5 4 3 3 4 4 4 5 4 3 2 2 2 2 2 2 2 1 2 1 1 3 3 3 3 3 3 4 3 3 3 4 4 5 6
6 6 7 4 4 12 5 7 8 8 6 6 6 8 6 3 3 4 4 4 3 2 2 3 2 2 3 3 3 3 2 2 2 2 2 2 2 1 1 1 1 1 1 2 2 3 4 4 5 5 5 5 6 7
13 16 13 8 5 6 5 3 3 4 3 3 3 3 2 2 2 3 4 5 3 2 2 3 3 2 4 3 3 3 3 3 2 2 2 2 1 1 2 2 2 2 2 2 2 3 4 5 5 5 6 6 7 7

GFSWCAN_850_spd_084.txt.gz
Wind_Speed
35 33 33 30 30 32 31 29 27 27 28 28 30 28 27 30 40 45 48 38 46 12 19 27 29 20 22 26 5 5 6 5 5 7 4 4 3 5 4 5 3 6 5 4 4 5 7 5 13 6 5 16 17 14
33 33 30 33 31 31 31 31 31 31 31 30 31 31 32 32 30 34 32 41 37 30 5 29 32 35 34 33 24 13 5 4 7 3 3 2 3 0 5 3 4 5 6 3 6 4 4 9 10 31 24 23 16 18
33 33 36 36 33 32 31 31 31 32 32 32 34 35 35 34 33 33 30 29 35 28 20 30 18 35 31 32 32 18 12 13 5 6 2 2 3 4 4 5 6 4 4 4 1 6 12 18 19 30 23 27 14 19
35 35 34 33 33 33 32 32 33 32 32 33 34 34 35 35 33 33 34 29 36 11 4 5 29 30 37 36 35 35 29 17 19 9 7 2 2 5 4 5 6 7 3 5 6 12 22 25 17 17 26 21 20 9
33 33 30 23 23 27 29 32 33 32 32 34 36 38 38 37 35 31 31 30 29 15 4 6 14 25 43 42 41 39 36 22 17 0 2 3 3 2 2 2 3 7 7 4 6 13 4 15 26 31 22 18 9 9
24 14 15 16 17 20 23 25 25 27 30 33 33 31 36 38 35 35 15 35 36 21 4 1 7 15 34 39 42 35 33 27 18 6 3 6 9 5 3 3 5 18 20 10 4 15 23 31 32 14 8 6 1 3
11 14 17 16 15 17 20 23 25 26 27 28 33 33 31 35 41 34 8 9 36 29 1 1 2 4 26 26 33 28 25 19 14 7 6 5 6 7 2 4 5 11 14 17 18 22 19 23 14 23 11 7 10 10
8 7 8 8 11 12 12 17 23 29 33 34 34 37 36 33 39 26 9 9 35 23 4 2 3 2 21 8 10 26 16 14 7 5 6 3 2 4 4 6 23 29 31 30 28 20 18 23 20 14 8 13 6 7
13 13 12 14 12 9 5 3 9 23 32 35 40 39 33 28 16 23 9 31 29 10 5 4 3 3 18 5 7 9 12 3 8 3 3 5 3 6 8 14 22 24 22 24 17 18 18 16 14 10 10 10 11 13
25 24 28 39 24 22 20 25 32 38 42 46 45 16 8 16 36 39 21 7 8 5 4 2 5 2 10 4 2 4 6 3 3 5 5 3 4 8 10 15 19 17 17 18 16 14 12 13 14 14 13 12 12 16
26 26 25 36 36 27 24 46 50 51 44 25 7 10 52 43 25 6 5 5 6 4 9 6 7 3 7 3 3 7 3 3 3 3 6 3 4 1 5 8 11 13 11 13 18 22 22 21 19 17 16 15 18 19
21 23 18 17 23 37 32 36 28 25 23 27 28 32 22 7 4 3 3 2 2 4 5 4 6 5 6 4 2 2 3 2 4 5 3 3 2 7 8 8 9 9 9 10 9 10 9 14 17 18 20 22 24 25
14 15 17 14 23 27 34 36 38 43 44 26 10 6 5 6 4 2 4 2 2 2 6 6 4 4 5 4 2 2 4 5 5 3 3 2 7 10 10 8 6 5 4 5 4 6 10 15 18 21 26 27 31 34
13 12 12 15 16 17 17 13 21 20 9 9 6 6 3 4 3 3 3 3 4 3 12 13 5 2 3 2 2 3 3 2 3 3 1 3 9 8 7 5 2 1 3 5 8 12 16 19 23 25 29 32 36 38
13 10 9 6 13 14 15 9 13 15 6 6 7 5 4 3 7 8 6 4 6 3 4 7 6 4 2 3 2 1 1 1 1 2 2 6 7 7 7 5 5 7 9 12 14 17 22 27 29 31 33 36 39 40
5 7 11 13 10 6 2 4 11 10 8 7 10 4 9 3 6 10 13 7 11 3 0 4 3 3 3 2 4 3 2 1 2 2 5 5 7 7 6 6 9 12 15 20 24 26 28 31 34 35 35 40 40 39
3 4 7 8 16 12 3 5 8 10 7 6 5 15 8 5 4 9 11 15 11 6 3 3 5 3 2 3 3 3 2 3 5 10 8 7 8 10 9 11 13 16 20 23 27 28 32 36 39 41 41 41 39 37
9 7 6 8 6 6 29 13 9 9 9 12 5 11 15 14 13 13 15 19 7 5 4 4 4 6 4 3 2 3 6 11 13 14 13 11 11 13 16 20 22 25 29 31 33 35 36 37 40 39 39 37 37 35
14 11 7 6 7 6 7 9 9 6 11 6 7 7 8 14 23 19 18 16 20 15 9 6 5 3 3 3 3 10 7 6 11 15 16 14 15 18 22 25 26 28 31 32 34 35 34 35 36 35 34 31 32 28
10 12 14 8 5 7 7 7 7 9 4 6 8 19 14 12 16 21 26 23 20 9 7 5 3 6 6 11 9 4 6 9 12 16 16 16 16 17 20 23 26 27 29 30 31 31 31 30 29 27 26 25 25 25
6 10 14 17 24 14 8 5 8 7 9 5 5 4 7 13 23 21 17 19 15 8 3 9 12 10 7 8 7 5 3 3 5 8 14 16 16 18 19 20 23 25 27 27 28 27 25 25 23 21 20 21 21 22
11 12 14 13 9 7 9 11 9 9 6 9 5 6 6 4 7 14 16 18 8 10 9 12 13 14 14 14 12 9 7 7 10 13 15 17 19 19 19 19 20 23 22 23 23 23 22 20 18 18 17 19 17 17
5 7 8 9 7 7 4 6 4 5 3 2 3 4 4 5 6 7 7 8 8 13 10 9 9 9 11 10 10 11 10 11 15 15 14 16 17 18 18 19 19 21 21 20 18 17 18 16 14 13 14 15 15 16
8 7 8 7 10 3 4 6 5 5 5 3 3 3 3 4 6 7 4 4 13 15 13 9 6 9 11 13 16 14 13 11 14 16 15 17 19 19 18 18 17 16 15 14 14 15 15 14 12 12 12 12 12 12
6 11 8 7 10 6 6 5 5 5 4 5 4 4 3 4 3 3 2 6 15 16 13 11 11 12 15 15 14 13 10 9 14 18 16 16 18 18 18 18 17 16 12 9 11 11 12 11 11 11 11 10 10 10
8 12 7 5 5 5 3 4 4 4 3 4 4 3 4 3 4 4 2 7 9 10 10 10 11 13 15 15 15 15 14 12 13 18 16 13 13 14 14 14 12 11 9 7 5 7 9 10 9 9 10 9 8 7
6 4 8 10 4 6 6 8 6 5 4 4 2 3 3 5 3 1 1 7 6 6 6 6 8 11 13 13 12 12 9 8 9 14 13 11 11 11 9 7 7 9 8 8 7 6 5 7 7 7 6 7 7 6
7 9 5 10 11 12 4 4 4 4 2 5 4 5 4 3 2 2 2 6 8 10 11 12 12 11 12 12 13 12 12 12 11 10 8 7 7 7 7 6 6 6 6 7 7 6 6 5 5 4 4 3 2 2
9 5 5 7 8 9 10 3 3 5 5 3 4 2 3 4 4 7 7 6 6 6 9 9 10 9 8 8 8 7 7 7 5 5 5 5 4 5 5 5 4 4 4 4 4 5 5 4 4 4 3 2 2 2
6 7 7 7 5 5 9 9 8 9 11 11 10 19 20 17 13 10 8 7 7 8 8 7 7 7 7 7 8 7 5 4 4 5 5 4 3 3 3 3 3 3 3 3 3 2 2 2 2 2 1 2 3 5
5 6 7 8 6 14 21 23 22 22 23 22 20 20 13 8 9 8 7 7 6 7 7 6 5 5 7 6 6 5 5 6 6 6 5 4 3 2 2 2 2 1 1 1 1 0 1 1 2 2 3 4 5 6
7 6 7 4 4 7 5 4 5 6 4 5 6 6 4 3 3 3 3 6 6 5 4 4 3 4 6 6 6 6 5 5 5 5 4 4 3 3 2 1 1 1 1 1 2 2 3 4 5 5 6 6 7 8
12 18 14 7 4 4 3 3 3 3 3 3 3 3 3 2 3 3 3 4 3 2 3 3 2 3 5 5 5 5 4 4 4 4 4 4 3 4 4 3 2 1 2 2 3 3 3 4 5 5 6 7 7 8